<?xml version="1.0" encoding="UTF-8" standalone="no" ?>
<gpx xmlns="http://www.topografix.com/GPX/1/1" xmlns:xsi="http://www.w3.org/2001/XMLSchema-instance" xsi:schemaLocation="http://www.topografix.com/GPX/1/1 http://www.topografix.com/GPX/1/1/gpx.xsd" version="1.1" creator="VisuGPX - https://www.visugpx.com">
  <metadata>
    <name>Champagnat Cyclisme sur route</name>
  </metadata>
  <trk>
    <name><![CDATA[Champagnat Cyclisme sur route_1]]></name>
    <trkseg>
      <trkpt lat="46.4827" lon="5.36839">
        <ele>264.6</ele>
        <time>2022-09-01T05:57:27Z</time>
      </trkpt>
      <trkpt lat="46.48261" lon="5.36827">
        <ele>264.2</ele>
        <time>2022-09-01T05:57:28Z</time>
      </trkpt>
      <trkpt lat="46.48251" lon="5.36816">
        <ele>263.6</ele>
        <time>2022-09-01T05:57:29Z</time>
      </trkpt>
      <trkpt lat="46.48241" lon="5.36807">
        <ele>262.8</ele>
        <time>2022-09-01T05:57:30Z</time>
      </trkpt>
      <trkpt lat="46.4823" lon="5.36798">
        <ele>261.6</ele>
        <time>2022-09-01T05:57:31Z</time>
      </trkpt>
      <trkpt lat="46.48208" lon="5.3678">
        <ele>260.4</ele>
        <time>2022-09-01T05:57:33Z</time>
      </trkpt>
      <trkpt lat="46.48197" lon="5.36771">
        <ele>259.6</ele>
        <time>2022-09-01T05:57:34Z</time>
      </trkpt>
      <trkpt lat="46.48186" lon="5.36762">
        <ele>258.8</ele>
        <time>2022-09-01T05:57:35Z</time>
      </trkpt>
      <trkpt lat="46.48165" lon="5.36744">
        <ele>257.4</ele>
        <time>2022-09-01T05:57:37Z</time>
      </trkpt>
      <trkpt lat="46.48144" lon="5.36727">
        <ele>256.2</ele>
        <time>2022-09-01T05:57:39Z</time>
      </trkpt>
      <trkpt lat="46.48125" lon="5.36711">
        <ele>254.8</ele>
        <time>2022-09-01T05:57:41Z</time>
      </trkpt>
      <trkpt lat="46.48118" lon="5.36705">
        <ele>254</ele>
        <time>2022-09-01T05:57:42Z</time>
      </trkpt>
      <trkpt lat="46.48112" lon="5.36699">
        <ele>253.2</ele>
        <time>2022-09-01T05:57:43Z</time>
      </trkpt>
      <trkpt lat="46.48109" lon="5.36692">
        <ele>252.8</ele>
        <time>2022-09-01T05:57:44Z</time>
      </trkpt>
      <trkpt lat="46.4811" lon="5.36684">
        <ele>251.8</ele>
        <time>2022-09-01T05:57:45Z</time>
      </trkpt>
      <trkpt lat="46.48113" lon="5.36676">
        <ele>251.4</ele>
        <time>2022-09-01T05:57:46Z</time>
      </trkpt>
      <trkpt lat="46.48118" lon="5.36669">
        <ele>250.6</ele>
        <time>2022-09-01T05:57:47Z</time>
      </trkpt>
      <trkpt lat="46.48124" lon="5.36663">
        <ele>250.2</ele>
        <time>2022-09-01T05:57:48Z</time>
      </trkpt>
      <trkpt lat="46.48131" lon="5.36657">
        <ele>249.6</ele>
        <time>2022-09-01T05:57:49Z</time>
      </trkpt>
      <trkpt lat="46.48137" lon="5.36651">
        <ele>249</ele>
        <time>2022-09-01T05:57:50Z</time>
      </trkpt>
      <trkpt lat="46.48144" lon="5.36645">
        <ele>248.4</ele>
        <time>2022-09-01T05:57:51Z</time>
      </trkpt>
      <trkpt lat="46.48163" lon="5.36625">
        <ele>247.2</ele>
        <time>2022-09-01T05:57:54Z</time>
      </trkpt>
      <trkpt lat="46.48172" lon="5.36618">
        <ele>247</ele>
        <time>2022-09-01T05:57:55Z</time>
      </trkpt>
      <trkpt lat="46.48187" lon="5.36605">
        <ele>246.6</ele>
        <time>2022-09-01T05:57:57Z</time>
      </trkpt>
      <trkpt lat="46.48203" lon="5.36601">
        <ele>246.6</ele>
        <time>2022-09-01T05:57:59Z</time>
      </trkpt>
      <trkpt lat="46.48211" lon="5.36597">
        <ele>246.4</ele>
        <time>2022-09-01T05:58:00Z</time>
      </trkpt>
      <trkpt lat="46.48217" lon="5.36589">
        <ele>246.4</ele>
        <time>2022-09-01T05:58:01Z</time>
      </trkpt>
      <trkpt lat="46.48221" lon="5.36579">
        <ele>246.4</ele>
        <time>2022-09-01T05:58:02Z</time>
      </trkpt>
      <trkpt lat="46.48224" lon="5.36568">
        <ele>246</ele>
        <time>2022-09-01T05:58:03Z</time>
      </trkpt>
      <trkpt lat="46.48228" lon="5.36559">
        <ele>246</ele>
        <time>2022-09-01T05:58:04Z</time>
      </trkpt>
      <trkpt lat="46.48254" lon="5.36528">
        <ele>245.2</ele>
        <time>2022-09-01T05:58:08Z</time>
      </trkpt>
      <trkpt lat="46.48267" lon="5.36513">
        <ele>244.8</ele>
        <time>2022-09-01T05:58:10Z</time>
      </trkpt>
      <trkpt lat="46.48298" lon="5.36479">
        <ele>243.8</ele>
        <time>2022-09-01T05:58:14Z</time>
      </trkpt>
      <trkpt lat="46.48327" lon="5.36446">
        <ele>242.6</ele>
        <time>2022-09-01T05:58:19Z</time>
      </trkpt>
      <trkpt lat="46.48334" lon="5.36438">
        <ele>242.4</ele>
        <time>2022-09-01T05:58:20Z</time>
      </trkpt>
      <trkpt lat="46.48363" lon="5.36408">
        <ele>241.6</ele>
        <time>2022-09-01T05:58:24Z</time>
      </trkpt>
      <trkpt lat="46.48391" lon="5.36378">
        <ele>240.8</ele>
        <time>2022-09-01T05:58:28Z</time>
      </trkpt>
      <trkpt lat="46.48398" lon="5.36371">
        <ele>240.4</ele>
        <time>2022-09-01T05:58:29Z</time>
      </trkpt>
      <trkpt lat="46.48413" lon="5.36358">
        <ele>240</ele>
        <time>2022-09-01T05:58:31Z</time>
      </trkpt>
      <trkpt lat="46.48428" lon="5.36351">
        <ele>239.8</ele>
        <time>2022-09-01T05:58:33Z</time>
      </trkpt>
      <trkpt lat="46.4846" lon="5.36345">
        <ele>239.4</ele>
        <time>2022-09-01T05:58:37Z</time>
      </trkpt>
      <trkpt lat="46.48468" lon="5.36344">
        <ele>239.2</ele>
        <time>2022-09-01T05:58:38Z</time>
      </trkpt>
      <trkpt lat="46.48529" lon="5.36334">
        <ele>238.8</ele>
        <time>2022-09-01T05:58:46Z</time>
      </trkpt>
      <trkpt lat="46.48536" lon="5.36333">
        <ele>238.8</ele>
        <time>2022-09-01T05:58:47Z</time>
      </trkpt>
      <trkpt lat="46.48544" lon="5.36332">
        <ele>238.8</ele>
        <time>2022-09-01T05:58:48Z</time>
      </trkpt>
      <trkpt lat="46.48559" lon="5.36329">
        <ele>238.4</ele>
        <time>2022-09-01T05:58:50Z</time>
      </trkpt>
      <trkpt lat="46.4861" lon="5.3632">
        <ele>237.4</ele>
        <time>2022-09-01T05:58:56Z</time>
      </trkpt>
      <trkpt lat="46.48619" lon="5.36316">
        <ele>237</ele>
        <time>2022-09-01T05:58:57Z</time>
      </trkpt>
      <trkpt lat="46.48625" lon="5.3631">
        <ele>236.8</ele>
        <time>2022-09-01T05:58:58Z</time>
      </trkpt>
      <trkpt lat="46.48631" lon="5.36298">
        <ele>236.4</ele>
        <time>2022-09-01T05:58:59Z</time>
      </trkpt>
      <trkpt lat="46.48634" lon="5.36284">
        <ele>236</ele>
        <time>2022-09-01T05:59:00Z</time>
      </trkpt>
      <trkpt lat="46.48636" lon="5.36271">
        <ele>235.8</ele>
        <time>2022-09-01T05:59:01Z</time>
      </trkpt>
      <trkpt lat="46.48639" lon="5.36246">
        <ele>234.8</ele>
        <time>2022-09-01T05:59:03Z</time>
      </trkpt>
      <trkpt lat="46.4864" lon="5.36233">
        <ele>234.6</ele>
        <time>2022-09-01T05:59:04Z</time>
      </trkpt>
      <trkpt lat="46.48643" lon="5.3619">
        <ele>233.4</ele>
        <time>2022-09-01T05:59:07Z</time>
      </trkpt>
      <trkpt lat="46.48649" lon="5.36139">
        <ele>232.6</ele>
        <time>2022-09-01T05:59:11Z</time>
      </trkpt>
      <trkpt lat="46.48651" lon="5.36127">
        <ele>232.4</ele>
        <time>2022-09-01T05:59:12Z</time>
      </trkpt>
      <trkpt lat="46.48663" lon="5.36069">
        <ele>231.8</ele>
        <time>2022-09-01T05:59:17Z</time>
      </trkpt>
      <trkpt lat="46.48665" lon="5.36061">
        <ele>231.6</ele>
        <time>2022-09-01T05:59:18Z</time>
      </trkpt>
      <trkpt lat="46.48667" lon="5.3605">
        <ele>231.6</ele>
        <time>2022-09-01T05:59:19Z</time>
      </trkpt>
      <trkpt lat="46.48675" lon="5.36012">
        <ele>231.4</ele>
        <time>2022-09-01T05:59:23Z</time>
      </trkpt>
      <trkpt lat="46.48686" lon="5.35939">
        <ele>232.6</ele>
        <time>2022-09-01T05:59:30Z</time>
      </trkpt>
      <trkpt lat="46.48688" lon="5.35928">
        <ele>232.8</ele>
        <time>2022-09-01T05:59:31Z</time>
      </trkpt>
      <trkpt lat="46.4869" lon="5.35917">
        <ele>232.8</ele>
        <time>2022-09-01T05:59:32Z</time>
      </trkpt>
      <trkpt lat="46.48695" lon="5.35897">
        <ele>233</ele>
        <time>2022-09-01T05:59:34Z</time>
      </trkpt>
      <trkpt lat="46.48722" lon="5.35828">
        <ele>232.6</ele>
        <time>2022-09-01T05:59:40Z</time>
      </trkpt>
      <trkpt lat="46.48741" lon="5.35788">
        <ele>231.6</ele>
        <time>2022-09-01T05:59:43Z</time>
      </trkpt>
      <trkpt lat="46.48757" lon="5.35752">
        <ele>231</ele>
        <time>2022-09-01T05:59:47Z</time>
      </trkpt>
      <trkpt lat="46.48775" lon="5.35711">
        <ele>230.4</ele>
        <time>2022-09-01T05:59:51Z</time>
      </trkpt>
      <trkpt lat="46.48796" lon="5.35664">
        <ele>230.2</ele>
        <time>2022-09-01T05:59:56Z</time>
      </trkpt>
      <trkpt lat="46.48808" lon="5.35639">
        <ele>230</ele>
        <time>2022-09-01T05:59:59Z</time>
      </trkpt>
      <trkpt lat="46.48814" lon="5.35622">
        <ele>230</ele>
        <time>2022-09-01T06:00:01Z</time>
      </trkpt>
      <trkpt lat="46.48838" lon="5.35572">
        <ele>230</ele>
        <time>2022-09-01T06:00:07Z</time>
      </trkpt>
      <trkpt lat="46.48845" lon="5.35565">
        <ele>230</ele>
        <time>2022-09-01T06:00:08Z</time>
      </trkpt>
      <trkpt lat="46.48851" lon="5.35562">
        <ele>230</ele>
        <time>2022-09-01T06:00:09Z</time>
      </trkpt>
      <trkpt lat="46.48864" lon="5.3556">
        <ele>230</ele>
        <time>2022-09-01T06:00:11Z</time>
      </trkpt>
      <trkpt lat="46.48913" lon="5.35559">
        <ele>229.6</ele>
        <time>2022-09-01T06:00:17Z</time>
      </trkpt>
      <trkpt lat="46.48929" lon="5.35558">
        <ele>229.2</ele>
        <time>2022-09-01T06:00:19Z</time>
      </trkpt>
      <trkpt lat="46.48971" lon="5.35556">
        <ele>228.2</ele>
        <time>2022-09-01T06:00:24Z</time>
      </trkpt>
      <trkpt lat="46.4898" lon="5.35555">
        <ele>228</ele>
        <time>2022-09-01T06:00:25Z</time>
      </trkpt>
      <trkpt lat="46.49034" lon="5.35552">
        <ele>227</ele>
        <time>2022-09-01T06:00:32Z</time>
      </trkpt>
      <trkpt lat="46.49064" lon="5.35551">
        <ele>227</ele>
        <time>2022-09-01T06:00:36Z</time>
      </trkpt>
      <trkpt lat="46.49101" lon="5.35548">
        <ele>227.4</ele>
        <time>2022-09-01T06:00:42Z</time>
      </trkpt>
      <trkpt lat="46.49108" lon="5.35548">
        <ele>227.6</ele>
        <time>2022-09-01T06:00:43Z</time>
      </trkpt>
      <trkpt lat="46.49114" lon="5.35548">
        <ele>227.6</ele>
        <time>2022-09-01T06:00:44Z</time>
      </trkpt>
      <trkpt lat="46.49126" lon="5.35547">
        <ele>227.8</ele>
        <time>2022-09-01T06:00:46Z</time>
      </trkpt>
      <trkpt lat="46.49163" lon="5.35545">
        <ele>228.4</ele>
        <time>2022-09-01T06:00:52Z</time>
      </trkpt>
      <trkpt lat="46.49176" lon="5.35546">
        <ele>228.8</ele>
        <time>2022-09-01T06:00:54Z</time>
      </trkpt>
      <trkpt lat="46.49194" lon="5.35545">
        <ele>229.2</ele>
        <time>2022-09-01T06:00:57Z</time>
      </trkpt>
      <trkpt lat="46.49212" lon="5.35544">
        <ele>229.8</ele>
        <time>2022-09-01T06:01:00Z</time>
      </trkpt>
      <trkpt lat="46.49218" lon="5.35544">
        <ele>230</ele>
        <time>2022-09-01T06:01:01Z</time>
      </trkpt>
      <trkpt lat="46.49229" lon="5.35543">
        <ele>230.2</ele>
        <time>2022-09-01T06:01:03Z</time>
      </trkpt>
      <trkpt lat="46.49264" lon="5.35538">
        <ele>230.6</ele>
        <time>2022-09-01T06:01:08Z</time>
      </trkpt>
      <trkpt lat="46.4932" lon="5.35534">
        <ele>230.6</ele>
        <time>2022-09-01T06:01:16Z</time>
      </trkpt>
      <trkpt lat="46.49327" lon="5.35534">
        <ele>230.6</ele>
        <time>2022-09-01T06:01:17Z</time>
      </trkpt>
      <trkpt lat="46.49385" lon="5.35535">
        <ele>229.6</ele>
        <time>2022-09-01T06:01:25Z</time>
      </trkpt>
      <trkpt lat="46.49422" lon="5.35547">
        <ele>229</ele>
        <time>2022-09-01T06:01:30Z</time>
      </trkpt>
      <trkpt lat="46.49443" lon="5.35556">
        <ele>228.4</ele>
        <time>2022-09-01T06:01:33Z</time>
      </trkpt>
      <trkpt lat="46.49464" lon="5.35565">
        <ele>228</ele>
        <time>2022-09-01T06:01:36Z</time>
      </trkpt>
      <trkpt lat="46.4952" lon="5.35589">
        <ele>227.8</ele>
        <time>2022-09-01T06:01:44Z</time>
      </trkpt>
      <trkpt lat="46.49575" lon="5.3561">
        <ele>227</ele>
        <time>2022-09-01T06:01:51Z</time>
      </trkpt>
      <trkpt lat="46.496" lon="5.35618">
        <ele>226.4</ele>
        <time>2022-09-01T06:01:55Z</time>
      </trkpt>
      <trkpt lat="46.49629" lon="5.35627">
        <ele>225.8</ele>
        <time>2022-09-01T06:01:59Z</time>
      </trkpt>
      <trkpt lat="46.49672" lon="5.35639">
        <ele>225.2</ele>
        <time>2022-09-01T06:02:05Z</time>
      </trkpt>
      <trkpt lat="46.49694" lon="5.35645">
        <ele>224.8</ele>
        <time>2022-09-01T06:02:09Z</time>
      </trkpt>
      <trkpt lat="46.497" lon="5.3564">
        <ele>224.2</ele>
        <time>2022-09-01T06:02:11Z</time>
      </trkpt>
      <trkpt lat="46.49703" lon="5.35633">
        <ele>224</ele>
        <time>2022-09-01T06:02:12Z</time>
      </trkpt>
      <trkpt lat="46.49706" lon="5.35626">
        <ele>223.8</ele>
        <time>2022-09-01T06:02:13Z</time>
      </trkpt>
      <trkpt lat="46.49707" lon="5.35618">
        <ele>223.6</ele>
        <time>2022-09-01T06:02:14Z</time>
      </trkpt>
      <trkpt lat="46.49709" lon="5.356">
        <ele>223.6</ele>
        <time>2022-09-01T06:02:16Z</time>
      </trkpt>
      <trkpt lat="46.49717" lon="5.3554">
        <ele>222.8</ele>
        <time>2022-09-01T06:02:22Z</time>
      </trkpt>
      <trkpt lat="46.49725" lon="5.3547">
        <ele>222.8</ele>
        <time>2022-09-01T06:02:29Z</time>
      </trkpt>
      <trkpt lat="46.49726" lon="5.3546">
        <ele>222.6</ele>
        <time>2022-09-01T06:02:30Z</time>
      </trkpt>
      <trkpt lat="46.49734" lon="5.35395">
        <ele>221.8</ele>
        <time>2022-09-01T06:02:36Z</time>
      </trkpt>
      <trkpt lat="46.49736" lon="5.35362">
        <ele>221.2</ele>
        <time>2022-09-01T06:02:39Z</time>
      </trkpt>
      <trkpt lat="46.49732" lon="5.3531">
        <ele>221</ele>
        <time>2022-09-01T06:02:44Z</time>
      </trkpt>
      <trkpt lat="46.49722" lon="5.35256">
        <ele>221.4</ele>
        <time>2022-09-01T06:02:50Z</time>
      </trkpt>
      <trkpt lat="46.49707" lon="5.35189">
        <ele>222.2</ele>
        <time>2022-09-01T06:02:58Z</time>
      </trkpt>
      <trkpt lat="46.49691" lon="5.3511">
        <ele>222</ele>
        <time>2022-09-01T06:03:06Z</time>
      </trkpt>
      <trkpt lat="46.49687" lon="5.3509">
        <ele>221.8</ele>
        <time>2022-09-01T06:03:08Z</time>
      </trkpt>
      <trkpt lat="46.49683" lon="5.35071">
        <ele>221.6</ele>
        <time>2022-09-01T06:03:10Z</time>
      </trkpt>
      <trkpt lat="46.49671" lon="5.3501">
        <ele>221.4</ele>
        <time>2022-09-01T06:03:17Z</time>
      </trkpt>
      <trkpt lat="46.49656" lon="5.34937">
        <ele>222.6</ele>
        <time>2022-09-01T06:03:26Z</time>
      </trkpt>
      <trkpt lat="46.49643" lon="5.34868">
        <ele>223.2</ele>
        <time>2022-09-01T06:03:34Z</time>
      </trkpt>
      <trkpt lat="46.49629" lon="5.34782">
        <ele>223.2</ele>
        <time>2022-09-01T06:03:43Z</time>
      </trkpt>
      <trkpt lat="46.49628" lon="5.34723">
        <ele>222.6</ele>
        <time>2022-09-01T06:03:48Z</time>
      </trkpt>
      <trkpt lat="46.49631" lon="5.34686">
        <ele>221.6</ele>
        <time>2022-09-01T06:03:51Z</time>
      </trkpt>
      <trkpt lat="46.49635" lon="5.34647">
        <ele>220.2</ele>
        <time>2022-09-01T06:03:54Z</time>
      </trkpt>
      <trkpt lat="46.49637" lon="5.34634">
        <ele>220</ele>
        <time>2022-09-01T06:03:55Z</time>
      </trkpt>
      <trkpt lat="46.49642" lon="5.34593">
        <ele>219</ele>
        <time>2022-09-01T06:03:58Z</time>
      </trkpt>
      <trkpt lat="46.49648" lon="5.34554">
        <ele>217.6</ele>
        <time>2022-09-01T06:04:01Z</time>
      </trkpt>
      <trkpt lat="46.49662" lon="5.34497">
        <ele>216.6</ele>
        <time>2022-09-01T06:04:06Z</time>
      </trkpt>
      <trkpt lat="46.49678" lon="5.34436">
        <ele>216.6</ele>
        <time>2022-09-01T06:04:12Z</time>
      </trkpt>
      <trkpt lat="46.49688" lon="5.34401">
        <ele>217.8</ele>
        <time>2022-09-01T06:04:17Z</time>
      </trkpt>
      <trkpt lat="46.49694" lon="5.34378">
        <ele>218.2</ele>
        <time>2022-09-01T06:04:20Z</time>
      </trkpt>
      <trkpt lat="46.49702" lon="5.34348">
        <ele>218.8</ele>
        <time>2022-09-01T06:04:24Z</time>
      </trkpt>
      <trkpt lat="46.49704" lon="5.34341">
        <ele>219</ele>
        <time>2022-09-01T06:04:25Z</time>
      </trkpt>
      <trkpt lat="46.49708" lon="5.34326">
        <ele>219.4</ele>
        <time>2022-09-01T06:04:27Z</time>
      </trkpt>
      <trkpt lat="46.49711" lon="5.3432">
        <ele>219.6</ele>
        <time>2022-09-01T06:04:28Z</time>
      </trkpt>
      <trkpt lat="46.49717" lon="5.34307">
        <ele>219.8</ele>
        <time>2022-09-01T06:04:30Z</time>
      </trkpt>
      <trkpt lat="46.49727" lon="5.34285">
        <ele>220.4</ele>
        <time>2022-09-01T06:04:33Z</time>
      </trkpt>
      <trkpt lat="46.49753" lon="5.34242">
        <ele>220.6</ele>
        <time>2022-09-01T06:04:39Z</time>
      </trkpt>
      <trkpt lat="46.49785" lon="5.34187">
        <ele>220.8</ele>
        <time>2022-09-01T06:04:47Z</time>
      </trkpt>
      <trkpt lat="46.49789" lon="5.34181">
        <ele>220.8</ele>
        <time>2022-09-01T06:04:48Z</time>
      </trkpt>
      <trkpt lat="46.49813" lon="5.34142">
        <ele>221</ele>
        <time>2022-09-01T06:04:54Z</time>
      </trkpt>
      <trkpt lat="46.49825" lon="5.34122">
        <ele>221.2</ele>
        <time>2022-09-01T06:04:57Z</time>
      </trkpt>
      <trkpt lat="46.49856" lon="5.34075">
        <ele>221.6</ele>
        <time>2022-09-01T06:05:04Z</time>
      </trkpt>
      <trkpt lat="46.49898" lon="5.34023">
        <ele>221.2</ele>
        <time>2022-09-01T06:05:12Z</time>
      </trkpt>
      <trkpt lat="46.49924" lon="5.33997">
        <ele>221.4</ele>
        <time>2022-09-01T06:05:18Z</time>
      </trkpt>
      <trkpt lat="46.49938" lon="5.33983">
        <ele>221.8</ele>
        <time>2022-09-01T06:05:21Z</time>
      </trkpt>
      <trkpt lat="46.49956" lon="5.33965">
        <ele>222.4</ele>
        <time>2022-09-01T06:05:25Z</time>
      </trkpt>
      <trkpt lat="46.4997" lon="5.33952">
        <ele>222.8</ele>
        <time>2022-09-01T06:05:28Z</time>
      </trkpt>
      <trkpt lat="46.5" lon="5.33919">
        <ele>223.4</ele>
        <time>2022-09-01T06:05:34Z</time>
      </trkpt>
      <trkpt lat="46.50015" lon="5.33901">
        <ele>223.8</ele>
        <time>2022-09-01T06:05:37Z</time>
      </trkpt>
      <trkpt lat="46.50037" lon="5.33875">
        <ele>223.8</ele>
        <time>2022-09-01T06:05:41Z</time>
      </trkpt>
      <trkpt lat="46.50079" lon="5.33827">
        <ele>223.2</ele>
        <time>2022-09-01T06:05:48Z</time>
      </trkpt>
      <trkpt lat="46.50098" lon="5.33808">
        <ele>222.4</ele>
        <time>2022-09-01T06:05:51Z</time>
      </trkpt>
      <trkpt lat="46.50137" lon="5.33766">
        <ele>221.4</ele>
        <time>2022-09-01T06:05:57Z</time>
      </trkpt>
      <trkpt lat="46.50144" lon="5.33758">
        <ele>221.4</ele>
        <time>2022-09-01T06:05:58Z</time>
      </trkpt>
      <trkpt lat="46.50184" lon="5.33717">
        <ele>221.4</ele>
        <time>2022-09-01T06:06:05Z</time>
      </trkpt>
      <trkpt lat="46.502" lon="5.33699">
        <ele>221.6</ele>
        <time>2022-09-01T06:06:08Z</time>
      </trkpt>
      <trkpt lat="46.50228" lon="5.33668">
        <ele>221.6</ele>
        <time>2022-09-01T06:06:13Z</time>
      </trkpt>
      <trkpt lat="46.50275" lon="5.33618">
        <ele>221.6</ele>
        <time>2022-09-01T06:06:21Z</time>
      </trkpt>
      <trkpt lat="46.5032" lon="5.33567">
        <ele>220.8</ele>
        <time>2022-09-01T06:06:29Z</time>
      </trkpt>
      <trkpt lat="46.50326" lon="5.33561">
        <ele>220.8</ele>
        <time>2022-09-01T06:06:30Z</time>
      </trkpt>
      <trkpt lat="46.50362" lon="5.33523">
        <ele>220.4</ele>
        <time>2022-09-01T06:06:36Z</time>
      </trkpt>
      <trkpt lat="46.50378" lon="5.33505">
        <ele>220</ele>
        <time>2022-09-01T06:06:39Z</time>
      </trkpt>
      <trkpt lat="46.50427" lon="5.33451">
        <ele>219.2</ele>
        <time>2022-09-01T06:06:47Z</time>
      </trkpt>
      <trkpt lat="46.50432" lon="5.33443">
        <ele>219</ele>
        <time>2022-09-01T06:06:48Z</time>
      </trkpt>
      <trkpt lat="46.50456" lon="5.33403">
        <ele>218.2</ele>
        <time>2022-09-01T06:06:53Z</time>
      </trkpt>
      <trkpt lat="46.50459" lon="5.33393">
        <ele>218</ele>
        <time>2022-09-01T06:06:54Z</time>
      </trkpt>
      <trkpt lat="46.50462" lon="5.33382">
        <ele>218</ele>
        <time>2022-09-01T06:06:55Z</time>
      </trkpt>
      <trkpt lat="46.50465" lon="5.33361">
        <ele>217.8</ele>
        <time>2022-09-01T06:06:57Z</time>
      </trkpt>
      <trkpt lat="46.50468" lon="5.33307">
        <ele>217.4</ele>
        <time>2022-09-01T06:07:02Z</time>
      </trkpt>
      <trkpt lat="46.50468" lon="5.33247">
        <ele>217.4</ele>
        <time>2022-09-01T06:07:08Z</time>
      </trkpt>
      <trkpt lat="46.50469" lon="5.33192">
        <ele>218.2</ele>
        <time>2022-09-01T06:07:14Z</time>
      </trkpt>
      <trkpt lat="46.5047" lon="5.33127">
        <ele>217.6</ele>
        <time>2022-09-01T06:07:21Z</time>
      </trkpt>
      <trkpt lat="46.5047" lon="5.33081">
        <ele>216.8</ele>
        <time>2022-09-01T06:07:25Z</time>
      </trkpt>
      <trkpt lat="46.5047" lon="5.33068">
        <ele>216.4</ele>
        <time>2022-09-01T06:07:26Z</time>
      </trkpt>
      <trkpt lat="46.50471" lon="5.33013">
        <ele>215.2</ele>
        <time>2022-09-01T06:07:30Z</time>
      </trkpt>
      <trkpt lat="46.50472" lon="5.32984">
        <ele>214.4</ele>
        <time>2022-09-01T06:07:32Z</time>
      </trkpt>
      <trkpt lat="46.50472" lon="5.3297">
        <ele>213.6</ele>
        <time>2022-09-01T06:07:33Z</time>
      </trkpt>
      <trkpt lat="46.50473" lon="5.32941">
        <ele>212.6</ele>
        <time>2022-09-01T06:07:35Z</time>
      </trkpt>
      <trkpt lat="46.50474" lon="5.32883">
        <ele>210.8</ele>
        <time>2022-09-01T06:07:39Z</time>
      </trkpt>
      <trkpt lat="46.50474" lon="5.32869">
        <ele>210</ele>
        <time>2022-09-01T06:07:40Z</time>
      </trkpt>
      <trkpt lat="46.50474" lon="5.32854">
        <ele>209.8</ele>
        <time>2022-09-01T06:07:41Z</time>
      </trkpt>
      <trkpt lat="46.50475" lon="5.32817">
        <ele>208.4</ele>
        <time>2022-09-01T06:07:44Z</time>
      </trkpt>
      <trkpt lat="46.50476" lon="5.32783">
        <ele>207.2</ele>
        <time>2022-09-01T06:07:46Z</time>
      </trkpt>
      <trkpt lat="46.50476" lon="5.32743">
        <ele>206</ele>
        <time>2022-09-01T06:07:49Z</time>
      </trkpt>
      <trkpt lat="46.50477" lon="5.32729">
        <ele>205.8</ele>
        <time>2022-09-01T06:07:50Z</time>
      </trkpt>
      <trkpt lat="46.50478" lon="5.32652">
        <ele>205</ele>
        <time>2022-09-01T06:07:56Z</time>
      </trkpt>
      <trkpt lat="46.50478" lon="5.32629">
        <ele>204.8</ele>
        <time>2022-09-01T06:07:58Z</time>
      </trkpt>
      <trkpt lat="46.50476" lon="5.32564">
        <ele>204</ele>
        <time>2022-09-01T06:08:03Z</time>
      </trkpt>
      <trkpt lat="46.50474" lon="5.32517">
        <ele>203.6</ele>
        <time>2022-09-01T06:08:07Z</time>
      </trkpt>
      <trkpt lat="46.50467" lon="5.32441">
        <ele>203</ele>
        <time>2022-09-01T06:08:13Z</time>
      </trkpt>
      <trkpt lat="46.50463" lon="5.32417">
        <ele>202.6</ele>
        <time>2022-09-01T06:08:15Z</time>
      </trkpt>
      <trkpt lat="46.50447" lon="5.3234">
        <ele>202</ele>
        <time>2022-09-01T06:08:22Z</time>
      </trkpt>
      <trkpt lat="46.50442" lon="5.32319">
        <ele>202</ele>
        <time>2022-09-01T06:08:24Z</time>
      </trkpt>
      <trkpt lat="46.50434" lon="5.32269">
        <ele>201.8</ele>
        <time>2022-09-01T06:08:29Z</time>
      </trkpt>
      <trkpt lat="46.50432" lon="5.32202">
        <ele>202</ele>
        <time>2022-09-01T06:08:35Z</time>
      </trkpt>
      <trkpt lat="46.50434" lon="5.32119">
        <ele>201.6</ele>
        <time>2022-09-01T06:08:42Z</time>
      </trkpt>
      <trkpt lat="46.50435" lon="5.32069">
        <ele>201.4</ele>
        <time>2022-09-01T06:08:47Z</time>
      </trkpt>
      <trkpt lat="46.50436" lon="5.32035">
        <ele>201</ele>
        <time>2022-09-01T06:08:50Z</time>
      </trkpt>
      <trkpt lat="46.50438" lon="5.31956">
        <ele>200</ele>
        <time>2022-09-01T06:08:57Z</time>
      </trkpt>
      <trkpt lat="46.50438" lon="5.31945">
        <ele>199.8</ele>
        <time>2022-09-01T06:08:58Z</time>
      </trkpt>
      <trkpt lat="46.50436" lon="5.31857">
        <ele>199</ele>
        <time>2022-09-01T06:09:06Z</time>
      </trkpt>
      <trkpt lat="46.50426" lon="5.31808">
        <ele>198.8</ele>
        <time>2022-09-01T06:09:11Z</time>
      </trkpt>
      <trkpt lat="46.50424" lon="5.31798">
        <ele>198.8</ele>
        <time>2022-09-01T06:09:12Z</time>
      </trkpt>
      <trkpt lat="46.50402" lon="5.31729">
        <ele>198.6</ele>
        <time>2022-09-01T06:09:19Z</time>
      </trkpt>
      <trkpt lat="46.50381" lon="5.31685">
        <ele>198.4</ele>
        <time>2022-09-01T06:09:24Z</time>
      </trkpt>
      <trkpt lat="46.50375" lon="5.31677">
        <ele>198.4</ele>
        <time>2022-09-01T06:09:25Z</time>
      </trkpt>
      <trkpt lat="46.50352" lon="5.3165">
        <ele>198</ele>
        <time>2022-09-01T06:09:29Z</time>
      </trkpt>
      <trkpt lat="46.50347" lon="5.31645">
        <ele>198</ele>
        <time>2022-09-01T06:09:30Z</time>
      </trkpt>
      <trkpt lat="46.50318" lon="5.31624">
        <ele>197.8</ele>
        <time>2022-09-01T06:09:34Z</time>
      </trkpt>
      <trkpt lat="46.50286" lon="5.316">
        <ele>197.2</ele>
        <time>2022-09-01T06:09:39Z</time>
      </trkpt>
      <trkpt lat="46.50264" lon="5.31581">
        <ele>197.2</ele>
        <time>2022-09-01T06:09:42Z</time>
      </trkpt>
      <trkpt lat="46.50249" lon="5.31565">
        <ele>197.2</ele>
        <time>2022-09-01T06:09:45Z</time>
      </trkpt>
      <trkpt lat="46.50221" lon="5.31522">
        <ele>197.2</ele>
        <time>2022-09-01T06:09:51Z</time>
      </trkpt>
      <trkpt lat="46.50216" lon="5.31509">
        <ele>197.2</ele>
        <time>2022-09-01T06:09:53Z</time>
      </trkpt>
      <trkpt lat="46.50207" lon="5.31486">
        <ele>197.4</ele>
        <time>2022-09-01T06:09:56Z</time>
      </trkpt>
      <trkpt lat="46.50194" lon="5.31447">
        <ele>198.8</ele>
        <time>2022-09-01T06:10:02Z</time>
      </trkpt>
      <trkpt lat="46.50187" lon="5.3142">
        <ele>199.8</ele>
        <time>2022-09-01T06:10:06Z</time>
      </trkpt>
      <trkpt lat="46.50182" lon="5.31408">
        <ele>200.2</ele>
        <time>2022-09-01T06:10:08Z</time>
      </trkpt>
      <trkpt lat="46.50176" lon="5.31392">
        <ele>201</ele>
        <time>2022-09-01T06:10:11Z</time>
      </trkpt>
      <trkpt lat="46.50165" lon="5.3136">
        <ele>202.4</ele>
        <time>2022-09-01T06:10:16Z</time>
      </trkpt>
      <trkpt lat="46.50151" lon="5.31317">
        <ele>203.6</ele>
        <time>2022-09-01T06:10:23Z</time>
      </trkpt>
      <trkpt lat="46.50146" lon="5.31302">
        <ele>203.8</ele>
        <time>2022-09-01T06:10:25Z</time>
      </trkpt>
      <trkpt lat="46.50124" lon="5.31236">
        <ele>204.4</ele>
        <time>2022-09-01T06:10:34Z</time>
      </trkpt>
      <trkpt lat="46.50097" lon="5.31159">
        <ele>203.8</ele>
        <time>2022-09-01T06:10:42Z</time>
      </trkpt>
      <trkpt lat="46.50083" lon="5.31117">
        <ele>202.8</ele>
        <time>2022-09-01T06:10:47Z</time>
      </trkpt>
      <trkpt lat="46.50071" lon="5.31082">
        <ele>202.4</ele>
        <time>2022-09-01T06:10:51Z</time>
      </trkpt>
      <trkpt lat="46.50054" lon="5.31033">
        <ele>203</ele>
        <time>2022-09-01T06:10:58Z</time>
      </trkpt>
      <trkpt lat="46.50044" lon="5.31006">
        <ele>203.8</ele>
        <time>2022-09-01T06:11:02Z</time>
      </trkpt>
      <trkpt lat="46.50042" lon="5.31002">
        <ele>204.2</ele>
        <time>2022-09-01T06:11:03Z</time>
      </trkpt>
      <trkpt lat="46.5004" lon="5.30994">
        <ele>204.4</ele>
        <time>2022-09-01T06:11:04Z</time>
      </trkpt>
      <trkpt lat="46.50036" lon="5.30984">
        <ele>205.2</ele>
        <time>2022-09-01T06:11:06Z</time>
      </trkpt>
      <trkpt lat="46.50032" lon="5.3097">
        <ele>205.8</ele>
        <time>2022-09-01T06:11:08Z</time>
      </trkpt>
      <trkpt lat="46.50026" lon="5.30954">
        <ele>206.6</ele>
        <time>2022-09-01T06:11:11Z</time>
      </trkpt>
      <trkpt lat="46.50016" lon="5.30923">
        <ele>208</ele>
        <time>2022-09-01T06:11:16Z</time>
      </trkpt>
      <trkpt lat="46.50005" lon="5.30895">
        <ele>209.2</ele>
        <time>2022-09-01T06:11:21Z</time>
      </trkpt>
      <trkpt lat="46.49997" lon="5.30872">
        <ele>210.2</ele>
        <time>2022-09-01T06:11:25Z</time>
      </trkpt>
      <trkpt lat="46.49989" lon="5.30855">
        <ele>211.2</ele>
        <time>2022-09-01T06:11:28Z</time>
      </trkpt>
      <trkpt lat="46.49981" lon="5.30832">
        <ele>212.2</ele>
        <time>2022-09-01T06:11:32Z</time>
      </trkpt>
      <trkpt lat="46.49978" lon="5.30824">
        <ele>212.4</ele>
        <time>2022-09-01T06:11:33Z</time>
      </trkpt>
      <trkpt lat="46.49977" lon="5.30819">
        <ele>212.4</ele>
        <time>2022-09-01T06:11:34Z</time>
      </trkpt>
      <trkpt lat="46.49971" lon="5.30797">
        <ele>212.8</ele>
        <time>2022-09-01T06:11:37Z</time>
      </trkpt>
      <trkpt lat="46.49969" lon="5.30783">
        <ele>213.2</ele>
        <time>2022-09-01T06:11:39Z</time>
      </trkpt>
      <trkpt lat="46.49966" lon="5.30769">
        <ele>213.4</ele>
        <time>2022-09-01T06:11:41Z</time>
      </trkpt>
      <trkpt lat="46.49956" lon="5.30715">
        <ele>214.2</ele>
        <time>2022-09-01T06:11:49Z</time>
      </trkpt>
      <trkpt lat="46.49947" lon="5.30665">
        <ele>214.2</ele>
        <time>2022-09-01T06:11:55Z</time>
      </trkpt>
      <trkpt lat="46.49935" lon="5.30596">
        <ele>213.6</ele>
        <time>2022-09-01T06:12:02Z</time>
      </trkpt>
      <trkpt lat="46.49934" lon="5.30587">
        <ele>213.2</ele>
        <time>2022-09-01T06:12:03Z</time>
      </trkpt>
      <trkpt lat="46.49935" lon="5.3055">
        <ele>212</ele>
        <time>2022-09-01T06:12:06Z</time>
      </trkpt>
      <trkpt lat="46.4994" lon="5.30515">
        <ele>211.2</ele>
        <time>2022-09-01T06:12:09Z</time>
      </trkpt>
      <trkpt lat="46.49945" lon="5.305">
        <ele>210.8</ele>
        <time>2022-09-01T06:12:10Z</time>
      </trkpt>
      <trkpt lat="46.49953" lon="5.30479">
        <ele>210.4</ele>
        <time>2022-09-01T06:12:12Z</time>
      </trkpt>
      <trkpt lat="46.49963" lon="5.30463">
        <ele>210.2</ele>
        <time>2022-09-01T06:12:14Z</time>
      </trkpt>
      <trkpt lat="46.49969" lon="5.30454">
        <ele>209.8</ele>
        <time>2022-09-01T06:12:15Z</time>
      </trkpt>
      <trkpt lat="46.49976" lon="5.30446">
        <ele>209.6</ele>
        <time>2022-09-01T06:12:16Z</time>
      </trkpt>
      <trkpt lat="46.49991" lon="5.30433">
        <ele>208.8</ele>
        <time>2022-09-01T06:12:18Z</time>
      </trkpt>
      <trkpt lat="46.49999" lon="5.30426">
        <ele>208.4</ele>
        <time>2022-09-01T06:12:19Z</time>
      </trkpt>
      <trkpt lat="46.50016" lon="5.30414">
        <ele>207.4</ele>
        <time>2022-09-01T06:12:21Z</time>
      </trkpt>
      <trkpt lat="46.50039" lon="5.30395">
        <ele>206.6</ele>
        <time>2022-09-01T06:12:24Z</time>
      </trkpt>
      <trkpt lat="46.50052" lon="5.3038">
        <ele>206.2</ele>
        <time>2022-09-01T06:12:26Z</time>
      </trkpt>
      <trkpt lat="46.50063" lon="5.30363">
        <ele>205.8</ele>
        <time>2022-09-01T06:12:28Z</time>
      </trkpt>
      <trkpt lat="46.50081" lon="5.30318">
        <ele>205.8</ele>
        <time>2022-09-01T06:12:33Z</time>
      </trkpt>
      <trkpt lat="46.5009" lon="5.30264">
        <ele>206.6</ele>
        <time>2022-09-01T06:12:39Z</time>
      </trkpt>
      <trkpt lat="46.5009" lon="5.30235">
        <ele>207.2</ele>
        <time>2022-09-01T06:12:42Z</time>
      </trkpt>
      <trkpt lat="46.5009" lon="5.30216">
        <ele>207.4</ele>
        <time>2022-09-01T06:12:44Z</time>
      </trkpt>
      <trkpt lat="46.50091" lon="5.30168">
        <ele>208.2</ele>
        <time>2022-09-01T06:12:49Z</time>
      </trkpt>
      <trkpt lat="46.50091" lon="5.30151">
        <ele>208.4</ele>
        <time>2022-09-01T06:12:51Z</time>
      </trkpt>
      <trkpt lat="46.50091" lon="5.30096">
        <ele>208.8</ele>
        <time>2022-09-01T06:12:57Z</time>
      </trkpt>
      <trkpt lat="46.5009" lon="5.30071">
        <ele>209</ele>
        <time>2022-09-01T06:13:00Z</time>
      </trkpt>
      <trkpt lat="46.5009" lon="5.30044">
        <ele>209.2</ele>
        <time>2022-09-01T06:13:03Z</time>
      </trkpt>
      <trkpt lat="46.50088" lon="5.30007">
        <ele>209.6</ele>
        <time>2022-09-01T06:13:07Z</time>
      </trkpt>
      <trkpt lat="46.50077" lon="5.29952">
        <ele>209.6</ele>
        <time>2022-09-01T06:13:13Z</time>
      </trkpt>
      <trkpt lat="46.50061" lon="5.29918">
        <ele>209.6</ele>
        <time>2022-09-01T06:13:18Z</time>
      </trkpt>
      <trkpt lat="46.50047" lon="5.29897">
        <ele>209.2</ele>
        <time>2022-09-01T06:13:21Z</time>
      </trkpt>
      <trkpt lat="46.50033" lon="5.2988">
        <ele>209</ele>
        <time>2022-09-01T06:13:24Z</time>
      </trkpt>
      <trkpt lat="46.50023" lon="5.29869">
        <ele>208.8</ele>
        <time>2022-09-01T06:13:26Z</time>
      </trkpt>
      <trkpt lat="46.50021" lon="5.29863">
        <ele>208.8</ele>
        <time>2022-09-01T06:13:27Z</time>
      </trkpt>
      <trkpt lat="46.50021" lon="5.29853">
        <ele>208.4</ele>
        <time>2022-09-01T06:13:28Z</time>
      </trkpt>
      <trkpt lat="46.50024" lon="5.29845">
        <ele>208</ele>
        <time>2022-09-01T06:13:29Z</time>
      </trkpt>
      <trkpt lat="46.50028" lon="5.29838">
        <ele>208</ele>
        <time>2022-09-01T06:13:30Z</time>
      </trkpt>
      <trkpt lat="46.50044" lon="5.29818">
        <ele>207.4</ele>
        <time>2022-09-01T06:13:33Z</time>
      </trkpt>
      <trkpt lat="46.50049" lon="5.29812">
        <ele>207.4</ele>
        <time>2022-09-01T06:13:34Z</time>
      </trkpt>
      <trkpt lat="46.50059" lon="5.29802">
        <ele>207.4</ele>
        <time>2022-09-01T06:13:36Z</time>
      </trkpt>
      <trkpt lat="46.50066" lon="5.29798">
        <ele>207.4</ele>
        <time>2022-09-01T06:13:37Z</time>
      </trkpt>
      <trkpt lat="46.50071" lon="5.29796">
        <ele>207.4</ele>
        <time>2022-09-01T06:13:38Z</time>
      </trkpt>
      <trkpt lat="46.50097" lon="5.29786">
        <ele>208.2</ele>
        <time>2022-09-01T06:13:42Z</time>
      </trkpt>
      <trkpt lat="46.50137" lon="5.29773">
        <ele>209.2</ele>
        <time>2022-09-01T06:13:49Z</time>
      </trkpt>
      <trkpt lat="46.50142" lon="5.29772">
        <ele>209.2</ele>
        <time>2022-09-01T06:13:50Z</time>
      </trkpt>
      <trkpt lat="46.50162" lon="5.29768">
        <ele>210.4</ele>
        <time>2022-09-01T06:13:54Z</time>
      </trkpt>
      <trkpt lat="46.50173" lon="5.29767">
        <ele>211</ele>
        <time>2022-09-01T06:13:56Z</time>
      </trkpt>
      <trkpt lat="46.50184" lon="5.29768">
        <ele>211.4</ele>
        <time>2022-09-01T06:13:58Z</time>
      </trkpt>
      <trkpt lat="46.50207" lon="5.29771">
        <ele>212</ele>
        <time>2022-09-01T06:14:02Z</time>
      </trkpt>
      <trkpt lat="46.50225" lon="5.29771">
        <ele>212.6</ele>
        <time>2022-09-01T06:14:05Z</time>
      </trkpt>
      <trkpt lat="46.5025" lon="5.29769">
        <ele>212.6</ele>
        <time>2022-09-01T06:14:09Z</time>
      </trkpt>
      <trkpt lat="46.50282" lon="5.29756">
        <ele>212.8</ele>
        <time>2022-09-01T06:14:16Z</time>
      </trkpt>
      <trkpt lat="46.50336" lon="5.29735">
        <ele>213.6</ele>
        <time>2022-09-01T06:14:25Z</time>
      </trkpt>
      <trkpt lat="46.50387" lon="5.29711">
        <ele>214.8</ele>
        <time>2022-09-01T06:14:34Z</time>
      </trkpt>
      <trkpt lat="46.50393" lon="5.29708">
        <ele>214.8</ele>
        <time>2022-09-01T06:14:35Z</time>
      </trkpt>
      <trkpt lat="46.5044" lon="5.29677">
        <ele>214.4</ele>
        <time>2022-09-01T06:14:43Z</time>
      </trkpt>
      <trkpt lat="46.50488" lon="5.29644">
        <ele>214.2</ele>
        <time>2022-09-01T06:14:51Z</time>
      </trkpt>
      <trkpt lat="46.5054" lon="5.29606">
        <ele>214</ele>
        <time>2022-09-01T06:15:00Z</time>
      </trkpt>
      <trkpt lat="46.50551" lon="5.29597">
        <ele>214.2</ele>
        <time>2022-09-01T06:15:02Z</time>
      </trkpt>
      <trkpt lat="46.50602" lon="5.29559">
        <ele>213.8</ele>
        <time>2022-09-01T06:15:11Z</time>
      </trkpt>
      <trkpt lat="46.50613" lon="5.2955">
        <ele>213.8</ele>
        <time>2022-09-01T06:15:12Z</time>
      </trkpt>
      <trkpt lat="46.50648" lon="5.29528">
        <ele>213.6</ele>
        <time>2022-09-01T06:15:19Z</time>
      </trkpt>
      <trkpt lat="46.50655" lon="5.29526">
        <ele>213.8</ele>
        <time>2022-09-01T06:15:20Z</time>
      </trkpt>
      <trkpt lat="46.50662" lon="5.29526">
        <ele>213.8</ele>
        <time>2022-09-01T06:15:21Z</time>
      </trkpt>
      <trkpt lat="46.50683" lon="5.29532">
        <ele>213.4</ele>
        <time>2022-09-01T06:15:24Z</time>
      </trkpt>
      <trkpt lat="46.50719" lon="5.29548">
        <ele>212.4</ele>
        <time>2022-09-01T06:15:29Z</time>
      </trkpt>
      <trkpt lat="46.50742" lon="5.29559">
        <ele>211.8</ele>
        <time>2022-09-01T06:15:32Z</time>
      </trkpt>
      <trkpt lat="46.50758" lon="5.29564">
        <ele>211</ele>
        <time>2022-09-01T06:15:34Z</time>
      </trkpt>
      <trkpt lat="46.50785" lon="5.29567">
        <ele>210.2</ele>
        <time>2022-09-01T06:15:37Z</time>
      </trkpt>
      <trkpt lat="46.50794" lon="5.29567">
        <ele>210</ele>
        <time>2022-09-01T06:15:38Z</time>
      </trkpt>
      <trkpt lat="46.50822" lon="5.29569">
        <ele>208.6</ele>
        <time>2022-09-01T06:15:41Z</time>
      </trkpt>
      <trkpt lat="46.5086" lon="5.29573">
        <ele>207.2</ele>
        <time>2022-09-01T06:15:45Z</time>
      </trkpt>
      <trkpt lat="46.50889" lon="5.29574">
        <ele>205.8</ele>
        <time>2022-09-01T06:15:48Z</time>
      </trkpt>
      <trkpt lat="46.5091" lon="5.29568">
        <ele>204.8</ele>
        <time>2022-09-01T06:15:50Z</time>
      </trkpt>
      <trkpt lat="46.50917" lon="5.29564">
        <ele>204.4</ele>
        <time>2022-09-01T06:15:51Z</time>
      </trkpt>
      <trkpt lat="46.50949" lon="5.29542">
        <ele>202.8</ele>
        <time>2022-09-01T06:15:54Z</time>
      </trkpt>
      <trkpt lat="46.50966" lon="5.29528">
        <ele>201.6</ele>
        <time>2022-09-01T06:15:56Z</time>
      </trkpt>
      <trkpt lat="46.50989" lon="5.2951">
        <ele>200.4</ele>
        <time>2022-09-01T06:15:58Z</time>
      </trkpt>
      <trkpt lat="46.51007" lon="5.29495">
        <ele>199.4</ele>
        <time>2022-09-01T06:16:00Z</time>
      </trkpt>
      <trkpt lat="46.51018" lon="5.29487">
        <ele>198.4</ele>
        <time>2022-09-01T06:16:01Z</time>
      </trkpt>
      <trkpt lat="46.5103" lon="5.29477">
        <ele>197.8</ele>
        <time>2022-09-01T06:16:02Z</time>
      </trkpt>
      <trkpt lat="46.5105" lon="5.29463">
        <ele>195.8</ele>
        <time>2022-09-01T06:16:04Z</time>
      </trkpt>
      <trkpt lat="46.51071" lon="5.29451">
        <ele>194.4</ele>
        <time>2022-09-01T06:16:06Z</time>
      </trkpt>
      <trkpt lat="46.51081" lon="5.29446">
        <ele>194</ele>
        <time>2022-09-01T06:16:07Z</time>
      </trkpt>
      <trkpt lat="46.51091" lon="5.29443">
        <ele>193.4</ele>
        <time>2022-09-01T06:16:08Z</time>
      </trkpt>
      <trkpt lat="46.51111" lon="5.29436">
        <ele>192.2</ele>
        <time>2022-09-01T06:16:10Z</time>
      </trkpt>
      <trkpt lat="46.5114" lon="5.29427">
        <ele>191.6</ele>
        <time>2022-09-01T06:16:12Z</time>
      </trkpt>
      <trkpt lat="46.51176" lon="5.29418">
        <ele>191.2</ele>
        <time>2022-09-01T06:16:17Z</time>
      </trkpt>
      <trkpt lat="46.51192" lon="5.29414">
        <ele>191</ele>
        <time>2022-09-01T06:16:19Z</time>
      </trkpt>
      <trkpt lat="46.51251" lon="5.29399">
        <ele>190.4</ele>
        <time>2022-09-01T06:16:26Z</time>
      </trkpt>
      <trkpt lat="46.51277" lon="5.29391">
        <ele>190.2</ele>
        <time>2022-09-01T06:16:29Z</time>
      </trkpt>
      <trkpt lat="46.51291" lon="5.29384">
        <ele>190</ele>
        <time>2022-09-01T06:16:31Z</time>
      </trkpt>
      <trkpt lat="46.51345" lon="5.29353">
        <ele>189.4</ele>
        <time>2022-09-01T06:16:38Z</time>
      </trkpt>
      <trkpt lat="46.51352" lon="5.29348">
        <ele>189.4</ele>
        <time>2022-09-01T06:16:39Z</time>
      </trkpt>
      <trkpt lat="46.51365" lon="5.29336">
        <ele>189.4</ele>
        <time>2022-09-01T06:16:41Z</time>
      </trkpt>
      <trkpt lat="46.51374" lon="5.29322">
        <ele>189.4</ele>
        <time>2022-09-01T06:16:43Z</time>
      </trkpt>
      <trkpt lat="46.51412" lon="5.29254">
        <ele>189.4</ele>
        <time>2022-09-01T06:16:51Z</time>
      </trkpt>
      <trkpt lat="46.51437" lon="5.29217">
        <ele>189.4</ele>
        <time>2022-09-01T06:16:56Z</time>
      </trkpt>
      <trkpt lat="46.5144" lon="5.2921">
        <ele>189.4</ele>
        <time>2022-09-01T06:16:57Z</time>
      </trkpt>
      <trkpt lat="46.51443" lon="5.29201">
        <ele>189.6</ele>
        <time>2022-09-01T06:16:58Z</time>
      </trkpt>
      <trkpt lat="46.51451" lon="5.2917">
        <ele>189.6</ele>
        <time>2022-09-01T06:17:01Z</time>
      </trkpt>
      <trkpt lat="46.51466" lon="5.29086">
        <ele>189.8</ele>
        <time>2022-09-01T06:17:09Z</time>
      </trkpt>
      <trkpt lat="46.51467" lon="5.29076">
        <ele>189.8</ele>
        <time>2022-09-01T06:17:10Z</time>
      </trkpt>
      <trkpt lat="46.51479" lon="5.29002">
        <ele>189</ele>
        <time>2022-09-01T06:17:17Z</time>
      </trkpt>
      <trkpt lat="46.51483" lon="5.28981">
        <ele>188.8</ele>
        <time>2022-09-01T06:17:19Z</time>
      </trkpt>
      <trkpt lat="46.51496" lon="5.28907">
        <ele>188</ele>
        <time>2022-09-01T06:17:26Z</time>
      </trkpt>
      <trkpt lat="46.5151" lon="5.28827">
        <ele>187.2</ele>
        <time>2022-09-01T06:17:34Z</time>
      </trkpt>
      <trkpt lat="46.51512" lon="5.28817">
        <ele>187</ele>
        <time>2022-09-01T06:17:35Z</time>
      </trkpt>
      <trkpt lat="46.51511" lon="5.28797">
        <ele>187</ele>
        <time>2022-09-01T06:17:37Z</time>
      </trkpt>
      <trkpt lat="46.5151" lon="5.28787">
        <ele>187</ele>
        <time>2022-09-01T06:17:38Z</time>
      </trkpt>
      <trkpt lat="46.51498" lon="5.28719">
        <ele>187.2</ele>
        <time>2022-09-01T06:17:45Z</time>
      </trkpt>
      <trkpt lat="46.51475" lon="5.28649">
        <ele>187.2</ele>
        <time>2022-09-01T06:17:52Z</time>
      </trkpt>
      <trkpt lat="46.51452" lon="5.28578">
        <ele>187</ele>
        <time>2022-09-01T06:18:00Z</time>
      </trkpt>
      <trkpt lat="46.51446" lon="5.2856">
        <ele>187</ele>
        <time>2022-09-01T06:18:02Z</time>
      </trkpt>
      <trkpt lat="46.51422" lon="5.28484">
        <ele>187.2</ele>
        <time>2022-09-01T06:18:11Z</time>
      </trkpt>
      <trkpt lat="46.51421" lon="5.28466">
        <ele>187.2</ele>
        <time>2022-09-01T06:18:13Z</time>
      </trkpt>
      <trkpt lat="46.51423" lon="5.28447">
        <ele>187.4</ele>
        <time>2022-09-01T06:18:15Z</time>
      </trkpt>
      <trkpt lat="46.51437" lon="5.28412">
        <ele>187.8</ele>
        <time>2022-09-01T06:18:20Z</time>
      </trkpt>
      <trkpt lat="46.51463" lon="5.28362">
        <ele>189.2</ele>
        <time>2022-09-01T06:18:28Z</time>
      </trkpt>
      <trkpt lat="46.51479" lon="5.28334">
        <ele>190.4</ele>
        <time>2022-09-01T06:18:33Z</time>
      </trkpt>
      <trkpt lat="46.51487" lon="5.28317">
        <ele>190.8</ele>
        <time>2022-09-01T06:18:36Z</time>
      </trkpt>
      <trkpt lat="46.51495" lon="5.28303">
        <ele>191.6</ele>
        <time>2022-09-01T06:18:39Z</time>
      </trkpt>
      <trkpt lat="46.51509" lon="5.28274">
        <ele>192.4</ele>
        <time>2022-09-01T06:18:44Z</time>
      </trkpt>
      <trkpt lat="46.51512" lon="5.28269">
        <ele>192.6</ele>
        <time>2022-09-01T06:18:45Z</time>
      </trkpt>
      <trkpt lat="46.51527" lon="5.28237">
        <ele>193.6</ele>
        <time>2022-09-01T06:18:51Z</time>
      </trkpt>
      <trkpt lat="46.51537" lon="5.28215">
        <ele>194.6</ele>
        <time>2022-09-01T06:18:55Z</time>
      </trkpt>
      <trkpt lat="46.51539" lon="5.28209">
        <ele>194.8</ele>
        <time>2022-09-01T06:18:56Z</time>
      </trkpt>
      <trkpt lat="46.51547" lon="5.28188">
        <ele>195.8</ele>
        <time>2022-09-01T06:19:00Z</time>
      </trkpt>
      <trkpt lat="46.51557" lon="5.28159">
        <ele>196.6</ele>
        <time>2022-09-01T06:19:05Z</time>
      </trkpt>
      <trkpt lat="46.51559" lon="5.28153">
        <ele>196.8</ele>
        <time>2022-09-01T06:19:06Z</time>
      </trkpt>
      <trkpt lat="46.5157" lon="5.28117">
        <ele>198</ele>
        <time>2022-09-01T06:19:12Z</time>
      </trkpt>
      <trkpt lat="46.51572" lon="5.2811">
        <ele>198</ele>
        <time>2022-09-01T06:19:13Z</time>
      </trkpt>
      <trkpt lat="46.51579" lon="5.28087">
        <ele>199</ele>
        <time>2022-09-01T06:19:17Z</time>
      </trkpt>
      <trkpt lat="46.51591" lon="5.2805">
        <ele>200.2</ele>
        <time>2022-09-01T06:19:23Z</time>
      </trkpt>
      <trkpt lat="46.51603" lon="5.28021">
        <ele>201.2</ele>
        <time>2022-09-01T06:19:28Z</time>
      </trkpt>
      <trkpt lat="46.51612" lon="5.28006">
        <ele>201.4</ele>
        <time>2022-09-01T06:19:31Z</time>
      </trkpt>
      <trkpt lat="46.51643" lon="5.2797">
        <ele>202.6</ele>
        <time>2022-09-01T06:19:39Z</time>
      </trkpt>
      <trkpt lat="46.51677" lon="5.27935">
        <ele>202.6</ele>
        <time>2022-09-01T06:19:46Z</time>
      </trkpt>
      <trkpt lat="46.51724" lon="5.27887">
        <ele>202</ele>
        <time>2022-09-01T06:19:54Z</time>
      </trkpt>
      <trkpt lat="46.5175" lon="5.2786">
        <ele>201.2</ele>
        <time>2022-09-01T06:19:58Z</time>
      </trkpt>
      <trkpt lat="46.51769" lon="5.2784">
        <ele>200.6</ele>
        <time>2022-09-01T06:20:01Z</time>
      </trkpt>
      <trkpt lat="46.51783" lon="5.27825">
        <ele>200</ele>
        <time>2022-09-01T06:20:03Z</time>
      </trkpt>
      <trkpt lat="46.51805" lon="5.27803">
        <ele>199</ele>
        <time>2022-09-01T06:20:06Z</time>
      </trkpt>
      <trkpt lat="46.51813" lon="5.27796">
        <ele>198.2</ele>
        <time>2022-09-01T06:20:07Z</time>
      </trkpt>
      <trkpt lat="46.51828" lon="5.2778">
        <ele>197.8</ele>
        <time>2022-09-01T06:20:09Z</time>
      </trkpt>
      <trkpt lat="46.51859" lon="5.27747">
        <ele>196.8</ele>
        <time>2022-09-01T06:20:13Z</time>
      </trkpt>
      <trkpt lat="46.51881" lon="5.27725">
        <ele>195.6</ele>
        <time>2022-09-01T06:20:16Z</time>
      </trkpt>
      <trkpt lat="46.51906" lon="5.277">
        <ele>194.4</ele>
        <time>2022-09-01T06:20:19Z</time>
      </trkpt>
      <trkpt lat="46.51929" lon="5.27675">
        <ele>193.2</ele>
        <time>2022-09-01T06:20:22Z</time>
      </trkpt>
      <trkpt lat="46.51951" lon="5.27648">
        <ele>192.2</ele>
        <time>2022-09-01T06:20:25Z</time>
      </trkpt>
      <trkpt lat="46.51973" lon="5.27619">
        <ele>190.8</ele>
        <time>2022-09-01T06:20:28Z</time>
      </trkpt>
      <trkpt lat="46.51993" lon="5.27591">
        <ele>189.8</ele>
        <time>2022-09-01T06:20:31Z</time>
      </trkpt>
      <trkpt lat="46.52013" lon="5.27566">
        <ele>189.2</ele>
        <time>2022-09-01T06:20:34Z</time>
      </trkpt>
      <trkpt lat="46.52031" lon="5.27542">
        <ele>188.8</ele>
        <time>2022-09-01T06:20:37Z</time>
      </trkpt>
      <trkpt lat="46.52046" lon="5.27522">
        <ele>188.6</ele>
        <time>2022-09-01T06:20:40Z</time>
      </trkpt>
      <trkpt lat="46.52075" lon="5.27488">
        <ele>189.4</ele>
        <time>2022-09-01T06:20:45Z</time>
      </trkpt>
      <trkpt lat="46.52086" lon="5.27474">
        <ele>189.8</ele>
        <time>2022-09-01T06:20:48Z</time>
      </trkpt>
      <trkpt lat="46.52094" lon="5.27463">
        <ele>190</ele>
        <time>2022-09-01T06:20:50Z</time>
      </trkpt>
      <trkpt lat="46.52105" lon="5.27446">
        <ele>191.2</ele>
        <time>2022-09-01T06:20:53Z</time>
      </trkpt>
      <trkpt lat="46.52115" lon="5.27426">
        <ele>192.2</ele>
        <time>2022-09-01T06:20:56Z</time>
      </trkpt>
      <trkpt lat="46.52117" lon="5.2742">
        <ele>192.2</ele>
        <time>2022-09-01T06:20:57Z</time>
      </trkpt>
      <trkpt lat="46.52124" lon="5.27394">
        <ele>193.2</ele>
        <time>2022-09-01T06:21:01Z</time>
      </trkpt>
      <trkpt lat="46.52125" lon="5.27387">
        <ele>193.4</ele>
        <time>2022-09-01T06:21:02Z</time>
      </trkpt>
      <trkpt lat="46.52127" lon="5.27352">
        <ele>194.4</ele>
        <time>2022-09-01T06:21:07Z</time>
      </trkpt>
      <trkpt lat="46.52126" lon="5.27346">
        <ele>194.4</ele>
        <time>2022-09-01T06:21:08Z</time>
      </trkpt>
      <trkpt lat="46.52124" lon="5.27339">
        <ele>194.8</ele>
        <time>2022-09-01T06:21:09Z</time>
      </trkpt>
      <trkpt lat="46.52117" lon="5.2732">
        <ele>195.4</ele>
        <time>2022-09-01T06:21:12Z</time>
      </trkpt>
      <trkpt lat="46.52113" lon="5.27315">
        <ele>195.6</ele>
        <time>2022-09-01T06:21:13Z</time>
      </trkpt>
      <trkpt lat="46.5211" lon="5.27311">
        <ele>195.8</ele>
        <time>2022-09-01T06:21:14Z</time>
      </trkpt>
      <trkpt lat="46.52102" lon="5.27304">
        <ele>196.2</ele>
        <time>2022-09-01T06:21:16Z</time>
      </trkpt>
      <trkpt lat="46.52094" lon="5.27298">
        <ele>196.4</ele>
        <time>2022-09-01T06:21:18Z</time>
      </trkpt>
      <trkpt lat="46.52074" lon="5.27286">
        <ele>197.4</ele>
        <time>2022-09-01T06:21:22Z</time>
      </trkpt>
      <trkpt lat="46.52069" lon="5.27284">
        <ele>197.6</ele>
        <time>2022-09-01T06:21:23Z</time>
      </trkpt>
      <trkpt lat="46.52064" lon="5.27281">
        <ele>197.8</ele>
        <time>2022-09-01T06:21:24Z</time>
      </trkpt>
      <trkpt lat="46.5206" lon="5.27279">
        <ele>198.4</ele>
        <time>2022-09-01T06:21:25Z</time>
      </trkpt>
      <trkpt lat="46.52056" lon="5.27276">
        <ele>198.6</ele>
        <time>2022-09-01T06:21:26Z</time>
      </trkpt>
      <trkpt lat="46.5205" lon="5.27272">
        <ele>198.8</ele>
        <time>2022-09-01T06:21:27Z</time>
      </trkpt>
      <trkpt lat="46.52046" lon="5.27268">
        <ele>199</ele>
        <time>2022-09-01T06:21:28Z</time>
      </trkpt>
      <trkpt lat="46.52039" lon="5.2726">
        <ele>199.2</ele>
        <time>2022-09-01T06:21:30Z</time>
      </trkpt>
      <trkpt lat="46.52035" lon="5.27254">
        <ele>199.2</ele>
        <time>2022-09-01T06:21:31Z</time>
      </trkpt>
      <trkpt lat="46.52027" lon="5.27237">
        <ele>199.8</ele>
        <time>2022-09-01T06:21:34Z</time>
      </trkpt>
      <trkpt lat="46.52014" lon="5.27192">
        <ele>200.8</ele>
        <time>2022-09-01T06:21:41Z</time>
      </trkpt>
      <trkpt lat="46.52012" lon="5.27186">
        <ele>201</ele>
        <time>2022-09-01T06:21:42Z</time>
      </trkpt>
      <trkpt lat="46.52008" lon="5.27171">
        <ele>201.8</ele>
        <time>2022-09-01T06:21:44Z</time>
      </trkpt>
      <trkpt lat="46.52003" lon="5.27143">
        <ele>202.6</ele>
        <time>2022-09-01T06:21:49Z</time>
      </trkpt>
      <trkpt lat="46.52001" lon="5.27125">
        <ele>203</ele>
        <time>2022-09-01T06:21:52Z</time>
      </trkpt>
      <trkpt lat="46.51997" lon="5.27094">
        <ele>204.2</ele>
        <time>2022-09-01T06:21:57Z</time>
      </trkpt>
      <trkpt lat="46.51997" lon="5.27088">
        <ele>204.4</ele>
        <time>2022-09-01T06:21:58Z</time>
      </trkpt>
      <trkpt lat="46.51994" lon="5.27057">
        <ele>205.2</ele>
        <time>2022-09-01T06:22:03Z</time>
      </trkpt>
      <trkpt lat="46.51991" lon="5.27018">
        <ele>206.2</ele>
        <time>2022-09-01T06:22:09Z</time>
      </trkpt>
      <trkpt lat="46.51983" lon="5.2696">
        <ele>207.4</ele>
        <time>2022-09-01T06:22:18Z</time>
      </trkpt>
      <trkpt lat="46.51978" lon="5.2694">
        <ele>207.4</ele>
        <time>2022-09-01T06:22:20Z</time>
      </trkpt>
      <trkpt lat="46.51973" lon="5.26926">
        <ele>208.4</ele>
        <time>2022-09-01T06:22:23Z</time>
      </trkpt>
      <trkpt lat="46.51967" lon="5.26904">
        <ele>208.6</ele>
        <time>2022-09-01T06:22:26Z</time>
      </trkpt>
      <trkpt lat="46.51964" lon="5.26897">
        <ele>208.6</ele>
        <time>2022-09-01T06:22:27Z</time>
      </trkpt>
      <trkpt lat="46.51956" lon="5.26873">
        <ele>208.4</ele>
        <time>2022-09-01T06:22:30Z</time>
      </trkpt>
      <trkpt lat="46.51951" lon="5.26843">
        <ele>208</ele>
        <time>2022-09-01T06:22:33Z</time>
      </trkpt>
      <trkpt lat="46.51954" lon="5.26819">
        <ele>207</ele>
        <time>2022-09-01T06:22:35Z</time>
      </trkpt>
      <trkpt lat="46.51959" lon="5.26808">
        <ele>206.8</ele>
        <time>2022-09-01T06:22:36Z</time>
      </trkpt>
      <trkpt lat="46.51964" lon="5.26798">
        <ele>206.4</ele>
        <time>2022-09-01T06:22:37Z</time>
      </trkpt>
      <trkpt lat="46.51978" lon="5.26779">
        <ele>206.2</ele>
        <time>2022-09-01T06:22:39Z</time>
      </trkpt>
      <trkpt lat="46.51987" lon="5.26772">
        <ele>205.8</ele>
        <time>2022-09-01T06:22:40Z</time>
      </trkpt>
      <trkpt lat="46.52012" lon="5.26749">
        <ele>204.4</ele>
        <time>2022-09-01T06:22:43Z</time>
      </trkpt>
      <trkpt lat="46.52039" lon="5.26727">
        <ele>203</ele>
        <time>2022-09-01T06:22:46Z</time>
      </trkpt>
      <trkpt lat="46.52065" lon="5.26706">
        <ele>201.8</ele>
        <time>2022-09-01T06:22:49Z</time>
      </trkpt>
      <trkpt lat="46.52086" lon="5.26689">
        <ele>200.2</ele>
        <time>2022-09-01T06:22:51Z</time>
      </trkpt>
      <trkpt lat="46.52104" lon="5.26673">
        <ele>199.4</ele>
        <time>2022-09-01T06:22:53Z</time>
      </trkpt>
      <trkpt lat="46.52113" lon="5.26665">
        <ele>199</ele>
        <time>2022-09-01T06:22:54Z</time>
      </trkpt>
      <trkpt lat="46.52129" lon="5.26646">
        <ele>198.4</ele>
        <time>2022-09-01T06:22:56Z</time>
      </trkpt>
      <trkpt lat="46.52136" lon="5.26636">
        <ele>197.8</ele>
        <time>2022-09-01T06:22:57Z</time>
      </trkpt>
      <trkpt lat="46.52149" lon="5.26614">
        <ele>196.6</ele>
        <time>2022-09-01T06:22:59Z</time>
      </trkpt>
      <trkpt lat="46.52161" lon="5.26592">
        <ele>195.4</ele>
        <time>2022-09-01T06:23:01Z</time>
      </trkpt>
      <trkpt lat="46.52174" lon="5.26571">
        <ele>194.8</ele>
        <time>2022-09-01T06:23:03Z</time>
      </trkpt>
      <trkpt lat="46.5218" lon="5.26561">
        <ele>194.6</ele>
        <time>2022-09-01T06:23:04Z</time>
      </trkpt>
      <trkpt lat="46.52187" lon="5.26552">
        <ele>194.4</ele>
        <time>2022-09-01T06:23:05Z</time>
      </trkpt>
      <trkpt lat="46.52195" lon="5.26544">
        <ele>194.2</ele>
        <time>2022-09-01T06:23:06Z</time>
      </trkpt>
      <trkpt lat="46.52221" lon="5.26527">
        <ele>193.4</ele>
        <time>2022-09-01T06:23:09Z</time>
      </trkpt>
      <trkpt lat="46.5223" lon="5.26523">
        <ele>193.2</ele>
        <time>2022-09-01T06:23:10Z</time>
      </trkpt>
      <trkpt lat="46.52293" lon="5.26493">
        <ele>192.2</ele>
        <time>2022-09-01T06:23:16Z</time>
      </trkpt>
      <trkpt lat="46.52321" lon="5.2648">
        <ele>191.2</ele>
        <time>2022-09-01T06:23:19Z</time>
      </trkpt>
      <trkpt lat="46.52321" lon="5.2648">
        <ele>190.6</ele>
        <time>2022-09-01T06:23:20Z</time>
      </trkpt>
      <trkpt lat="46.52349" lon="5.26468">
        <ele>189.4</ele>
        <time>2022-09-01T06:23:23Z</time>
      </trkpt>
      <trkpt lat="46.52377" lon="5.26453">
        <ele>188.8</ele>
        <time>2022-09-01T06:23:25Z</time>
      </trkpt>
      <trkpt lat="46.52385" lon="5.26446">
        <ele>188.6</ele>
        <time>2022-09-01T06:23:26Z</time>
      </trkpt>
      <trkpt lat="46.52392" lon="5.26437">
        <ele>188.2</ele>
        <time>2022-09-01T06:23:27Z</time>
      </trkpt>
      <trkpt lat="46.52403" lon="5.26415">
        <ele>187.4</ele>
        <time>2022-09-01T06:23:29Z</time>
      </trkpt>
      <trkpt lat="46.52408" lon="5.26403">
        <ele>187</ele>
        <time>2022-09-01T06:23:30Z</time>
      </trkpt>
      <trkpt lat="46.52438" lon="5.26323">
        <ele>185.8</ele>
        <time>2022-09-01T06:23:37Z</time>
      </trkpt>
      <trkpt lat="46.52465" lon="5.2625">
        <ele>185</ele>
        <time>2022-09-01T06:23:44Z</time>
      </trkpt>
      <trkpt lat="46.52473" lon="5.2623">
        <ele>184.8</ele>
        <time>2022-09-01T06:23:46Z</time>
      </trkpt>
      <trkpt lat="46.52498" lon="5.26162">
        <ele>185</ele>
        <time>2022-09-01T06:23:54Z</time>
      </trkpt>
      <trkpt lat="46.52509" lon="5.26134">
        <ele>184.8</ele>
        <time>2022-09-01T06:23:56Z</time>
      </trkpt>
      <trkpt lat="46.52519" lon="5.26121">
        <ele>184.8</ele>
        <time>2022-09-01T06:23:58Z</time>
      </trkpt>
      <trkpt lat="46.52534" lon="5.26116">
        <ele>184.8</ele>
        <time>2022-09-01T06:24:00Z</time>
      </trkpt>
      <trkpt lat="46.52553" lon="5.26115">
        <ele>184.8</ele>
        <time>2022-09-01T06:24:03Z</time>
      </trkpt>
      <trkpt lat="46.52567" lon="5.26108">
        <ele>184.8</ele>
        <time>2022-09-01T06:24:05Z</time>
      </trkpt>
      <trkpt lat="46.52578" lon="5.26091">
        <ele>185.4</ele>
        <time>2022-09-01T06:24:08Z</time>
      </trkpt>
      <trkpt lat="46.52581" lon="5.26084">
        <ele>185.6</ele>
        <time>2022-09-01T06:24:09Z</time>
      </trkpt>
      <trkpt lat="46.52582" lon="5.26077">
        <ele>185.8</ele>
        <time>2022-09-01T06:24:10Z</time>
      </trkpt>
      <trkpt lat="46.52582" lon="5.26077">
        <ele>186</ele>
        <time>2022-09-01T06:24:11Z</time>
      </trkpt>
      <trkpt lat="46.52585" lon="5.26061">
        <ele>186.6</ele>
        <time>2022-09-01T06:24:13Z</time>
      </trkpt>
      <trkpt lat="46.52589" lon="5.26045">
        <ele>187.2</ele>
        <time>2022-09-01T06:24:15Z</time>
      </trkpt>
      <trkpt lat="46.52593" lon="5.26026">
        <ele>188.2</ele>
        <time>2022-09-01T06:24:18Z</time>
      </trkpt>
      <trkpt lat="46.52598" lon="5.26004">
        <ele>189.2</ele>
        <time>2022-09-01T06:24:22Z</time>
      </trkpt>
      <trkpt lat="46.526" lon="5.25998">
        <ele>189.4</ele>
        <time>2022-09-01T06:24:23Z</time>
      </trkpt>
      <trkpt lat="46.52603" lon="5.25988">
        <ele>190</ele>
        <time>2022-09-01T06:24:25Z</time>
      </trkpt>
      <trkpt lat="46.52607" lon="5.25979">
        <ele>190.6</ele>
        <time>2022-09-01T06:24:27Z</time>
      </trkpt>
      <trkpt lat="46.52609" lon="5.25974">
        <ele>191</ele>
        <time>2022-09-01T06:24:28Z</time>
      </trkpt>
      <trkpt lat="46.52615" lon="5.25966">
        <ele>191.8</ele>
        <time>2022-09-01T06:24:30Z</time>
      </trkpt>
      <trkpt lat="46.52624" lon="5.25956">
        <ele>192.6</ele>
        <time>2022-09-01T06:24:33Z</time>
      </trkpt>
      <trkpt lat="46.52628" lon="5.25954">
        <ele>193</ele>
        <time>2022-09-01T06:24:34Z</time>
      </trkpt>
      <trkpt lat="46.52644" lon="5.2595">
        <ele>194.4</ele>
        <time>2022-09-01T06:24:39Z</time>
      </trkpt>
      <trkpt lat="46.52656" lon="5.25946">
        <ele>195.8</ele>
        <time>2022-09-01T06:24:43Z</time>
      </trkpt>
      <trkpt lat="46.5266" lon="5.25944">
        <ele>196</ele>
        <time>2022-09-01T06:24:44Z</time>
      </trkpt>
      <trkpt lat="46.52671" lon="5.25931">
        <ele>196.8</ele>
        <time>2022-09-01T06:24:48Z</time>
      </trkpt>
      <trkpt lat="46.52678" lon="5.25921">
        <ele>197.2</ele>
        <time>2022-09-01T06:24:50Z</time>
      </trkpt>
      <trkpt lat="46.52682" lon="5.2591">
        <ele>197.8</ele>
        <time>2022-09-01T06:24:52Z</time>
      </trkpt>
      <trkpt lat="46.52688" lon="5.25891">
        <ele>198.8</ele>
        <time>2022-09-01T06:24:56Z</time>
      </trkpt>
      <trkpt lat="46.52689" lon="5.25886">
        <ele>199</ele>
        <time>2022-09-01T06:24:57Z</time>
      </trkpt>
      <trkpt lat="46.52692" lon="5.25867">
        <ele>200.2</ele>
        <time>2022-09-01T06:25:01Z</time>
      </trkpt>
      <trkpt lat="46.52693" lon="5.25852">
        <ele>201</ele>
        <time>2022-09-01T06:25:04Z</time>
      </trkpt>
      <trkpt lat="46.52693" lon="5.25842">
        <ele>201.4</ele>
        <time>2022-09-01T06:25:06Z</time>
      </trkpt>
      <trkpt lat="46.52693" lon="5.25822">
        <ele>202.6</ele>
        <time>2022-09-01T06:25:11Z</time>
      </trkpt>
      <trkpt lat="46.52693" lon="5.25801">
        <ele>203</ele>
        <time>2022-09-01T06:25:14Z</time>
      </trkpt>
      <trkpt lat="46.52697" lon="5.25782">
        <ele>203.6</ele>
        <time>2022-09-01T06:25:17Z</time>
      </trkpt>
      <trkpt lat="46.52701" lon="5.25762">
        <ele>204</ele>
        <time>2022-09-01T06:25:20Z</time>
      </trkpt>
      <trkpt lat="46.5271" lon="5.2573">
        <ele>204.8</ele>
        <time>2022-09-01T06:25:26Z</time>
      </trkpt>
      <trkpt lat="46.52712" lon="5.25716">
        <ele>205</ele>
        <time>2022-09-01T06:25:27Z</time>
      </trkpt>
      <trkpt lat="46.52717" lon="5.25665">
        <ele>205.2</ele>
        <time>2022-09-01T06:25:34Z</time>
      </trkpt>
      <trkpt lat="46.5272" lon="5.25587">
        <ele>205.4</ele>
        <time>2022-09-01T06:25:44Z</time>
      </trkpt>
      <trkpt lat="46.52722" lon="5.2554">
        <ele>205.8</ele>
        <time>2022-09-01T06:25:50Z</time>
      </trkpt>
      <trkpt lat="46.52723" lon="5.25509">
        <ele>206</ele>
        <time>2022-09-01T06:25:54Z</time>
      </trkpt>
      <trkpt lat="46.52723" lon="5.25485">
        <ele>206.2</ele>
        <time>2022-09-01T06:25:57Z</time>
      </trkpt>
      <trkpt lat="46.52721" lon="5.25471">
        <ele>206.2</ele>
        <time>2022-09-01T06:25:59Z</time>
      </trkpt>
      <trkpt lat="46.52719" lon="5.25462">
        <ele>206.2</ele>
        <time>2022-09-01T06:26:00Z</time>
      </trkpt>
      <trkpt lat="46.52716" lon="5.25454">
        <ele>206.4</ele>
        <time>2022-09-01T06:26:01Z</time>
      </trkpt>
      <trkpt lat="46.52705" lon="5.25437">
        <ele>206.8</ele>
        <time>2022-09-01T06:26:04Z</time>
      </trkpt>
      <trkpt lat="46.52705" lon="5.25437">
        <ele>206.8</ele>
        <time>2022-09-01T06:26:05Z</time>
      </trkpt>
      <trkpt lat="46.52674" lon="5.2539">
        <ele>207</ele>
        <time>2022-09-01T06:26:12Z</time>
      </trkpt>
      <trkpt lat="46.52641" lon="5.25336">
        <ele>207.4</ele>
        <time>2022-09-01T06:26:19Z</time>
      </trkpt>
      <trkpt lat="46.52638" lon="5.25328">
        <ele>207.4</ele>
        <time>2022-09-01T06:26:20Z</time>
      </trkpt>
      <trkpt lat="46.52626" lon="5.25286">
        <ele>208.4</ele>
        <time>2022-09-01T06:26:25Z</time>
      </trkpt>
      <trkpt lat="46.5262" lon="5.25219">
        <ele>207.8</ele>
        <time>2022-09-01T06:26:32Z</time>
      </trkpt>
      <trkpt lat="46.52619" lon="5.25199">
        <ele>208</ele>
        <time>2022-09-01T06:26:34Z</time>
      </trkpt>
      <trkpt lat="46.52616" lon="5.25118">
        <ele>208.4</ele>
        <time>2022-09-01T06:26:42Z</time>
      </trkpt>
      <trkpt lat="46.52615" lon="5.25098">
        <ele>208.4</ele>
        <time>2022-09-01T06:26:44Z</time>
      </trkpt>
      <trkpt lat="46.52609" lon="5.25015">
        <ele>207.6</ele>
        <time>2022-09-01T06:26:52Z</time>
      </trkpt>
      <trkpt lat="46.52607" lon="5.24994">
        <ele>207.6</ele>
        <time>2022-09-01T06:26:54Z</time>
      </trkpt>
      <trkpt lat="46.52593" lon="5.24908">
        <ele>207.4</ele>
        <time>2022-09-01T06:27:02Z</time>
      </trkpt>
      <trkpt lat="46.52593" lon="5.24899">
        <ele>207.4</ele>
        <time>2022-09-01T06:27:03Z</time>
      </trkpt>
      <trkpt lat="46.52588" lon="5.248">
        <ele>207</ele>
        <time>2022-09-01T06:27:12Z</time>
      </trkpt>
      <trkpt lat="46.52588" lon="5.24794">
        <ele>207</ele>
        <time>2022-09-01T06:27:13Z</time>
      </trkpt>
      <trkpt lat="46.52586" lon="5.24715">
        <ele>206.6</ele>
        <time>2022-09-01T06:27:20Z</time>
      </trkpt>
      <trkpt lat="46.52585" lon="5.24705">
        <ele>206.6</ele>
        <time>2022-09-01T06:27:21Z</time>
      </trkpt>
      <trkpt lat="46.52581" lon="5.24654">
        <ele>207</ele>
        <time>2022-09-01T06:27:26Z</time>
      </trkpt>
      <trkpt lat="46.52577" lon="5.24634">
        <ele>207</ele>
        <time>2022-09-01T06:27:28Z</time>
      </trkpt>
      <trkpt lat="46.5255" lon="5.24557">
        <ele>207</ele>
        <time>2022-09-01T06:27:36Z</time>
      </trkpt>
      <trkpt lat="46.52547" lon="5.24547">
        <ele>207</ele>
        <time>2022-09-01T06:27:37Z</time>
      </trkpt>
      <trkpt lat="46.52523" lon="5.24473">
        <ele>206</ele>
        <time>2022-09-01T06:27:44Z</time>
      </trkpt>
      <trkpt lat="46.5252" lon="5.24462">
        <ele>205.8</ele>
        <time>2022-09-01T06:27:45Z</time>
      </trkpt>
      <trkpt lat="46.52507" lon="5.24384">
        <ele>205</ele>
        <time>2022-09-01T06:27:52Z</time>
      </trkpt>
      <trkpt lat="46.52504" lon="5.24362">
        <ele>204.8</ele>
        <time>2022-09-01T06:27:54Z</time>
      </trkpt>
      <trkpt lat="46.52493" lon="5.24282">
        <ele>204.2</ele>
        <time>2022-09-01T06:28:02Z</time>
      </trkpt>
      <trkpt lat="46.52484" lon="5.24204">
        <ele>204.8</ele>
        <time>2022-09-01T06:28:10Z</time>
      </trkpt>
      <trkpt lat="46.52476" lon="5.24153">
        <ele>205.2</ele>
        <time>2022-09-01T06:28:16Z</time>
      </trkpt>
      <trkpt lat="46.52476" lon="5.24146">
        <ele>205.6</ele>
        <time>2022-09-01T06:28:17Z</time>
      </trkpt>
      <trkpt lat="46.52479" lon="5.24134">
        <ele>205.8</ele>
        <time>2022-09-01T06:28:19Z</time>
      </trkpt>
      <trkpt lat="46.52481" lon="5.24129">
        <ele>205.8</ele>
        <time>2022-09-01T06:28:20Z</time>
      </trkpt>
      <trkpt lat="46.52482" lon="5.2412">
        <ele>206</ele>
        <time>2022-09-01T06:28:22Z</time>
      </trkpt>
      <trkpt lat="46.52481" lon="5.24113">
        <ele>206</ele>
        <time>2022-09-01T06:28:23Z</time>
      </trkpt>
      <trkpt lat="46.52481" lon="5.24103">
        <ele>206</ele>
        <time>2022-09-01T06:28:24Z</time>
      </trkpt>
      <trkpt lat="46.52484" lon="5.24077">
        <ele>206.2</ele>
        <time>2022-09-01T06:28:27Z</time>
      </trkpt>
      <trkpt lat="46.52486" lon="5.24067">
        <ele>206.4</ele>
        <time>2022-09-01T06:28:28Z</time>
      </trkpt>
      <trkpt lat="46.52493" lon="5.24025">
        <ele>206.4</ele>
        <time>2022-09-01T06:28:32Z</time>
      </trkpt>
      <trkpt lat="46.52503" lon="5.23942">
        <ele>206.8</ele>
        <time>2022-09-01T06:28:40Z</time>
      </trkpt>
      <trkpt lat="46.52505" lon="5.23921">
        <ele>206.8</ele>
        <time>2022-09-01T06:28:42Z</time>
      </trkpt>
      <trkpt lat="46.52503" lon="5.23878">
        <ele>206.8</ele>
        <time>2022-09-01T06:28:46Z</time>
      </trkpt>
      <trkpt lat="46.52489" lon="5.23817">
        <ele>206.2</ele>
        <time>2022-09-01T06:28:52Z</time>
      </trkpt>
      <trkpt lat="46.5247" lon="5.23743">
        <ele>205.4</ele>
        <time>2022-09-01T06:28:59Z</time>
      </trkpt>
      <trkpt lat="46.52465" lon="5.23722">
        <ele>205.2</ele>
        <time>2022-09-01T06:29:01Z</time>
      </trkpt>
      <trkpt lat="46.52452" lon="5.23671">
        <ele>204.8</ele>
        <time>2022-09-01T06:29:06Z</time>
      </trkpt>
      <trkpt lat="46.52442" lon="5.23632">
        <ele>204.6</ele>
        <time>2022-09-01T06:29:10Z</time>
      </trkpt>
      <trkpt lat="46.52421" lon="5.23552">
        <ele>204</ele>
        <time>2022-09-01T06:29:18Z</time>
      </trkpt>
      <trkpt lat="46.5242" lon="5.23543">
        <ele>204</ele>
        <time>2022-09-01T06:29:19Z</time>
      </trkpt>
      <trkpt lat="46.52419" lon="5.23521">
        <ele>204</ele>
        <time>2022-09-01T06:29:21Z</time>
      </trkpt>
      <trkpt lat="46.52421" lon="5.23502">
        <ele>204</ele>
        <time>2022-09-01T06:29:23Z</time>
      </trkpt>
      <trkpt lat="46.52427" lon="5.23482">
        <ele>204.2</ele>
        <time>2022-09-01T06:29:25Z</time>
      </trkpt>
      <trkpt lat="46.52434" lon="5.23464">
        <ele>204.4</ele>
        <time>2022-09-01T06:29:27Z</time>
      </trkpt>
      <trkpt lat="46.52464" lon="5.23396">
        <ele>204.8</ele>
        <time>2022-09-01T06:29:35Z</time>
      </trkpt>
      <trkpt lat="46.52468" lon="5.23388">
        <ele>205</ele>
        <time>2022-09-01T06:29:36Z</time>
      </trkpt>
      <trkpt lat="46.525" lon="5.23315">
        <ele>205.6</ele>
        <time>2022-09-01T06:29:45Z</time>
      </trkpt>
      <trkpt lat="46.52505" lon="5.23303">
        <ele>205.6</ele>
        <time>2022-09-01T06:29:46Z</time>
      </trkpt>
      <trkpt lat="46.52523" lon="5.23259">
        <ele>205.6</ele>
        <time>2022-09-01T06:29:51Z</time>
      </trkpt>
      <trkpt lat="46.52539" lon="5.23225">
        <ele>205.4</ele>
        <time>2022-09-01T06:29:55Z</time>
      </trkpt>
      <trkpt lat="46.52554" lon="5.23188">
        <ele>205.2</ele>
        <time>2022-09-01T06:29:59Z</time>
      </trkpt>
      <trkpt lat="46.52582" lon="5.23124">
        <ele>204.4</ele>
        <time>2022-09-01T06:30:05Z</time>
      </trkpt>
      <trkpt lat="46.52591" lon="5.23101">
        <ele>203.8</ele>
        <time>2022-09-01T06:30:07Z</time>
      </trkpt>
      <trkpt lat="46.52604" lon="5.23066">
        <ele>202.8</ele>
        <time>2022-09-01T06:30:10Z</time>
      </trkpt>
      <trkpt lat="46.52607" lon="5.23053">
        <ele>202.4</ele>
        <time>2022-09-01T06:30:11Z</time>
      </trkpt>
      <trkpt lat="46.52611" lon="5.23026">
        <ele>201.4</ele>
        <time>2022-09-01T06:30:13Z</time>
      </trkpt>
      <trkpt lat="46.52612" lon="5.23013">
        <ele>201</ele>
        <time>2022-09-01T06:30:14Z</time>
      </trkpt>
      <trkpt lat="46.52612" lon="5.22998">
        <ele>200.6</ele>
        <time>2022-09-01T06:30:15Z</time>
      </trkpt>
      <trkpt lat="46.52614" lon="5.22955">
        <ele>200</ele>
        <time>2022-09-01T06:30:18Z</time>
      </trkpt>
      <trkpt lat="46.52614" lon="5.22911">
        <ele>198.8</ele>
        <time>2022-09-01T06:30:21Z</time>
      </trkpt>
      <trkpt lat="46.52615" lon="5.22897">
        <ele>198.6</ele>
        <time>2022-09-01T06:30:22Z</time>
      </trkpt>
      <trkpt lat="46.52615" lon="5.22867">
        <ele>197.6</ele>
        <time>2022-09-01T06:30:24Z</time>
      </trkpt>
      <trkpt lat="46.52616" lon="5.22839">
        <ele>196</ele>
        <time>2022-09-01T06:30:26Z</time>
      </trkpt>
      <trkpt lat="46.52617" lon="5.22784">
        <ele>195</ele>
        <time>2022-09-01T06:30:30Z</time>
      </trkpt>
      <trkpt lat="46.52618" lon="5.22758">
        <ele>194.6</ele>
        <time>2022-09-01T06:30:32Z</time>
      </trkpt>
      <trkpt lat="46.52619" lon="5.22682">
        <ele>193.8</ele>
        <time>2022-09-01T06:30:38Z</time>
      </trkpt>
      <trkpt lat="46.5262" lon="5.22659">
        <ele>193.6</ele>
        <time>2022-09-01T06:30:40Z</time>
      </trkpt>
      <trkpt lat="46.5262" lon="5.22577">
        <ele>193.2</ele>
        <time>2022-09-01T06:30:47Z</time>
      </trkpt>
      <trkpt lat="46.52626" lon="5.22498">
        <ele>193</ele>
        <time>2022-09-01T06:30:54Z</time>
      </trkpt>
      <trkpt lat="46.52633" lon="5.22465">
        <ele>192.8</ele>
        <time>2022-09-01T06:30:57Z</time>
      </trkpt>
      <trkpt lat="46.52646" lon="5.22412">
        <ele>192.4</ele>
        <time>2022-09-01T06:31:02Z</time>
      </trkpt>
      <trkpt lat="46.52665" lon="5.22334">
        <ele>192.2</ele>
        <time>2022-09-01T06:31:10Z</time>
      </trkpt>
      <trkpt lat="46.52682" lon="5.22265">
        <ele>192.6</ele>
        <time>2022-09-01T06:31:18Z</time>
      </trkpt>
      <trkpt lat="46.527" lon="5.22202">
        <ele>194</ele>
        <time>2022-09-01T06:31:26Z</time>
      </trkpt>
      <trkpt lat="46.52706" lon="5.2218">
        <ele>194.6</ele>
        <time>2022-09-01T06:31:29Z</time>
      </trkpt>
      <trkpt lat="46.5271" lon="5.22165">
        <ele>195.2</ele>
        <time>2022-09-01T06:31:31Z</time>
      </trkpt>
      <trkpt lat="46.52716" lon="5.22138">
        <ele>196.4</ele>
        <time>2022-09-01T06:31:35Z</time>
      </trkpt>
      <trkpt lat="46.5272" lon="5.22124">
        <ele>196.8</ele>
        <time>2022-09-01T06:31:37Z</time>
      </trkpt>
      <trkpt lat="46.52723" lon="5.22111">
        <ele>197.4</ele>
        <time>2022-09-01T06:31:39Z</time>
      </trkpt>
      <trkpt lat="46.52728" lon="5.22092">
        <ele>198.6</ele>
        <time>2022-09-01T06:31:42Z</time>
      </trkpt>
      <trkpt lat="46.52731" lon="5.22077">
        <ele>199</ele>
        <time>2022-09-01T06:31:45Z</time>
      </trkpt>
      <trkpt lat="46.52733" lon="5.22061">
        <ele>200</ele>
        <time>2022-09-01T06:31:47Z</time>
      </trkpt>
      <trkpt lat="46.52735" lon="5.22025">
        <ele>201.2</ele>
        <time>2022-09-01T06:31:52Z</time>
      </trkpt>
      <trkpt lat="46.52734" lon="5.22018">
        <ele>201.4</ele>
        <time>2022-09-01T06:31:53Z</time>
      </trkpt>
      <trkpt lat="46.52729" lon="5.21978">
        <ele>202.2</ele>
        <time>2022-09-01T06:31:58Z</time>
      </trkpt>
      <trkpt lat="46.52726" lon="5.21961">
        <ele>202.6</ele>
        <time>2022-09-01T06:32:00Z</time>
      </trkpt>
      <trkpt lat="46.52717" lon="5.21911">
        <ele>203.2</ele>
        <time>2022-09-01T06:32:06Z</time>
      </trkpt>
      <trkpt lat="46.52713" lon="5.21886">
        <ele>203.4</ele>
        <time>2022-09-01T06:32:09Z</time>
      </trkpt>
      <trkpt lat="46.52699" lon="5.21804">
        <ele>203.8</ele>
        <time>2022-09-01T06:32:18Z</time>
      </trkpt>
      <trkpt lat="46.52698" lon="5.21795">
        <ele>203.6</ele>
        <time>2022-09-01T06:32:19Z</time>
      </trkpt>
      <trkpt lat="46.52684" lon="5.21711">
        <ele>204</ele>
        <time>2022-09-01T06:32:28Z</time>
      </trkpt>
      <trkpt lat="46.52678" lon="5.21674">
        <ele>204.2</ele>
        <time>2022-09-01T06:32:32Z</time>
      </trkpt>
      <trkpt lat="46.52665" lon="5.21596">
        <ele>204</ele>
        <time>2022-09-01T06:32:40Z</time>
      </trkpt>
      <trkpt lat="46.5266" lon="5.21561">
        <ele>204</ele>
        <time>2022-09-01T06:32:44Z</time>
      </trkpt>
      <trkpt lat="46.52647" lon="5.21477">
        <ele>203.8</ele>
        <time>2022-09-01T06:32:52Z</time>
      </trkpt>
      <trkpt lat="46.52643" lon="5.21456">
        <ele>203.8</ele>
        <time>2022-09-01T06:32:54Z</time>
      </trkpt>
      <trkpt lat="46.52629" lon="5.2137">
        <ele>203.2</ele>
        <time>2022-09-01T06:33:02Z</time>
      </trkpt>
      <trkpt lat="46.52628" lon="5.21359">
        <ele>203.2</ele>
        <time>2022-09-01T06:33:03Z</time>
      </trkpt>
      <trkpt lat="46.52615" lon="5.21279">
        <ele>202.6</ele>
        <time>2022-09-01T06:33:10Z</time>
      </trkpt>
      <trkpt lat="46.52613" lon="5.21266">
        <ele>202.6</ele>
        <time>2022-09-01T06:33:11Z</time>
      </trkpt>
      <trkpt lat="46.52607" lon="5.21228">
        <ele>202.2</ele>
        <time>2022-09-01T06:33:14Z</time>
      </trkpt>
      <trkpt lat="46.52598" lon="5.21164">
        <ele>201</ele>
        <time>2022-09-01T06:33:19Z</time>
      </trkpt>
      <trkpt lat="46.5259" lon="5.21116">
        <ele>199.8</ele>
        <time>2022-09-01T06:33:23Z</time>
      </trkpt>
      <trkpt lat="46.52584" lon="5.21081">
        <ele>199.4</ele>
        <time>2022-09-01T06:33:26Z</time>
      </trkpt>
      <trkpt lat="46.52573" lon="5.21006">
        <ele>199.2</ele>
        <time>2022-09-01T06:33:33Z</time>
      </trkpt>
      <trkpt lat="46.52566" lon="5.20926">
        <ele>199.6</ele>
        <time>2022-09-01T06:33:41Z</time>
      </trkpt>
      <trkpt lat="46.52563" lon="5.20884">
        <ele>200.8</ele>
        <time>2022-09-01T06:33:45Z</time>
      </trkpt>
      <trkpt lat="46.5256" lon="5.20841">
        <ele>201.8</ele>
        <time>2022-09-01T06:33:49Z</time>
      </trkpt>
      <trkpt lat="46.52554" lon="5.20758">
        <ele>203</ele>
        <time>2022-09-01T06:33:57Z</time>
      </trkpt>
      <trkpt lat="46.52553" lon="5.20748">
        <ele>203</ele>
        <time>2022-09-01T06:33:58Z</time>
      </trkpt>
      <trkpt lat="46.52548" lon="5.20664">
        <ele>202.8</ele>
        <time>2022-09-01T06:34:06Z</time>
      </trkpt>
      <trkpt lat="46.52546" lon="5.20634">
        <ele>203</ele>
        <time>2022-09-01T06:34:09Z</time>
      </trkpt>
      <trkpt lat="46.5254" lon="5.20553">
        <ele>203.2</ele>
        <time>2022-09-01T06:34:17Z</time>
      </trkpt>
      <trkpt lat="46.52539" lon="5.20534">
        <ele>203.2</ele>
        <time>2022-09-01T06:34:19Z</time>
      </trkpt>
      <trkpt lat="46.52533" lon="5.20449">
        <ele>203</ele>
        <time>2022-09-01T06:34:27Z</time>
      </trkpt>
      <trkpt lat="46.52531" lon="5.20426">
        <ele>202.8</ele>
        <time>2022-09-01T06:34:29Z</time>
      </trkpt>
      <trkpt lat="46.52526" lon="5.2035">
        <ele>201.8</ele>
        <time>2022-09-01T06:34:35Z</time>
      </trkpt>
      <trkpt lat="46.52525" lon="5.20337">
        <ele>201.6</ele>
        <time>2022-09-01T06:34:36Z</time>
      </trkpt>
      <trkpt lat="46.52522" lon="5.20282">
        <ele>200.6</ele>
        <time>2022-09-01T06:34:40Z</time>
      </trkpt>
      <trkpt lat="46.52519" lon="5.2024">
        <ele>199.4</ele>
        <time>2022-09-01T06:34:43Z</time>
      </trkpt>
      <trkpt lat="46.52516" lon="5.20197">
        <ele>198.4</ele>
        <time>2022-09-01T06:34:46Z</time>
      </trkpt>
      <trkpt lat="46.52512" lon="5.2014">
        <ele>197.2</ele>
        <time>2022-09-01T06:34:50Z</time>
      </trkpt>
      <trkpt lat="46.52512" lon="5.20112">
        <ele>196.4</ele>
        <time>2022-09-01T06:34:52Z</time>
      </trkpt>
      <trkpt lat="46.52512" lon="5.20085">
        <ele>196.2</ele>
        <time>2022-09-01T06:34:54Z</time>
      </trkpt>
      <trkpt lat="46.52514" lon="5.20038">
        <ele>195.4</ele>
        <time>2022-09-01T06:34:58Z</time>
      </trkpt>
      <trkpt lat="46.52517" lon="5.19966">
        <ele>195.2</ele>
        <time>2022-09-01T06:35:04Z</time>
      </trkpt>
      <trkpt lat="46.52518" lon="5.19889">
        <ele>195.2</ele>
        <time>2022-09-01T06:35:12Z</time>
      </trkpt>
      <trkpt lat="46.52516" lon="5.19806">
        <ele>195.6</ele>
        <time>2022-09-01T06:35:19Z</time>
      </trkpt>
      <trkpt lat="46.52516" lon="5.19767">
        <ele>195.8</ele>
        <time>2022-09-01T06:35:23Z</time>
      </trkpt>
      <trkpt lat="46.52516" lon="5.19704">
        <ele>197</ele>
        <time>2022-09-01T06:35:30Z</time>
      </trkpt>
      <trkpt lat="46.52516" lon="5.19687">
        <ele>197.2</ele>
        <time>2022-09-01T06:35:32Z</time>
      </trkpt>
      <trkpt lat="46.52516" lon="5.19646">
        <ele>198.6</ele>
        <time>2022-09-01T06:35:37Z</time>
      </trkpt>
      <trkpt lat="46.52515" lon="5.19629">
        <ele>198.8</ele>
        <time>2022-09-01T06:35:39Z</time>
      </trkpt>
      <trkpt lat="46.52514" lon="5.19605">
        <ele>199.8</ele>
        <time>2022-09-01T06:35:42Z</time>
      </trkpt>
      <trkpt lat="46.52512" lon="5.19558">
        <ele>200.4</ele>
        <time>2022-09-01T06:35:47Z</time>
      </trkpt>
      <trkpt lat="46.52512" lon="5.1954">
        <ele>200.8</ele>
        <time>2022-09-01T06:35:49Z</time>
      </trkpt>
      <trkpt lat="46.5251" lon="5.19465">
        <ele>201.4</ele>
        <time>2022-09-01T06:35:57Z</time>
      </trkpt>
      <trkpt lat="46.52509" lon="5.194">
        <ele>201.8</ele>
        <time>2022-09-01T06:36:04Z</time>
      </trkpt>
      <trkpt lat="46.52508" lon="5.19359">
        <ele>201.8</ele>
        <time>2022-09-01T06:36:08Z</time>
      </trkpt>
      <trkpt lat="46.52507" lon="5.19273">
        <ele>201.6</ele>
        <time>2022-09-01T06:36:17Z</time>
      </trkpt>
      <trkpt lat="46.52507" lon="5.19264">
        <ele>201.6</ele>
        <time>2022-09-01T06:36:18Z</time>
      </trkpt>
      <trkpt lat="46.52505" lon="5.19177">
        <ele>202</ele>
        <time>2022-09-01T06:36:27Z</time>
      </trkpt>
      <trkpt lat="46.52506" lon="5.19147">
        <ele>201.8</ele>
        <time>2022-09-01T06:36:30Z</time>
      </trkpt>
      <trkpt lat="46.52514" lon="5.19096">
        <ele>201.4</ele>
        <time>2022-09-01T06:36:35Z</time>
      </trkpt>
      <trkpt lat="46.52529" lon="5.19052">
        <ele>201.4</ele>
        <time>2022-09-01T06:36:40Z</time>
      </trkpt>
      <trkpt lat="46.52563" lon="5.18978">
        <ele>201.2</ele>
        <time>2022-09-01T06:36:48Z</time>
      </trkpt>
      <trkpt lat="46.52577" lon="5.18946">
        <ele>200.2</ele>
        <time>2022-09-01T06:36:51Z</time>
      </trkpt>
      <trkpt lat="46.52592" lon="5.18912">
        <ele>199.8</ele>
        <time>2022-09-01T06:36:54Z</time>
      </trkpt>
      <trkpt lat="46.52602" lon="5.18887">
        <ele>199</ele>
        <time>2022-09-01T06:36:56Z</time>
      </trkpt>
      <trkpt lat="46.52611" lon="5.18861">
        <ele>198.4</ele>
        <time>2022-09-01T06:36:58Z</time>
      </trkpt>
      <trkpt lat="46.52614" lon="5.18848">
        <ele>198</ele>
        <time>2022-09-01T06:36:59Z</time>
      </trkpt>
      <trkpt lat="46.52616" lon="5.18834">
        <ele>197.6</ele>
        <time>2022-09-01T06:37:00Z</time>
      </trkpt>
      <trkpt lat="46.52619" lon="5.18793">
        <ele>196.4</ele>
        <time>2022-09-01T06:37:03Z</time>
      </trkpt>
      <trkpt lat="46.52622" lon="5.18732">
        <ele>195.4</ele>
        <time>2022-09-01T06:37:08Z</time>
      </trkpt>
      <trkpt lat="46.52624" lon="5.18652">
        <ele>195.8</ele>
        <time>2022-09-01T06:37:15Z</time>
      </trkpt>
      <trkpt lat="46.52628" lon="5.18584">
        <ele>196</ele>
        <time>2022-09-01T06:37:20Z</time>
      </trkpt>
      <trkpt lat="46.52633" lon="5.1853">
        <ele>195.6</ele>
        <time>2022-09-01T06:37:24Z</time>
      </trkpt>
      <trkpt lat="46.52636" lon="5.18516">
        <ele>195.2</ele>
        <time>2022-09-01T06:37:25Z</time>
      </trkpt>
      <trkpt lat="46.52651" lon="5.18478">
        <ele>194.2</ele>
        <time>2022-09-01T06:37:28Z</time>
      </trkpt>
      <trkpt lat="46.52656" lon="5.18466">
        <ele>193.8</ele>
        <time>2022-09-01T06:37:29Z</time>
      </trkpt>
      <trkpt lat="46.52672" lon="5.1843">
        <ele>192.8</ele>
        <time>2022-09-01T06:37:32Z</time>
      </trkpt>
      <trkpt lat="46.52688" lon="5.18396">
        <ele>191.2</ele>
        <time>2022-09-01T06:37:35Z</time>
      </trkpt>
      <trkpt lat="46.52703" lon="5.18363">
        <ele>190.4</ele>
        <time>2022-09-01T06:37:38Z</time>
      </trkpt>
      <trkpt lat="46.52708" lon="5.18352">
        <ele>190.2</ele>
        <time>2022-09-01T06:37:39Z</time>
      </trkpt>
      <trkpt lat="46.52742" lon="5.18282">
        <ele>189.4</ele>
        <time>2022-09-01T06:37:46Z</time>
      </trkpt>
      <trkpt lat="46.52746" lon="5.18272">
        <ele>189.4</ele>
        <time>2022-09-01T06:37:47Z</time>
      </trkpt>
      <trkpt lat="46.52766" lon="5.18224">
        <ele>189.4</ele>
        <time>2022-09-01T06:37:52Z</time>
      </trkpt>
      <trkpt lat="46.5277" lon="5.18205">
        <ele>189.4</ele>
        <time>2022-09-01T06:37:54Z</time>
      </trkpt>
      <trkpt lat="46.52773" lon="5.18186">
        <ele>189.4</ele>
        <time>2022-09-01T06:37:56Z</time>
      </trkpt>
      <trkpt lat="46.52776" lon="5.18122">
        <ele>190</ele>
        <time>2022-09-01T06:38:03Z</time>
      </trkpt>
      <trkpt lat="46.52777" lon="5.18106">
        <ele>190.8</ele>
        <time>2022-09-01T06:38:05Z</time>
      </trkpt>
      <trkpt lat="46.52777" lon="5.18055">
        <ele>191.8</ele>
        <time>2022-09-01T06:38:10Z</time>
      </trkpt>
      <trkpt lat="46.52769" lon="5.17997">
        <ele>192.2</ele>
        <time>2022-09-01T06:38:15Z</time>
      </trkpt>
      <trkpt lat="46.52762" lon="5.17958">
        <ele>191.8</ele>
        <time>2022-09-01T06:38:18Z</time>
      </trkpt>
      <trkpt lat="46.52761" lon="5.17948">
        <ele>191.6</ele>
        <time>2022-09-01T06:38:19Z</time>
      </trkpt>
      <trkpt lat="46.5276" lon="5.17932">
        <ele>191.4</ele>
        <time>2022-09-01T06:38:20Z</time>
      </trkpt>
      <trkpt lat="46.52761" lon="5.17918">
        <ele>190.8</ele>
        <time>2022-09-01T06:38:21Z</time>
      </trkpt>
      <trkpt lat="46.52763" lon="5.17892">
        <ele>189.8</ele>
        <time>2022-09-01T06:38:23Z</time>
      </trkpt>
      <trkpt lat="46.52771" lon="5.17808">
        <ele>188.8</ele>
        <time>2022-09-01T06:38:30Z</time>
      </trkpt>
      <trkpt lat="46.52773" lon="5.17785">
        <ele>188.6</ele>
        <time>2022-09-01T06:38:32Z</time>
      </trkpt>
      <trkpt lat="46.52778" lon="5.1774">
        <ele>188.6</ele>
        <time>2022-09-01T06:38:36Z</time>
      </trkpt>
      <trkpt lat="46.52783" lon="5.17696">
        <ele>188.4</ele>
        <time>2022-09-01T06:38:40Z</time>
      </trkpt>
      <trkpt lat="46.52789" lon="5.17677">
        <ele>188.4</ele>
        <time>2022-09-01T06:38:42Z</time>
      </trkpt>
      <trkpt lat="46.52797" lon="5.17664">
        <ele>188.4</ele>
        <time>2022-09-01T06:38:44Z</time>
      </trkpt>
      <trkpt lat="46.52811" lon="5.17651">
        <ele>188.4</ele>
        <time>2022-09-01T06:38:46Z</time>
      </trkpt>
      <trkpt lat="46.52824" lon="5.17645">
        <ele>188.4</ele>
        <time>2022-09-01T06:38:48Z</time>
      </trkpt>
      <trkpt lat="46.52829" lon="5.17644">
        <ele>188.6</ele>
        <time>2022-09-01T06:38:49Z</time>
      </trkpt>
      <trkpt lat="46.52837" lon="5.17645">
        <ele>188.6</ele>
        <time>2022-09-01T06:38:50Z</time>
      </trkpt>
      <trkpt lat="46.52848" lon="5.1765">
        <ele>188.8</ele>
        <time>2022-09-01T06:38:52Z</time>
      </trkpt>
      <trkpt lat="46.52888" lon="5.17671">
        <ele>189.6</ele>
        <time>2022-09-01T06:38:59Z</time>
      </trkpt>
      <trkpt lat="46.52894" lon="5.17673">
        <ele>189.6</ele>
        <time>2022-09-01T06:39:00Z</time>
      </trkpt>
      <trkpt lat="46.52932" lon="5.17689">
        <ele>190.8</ele>
        <time>2022-09-01T06:39:07Z</time>
      </trkpt>
      <trkpt lat="46.52944" lon="5.17695">
        <ele>191.2</ele>
        <time>2022-09-01T06:39:09Z</time>
      </trkpt>
      <trkpt lat="46.52992" lon="5.17714">
        <ele>191.8</ele>
        <time>2022-09-01T06:39:17Z</time>
      </trkpt>
      <trkpt lat="46.52997" lon="5.17716">
        <ele>191.8</ele>
        <time>2022-09-01T06:39:18Z</time>
      </trkpt>
      <trkpt lat="46.53027" lon="5.17726">
        <ele>192.2</ele>
        <time>2022-09-01T06:39:23Z</time>
      </trkpt>
      <trkpt lat="46.53062" lon="5.17731">
        <ele>193</ele>
        <time>2022-09-01T06:39:29Z</time>
      </trkpt>
      <trkpt lat="46.53068" lon="5.17732">
        <ele>193.2</ele>
        <time>2022-09-01T06:39:30Z</time>
      </trkpt>
      <trkpt lat="46.53107" lon="5.17737">
        <ele>194.4</ele>
        <time>2022-09-01T06:39:37Z</time>
      </trkpt>
      <trkpt lat="46.53117" lon="5.17738">
        <ele>194.8</ele>
        <time>2022-09-01T06:39:39Z</time>
      </trkpt>
      <trkpt lat="46.53132" lon="5.17742">
        <ele>195.6</ele>
        <time>2022-09-01T06:39:42Z</time>
      </trkpt>
      <trkpt lat="46.53138" lon="5.17744">
        <ele>195.6</ele>
        <time>2022-09-01T06:39:43Z</time>
      </trkpt>
      <trkpt lat="46.53147" lon="5.17747">
        <ele>196</ele>
        <time>2022-09-01T06:39:45Z</time>
      </trkpt>
      <trkpt lat="46.53159" lon="5.17749">
        <ele>196.6</ele>
        <time>2022-09-01T06:39:47Z</time>
      </trkpt>
      <trkpt lat="46.53179" lon="5.17752">
        <ele>197.4</ele>
        <time>2022-09-01T06:39:51Z</time>
      </trkpt>
      <trkpt lat="46.53191" lon="5.17755">
        <ele>197.6</ele>
        <time>2022-09-01T06:39:53Z</time>
      </trkpt>
      <trkpt lat="46.53231" lon="5.17763">
        <ele>198.8</ele>
        <time>2022-09-01T06:40:00Z</time>
      </trkpt>
      <trkpt lat="46.53276" lon="5.17766">
        <ele>199</ele>
        <time>2022-09-01T06:40:07Z</time>
      </trkpt>
      <trkpt lat="46.5331" lon="5.17763">
        <ele>198.4</ele>
        <time>2022-09-01T06:40:12Z</time>
      </trkpt>
      <trkpt lat="46.53359" lon="5.1775">
        <ele>197.6</ele>
        <time>2022-09-01T06:40:18Z</time>
      </trkpt>
      <trkpt lat="46.53365" lon="5.17746">
        <ele>197.6</ele>
        <time>2022-09-01T06:40:19Z</time>
      </trkpt>
      <trkpt lat="46.53395" lon="5.17724">
        <ele>197.8</ele>
        <time>2022-09-01T06:40:24Z</time>
      </trkpt>
      <trkpt lat="46.53445" lon="5.17685">
        <ele>198.8</ele>
        <time>2022-09-01T06:40:33Z</time>
      </trkpt>
      <trkpt lat="46.53451" lon="5.17681">
        <ele>198.8</ele>
        <time>2022-09-01T06:40:34Z</time>
      </trkpt>
      <trkpt lat="46.535" lon="5.17644">
        <ele>199.4</ele>
        <time>2022-09-01T06:40:43Z</time>
      </trkpt>
      <trkpt lat="46.53511" lon="5.17635">
        <ele>199.4</ele>
        <time>2022-09-01T06:40:45Z</time>
      </trkpt>
      <trkpt lat="46.53554" lon="5.1761">
        <ele>199.6</ele>
        <time>2022-09-01T06:40:52Z</time>
      </trkpt>
      <trkpt lat="46.53604" lon="5.17597">
        <ele>199.2</ele>
        <time>2022-09-01T06:40:59Z</time>
      </trkpt>
      <trkpt lat="46.53656" lon="5.17585">
        <ele>199</ele>
        <time>2022-09-01T06:41:06Z</time>
      </trkpt>
      <trkpt lat="46.53709" lon="5.17574">
        <ele>199.2</ele>
        <time>2022-09-01T06:41:14Z</time>
      </trkpt>
      <trkpt lat="46.53769" lon="5.1756">
        <ele>199.2</ele>
        <time>2022-09-01T06:41:22Z</time>
      </trkpt>
      <trkpt lat="46.53777" lon="5.17559">
        <ele>199.4</ele>
        <time>2022-09-01T06:41:23Z</time>
      </trkpt>
      <trkpt lat="46.53838" lon="5.17546">
        <ele>198.8</ele>
        <time>2022-09-01T06:41:31Z</time>
      </trkpt>
      <trkpt lat="46.53846" lon="5.17544">
        <ele>198.8</ele>
        <time>2022-09-01T06:41:32Z</time>
      </trkpt>
      <trkpt lat="46.53862" lon="5.1754">
        <ele>198.6</ele>
        <time>2022-09-01T06:41:34Z</time>
      </trkpt>
      <trkpt lat="46.53884" lon="5.17528">
        <ele>198.4</ele>
        <time>2022-09-01T06:41:37Z</time>
      </trkpt>
      <trkpt lat="46.53924" lon="5.17499">
        <ele>197.8</ele>
        <time>2022-09-01T06:41:43Z</time>
      </trkpt>
      <trkpt lat="46.53972" lon="5.17462">
        <ele>198.2</ele>
        <time>2022-09-01T06:41:51Z</time>
      </trkpt>
      <trkpt lat="46.53979" lon="5.17457">
        <ele>198.2</ele>
        <time>2022-09-01T06:41:52Z</time>
      </trkpt>
      <trkpt lat="46.54029" lon="5.17419">
        <ele>199</ele>
        <time>2022-09-01T06:42:00Z</time>
      </trkpt>
      <trkpt lat="46.54042" lon="5.17409">
        <ele>199</ele>
        <time>2022-09-01T06:42:02Z</time>
      </trkpt>
      <trkpt lat="46.54094" lon="5.1737">
        <ele>199.2</ele>
        <time>2022-09-01T06:42:10Z</time>
      </trkpt>
      <trkpt lat="46.54111" lon="5.17357">
        <ele>199.4</ele>
        <time>2022-09-01T06:42:13Z</time>
      </trkpt>
      <trkpt lat="46.5416" lon="5.17321">
        <ele>198.4</ele>
        <time>2022-09-01T06:42:19Z</time>
      </trkpt>
      <trkpt lat="46.54184" lon="5.17302">
        <ele>197.4</ele>
        <time>2022-09-01T06:42:22Z</time>
      </trkpt>
      <trkpt lat="46.5421" lon="5.17283">
        <ele>196.4</ele>
        <time>2022-09-01T06:42:25Z</time>
      </trkpt>
      <trkpt lat="46.54227" lon="5.1727">
        <ele>195.4</ele>
        <time>2022-09-01T06:42:27Z</time>
      </trkpt>
      <trkpt lat="46.54235" lon="5.17263">
        <ele>195.2</ele>
        <time>2022-09-01T06:42:28Z</time>
      </trkpt>
      <trkpt lat="46.54258" lon="5.17246">
        <ele>194</ele>
        <time>2022-09-01T06:42:31Z</time>
      </trkpt>
      <trkpt lat="46.54272" lon="5.17236">
        <ele>193.8</ele>
        <time>2022-09-01T06:42:33Z</time>
      </trkpt>
      <trkpt lat="46.54302" lon="5.17213">
        <ele>193.8</ele>
        <time>2022-09-01T06:42:38Z</time>
      </trkpt>
      <trkpt lat="46.54336" lon="5.17186">
        <ele>195.2</ele>
        <time>2022-09-01T06:42:44Z</time>
      </trkpt>
      <trkpt lat="46.54354" lon="5.17173">
        <ele>195.4</ele>
        <time>2022-09-01T06:42:47Z</time>
      </trkpt>
      <trkpt lat="46.54397" lon="5.17143">
        <ele>196.2</ele>
        <time>2022-09-01T06:42:54Z</time>
      </trkpt>
      <trkpt lat="46.54403" lon="5.1714">
        <ele>196.2</ele>
        <time>2022-09-01T06:42:55Z</time>
      </trkpt>
      <trkpt lat="46.54409" lon="5.17137">
        <ele>196.4</ele>
        <time>2022-09-01T06:42:56Z</time>
      </trkpt>
      <trkpt lat="46.54428" lon="5.17135">
        <ele>196.8</ele>
        <time>2022-09-01T06:42:59Z</time>
      </trkpt>
      <trkpt lat="46.54465" lon="5.17136">
        <ele>197.2</ele>
        <time>2022-09-01T06:43:04Z</time>
      </trkpt>
      <trkpt lat="46.54503" lon="5.17136">
        <ele>197.6</ele>
        <time>2022-09-01T06:43:09Z</time>
      </trkpt>
      <trkpt lat="46.54564" lon="5.17136">
        <ele>196.6</ele>
        <time>2022-09-01T06:43:17Z</time>
      </trkpt>
      <trkpt lat="46.5458" lon="5.17137">
        <ele>196.4</ele>
        <time>2022-09-01T06:43:19Z</time>
      </trkpt>
      <trkpt lat="46.54604" lon="5.17137">
        <ele>196</ele>
        <time>2022-09-01T06:43:22Z</time>
      </trkpt>
      <trkpt lat="46.54653" lon="5.17137">
        <ele>195.2</ele>
        <time>2022-09-01T06:43:28Z</time>
      </trkpt>
      <trkpt lat="46.54661" lon="5.17138">
        <ele>194.8</ele>
        <time>2022-09-01T06:43:29Z</time>
      </trkpt>
      <trkpt lat="46.54703" lon="5.17141">
        <ele>193.6</ele>
        <time>2022-09-01T06:43:34Z</time>
      </trkpt>
      <trkpt lat="46.54727" lon="5.17146">
        <ele>193.4</ele>
        <time>2022-09-01T06:43:37Z</time>
      </trkpt>
      <trkpt lat="46.54754" lon="5.17152">
        <ele>192.6</ele>
        <time>2022-09-01T06:43:40Z</time>
      </trkpt>
      <trkpt lat="46.54791" lon="5.17158">
        <ele>192</ele>
        <time>2022-09-01T06:43:44Z</time>
      </trkpt>
      <trkpt lat="46.54808" lon="5.1716">
        <ele>191.4</ele>
        <time>2022-09-01T06:43:46Z</time>
      </trkpt>
      <trkpt lat="46.54829" lon="5.17162">
        <ele>190.4</ele>
        <time>2022-09-01T06:43:48Z</time>
      </trkpt>
      <trkpt lat="46.54839" lon="5.17162">
        <ele>190</ele>
        <time>2022-09-01T06:43:49Z</time>
      </trkpt>
      <trkpt lat="46.54849" lon="5.17161">
        <ele>189.4</ele>
        <time>2022-09-01T06:43:50Z</time>
      </trkpt>
      <trkpt lat="46.54858" lon="5.17158">
        <ele>189</ele>
        <time>2022-09-01T06:43:51Z</time>
      </trkpt>
      <trkpt lat="46.54867" lon="5.17154">
        <ele>188.4</ele>
        <time>2022-09-01T06:43:52Z</time>
      </trkpt>
      <trkpt lat="46.54883" lon="5.1714">
        <ele>187.8</ele>
        <time>2022-09-01T06:43:54Z</time>
      </trkpt>
      <trkpt lat="46.5489" lon="5.17132">
        <ele>187.2</ele>
        <time>2022-09-01T06:43:55Z</time>
      </trkpt>
      <trkpt lat="46.54903" lon="5.17115">
        <ele>186.6</ele>
        <time>2022-09-01T06:43:57Z</time>
      </trkpt>
      <trkpt lat="46.54923" lon="5.17094">
        <ele>186.2</ele>
        <time>2022-09-01T06:44:00Z</time>
      </trkpt>
      <trkpt lat="46.5493" lon="5.1709">
        <ele>186</ele>
        <time>2022-09-01T06:44:01Z</time>
      </trkpt>
      <trkpt lat="46.54937" lon="5.17088">
        <ele>186</ele>
        <time>2022-09-01T06:44:02Z</time>
      </trkpt>
      <trkpt lat="46.54951" lon="5.17088">
        <ele>185.8</ele>
        <time>2022-09-01T06:44:04Z</time>
      </trkpt>
      <trkpt lat="46.54957" lon="5.17088">
        <ele>185.8</ele>
        <time>2022-09-01T06:44:05Z</time>
      </trkpt>
      <trkpt lat="46.54972" lon="5.17085">
        <ele>185.8</ele>
        <time>2022-09-01T06:44:07Z</time>
      </trkpt>
      <trkpt lat="46.54978" lon="5.17081">
        <ele>186.2</ele>
        <time>2022-09-01T06:44:08Z</time>
      </trkpt>
      <trkpt lat="46.54984" lon="5.17078">
        <ele>186</ele>
        <time>2022-09-01T06:44:09Z</time>
      </trkpt>
      <trkpt lat="46.54993" lon="5.17081">
        <ele>186.4</ele>
        <time>2022-09-01T06:44:11Z</time>
      </trkpt>
      <trkpt lat="46.54996" lon="5.17097">
        <ele>186.8</ele>
        <time>2022-09-01T06:44:13Z</time>
      </trkpt>
      <trkpt lat="46.54995" lon="5.17107">
        <ele>186.8</ele>
        <time>2022-09-01T06:44:14Z</time>
      </trkpt>
      <trkpt lat="46.54984" lon="5.17161">
        <ele>186.8</ele>
        <time>2022-09-01T06:44:19Z</time>
      </trkpt>
      <trkpt lat="46.54975" lon="5.17237">
        <ele>186.4</ele>
        <time>2022-09-01T06:44:26Z</time>
      </trkpt>
      <trkpt lat="46.54979" lon="5.17299">
        <ele>186.4</ele>
        <time>2022-09-01T06:44:32Z</time>
      </trkpt>
      <trkpt lat="46.54981" lon="5.17328">
        <ele>186.6</ele>
        <time>2022-09-01T06:44:35Z</time>
      </trkpt>
      <trkpt lat="46.54981" lon="5.17337">
        <ele>186.8</ele>
        <time>2022-09-01T06:44:36Z</time>
      </trkpt>
      <trkpt lat="46.5498" lon="5.17355">
        <ele>186.8</ele>
        <time>2022-09-01T06:44:38Z</time>
      </trkpt>
      <trkpt lat="46.54975" lon="5.17371">
        <ele>187.2</ele>
        <time>2022-09-01T06:44:40Z</time>
      </trkpt>
      <trkpt lat="46.54966" lon="5.17388">
        <ele>187.8</ele>
        <time>2022-09-01T06:44:43Z</time>
      </trkpt>
      <trkpt lat="46.54959" lon="5.17394">
        <ele>187.8</ele>
        <time>2022-09-01T06:44:44Z</time>
      </trkpt>
      <trkpt lat="46.5495" lon="5.17399">
        <ele>188.2</ele>
        <time>2022-09-01T06:44:45Z</time>
      </trkpt>
      <trkpt lat="46.5493" lon="5.17406">
        <ele>188.4</ele>
        <time>2022-09-01T06:44:48Z</time>
      </trkpt>
      <trkpt lat="46.54872" lon="5.17423">
        <ele>188</ele>
        <time>2022-09-01T06:44:56Z</time>
      </trkpt>
      <trkpt lat="46.54843" lon="5.17437">
        <ele>187.4</ele>
        <time>2022-09-01T06:45:00Z</time>
      </trkpt>
      <trkpt lat="46.54837" lon="5.17443">
        <ele>187.4</ele>
        <time>2022-09-01T06:45:01Z</time>
      </trkpt>
      <trkpt lat="46.54828" lon="5.17455">
        <ele>187.4</ele>
        <time>2022-09-01T06:45:03Z</time>
      </trkpt>
      <trkpt lat="46.5482" lon="5.17471">
        <ele>187.8</ele>
        <time>2022-09-01T06:45:05Z</time>
      </trkpt>
      <trkpt lat="46.54805" lon="5.17518">
        <ele>189.2</ele>
        <time>2022-09-01T06:45:11Z</time>
      </trkpt>
      <trkpt lat="46.54796" lon="5.17548">
        <ele>190.4</ele>
        <time>2022-09-01T06:45:15Z</time>
      </trkpt>
      <trkpt lat="46.5479" lon="5.17568">
        <ele>191.6</ele>
        <time>2022-09-01T06:45:18Z</time>
      </trkpt>
      <trkpt lat="46.54788" lon="5.17575">
        <ele>191.8</ele>
        <time>2022-09-01T06:45:19Z</time>
      </trkpt>
      <trkpt lat="46.54784" lon="5.17588">
        <ele>192.6</ele>
        <time>2022-09-01T06:45:21Z</time>
      </trkpt>
      <trkpt lat="46.54778" lon="5.17607">
        <ele>194.2</ele>
        <time>2022-09-01T06:45:24Z</time>
      </trkpt>
      <trkpt lat="46.54773" lon="5.17626">
        <ele>195.2</ele>
        <time>2022-09-01T06:45:27Z</time>
      </trkpt>
      <trkpt lat="46.54771" lon="5.17632">
        <ele>195.4</ele>
        <time>2022-09-01T06:45:28Z</time>
      </trkpt>
      <trkpt lat="46.54762" lon="5.17665">
        <ele>196.4</ele>
        <time>2022-09-01T06:45:33Z</time>
      </trkpt>
      <trkpt lat="46.54755" lon="5.17694">
        <ele>197.4</ele>
        <time>2022-09-01T06:45:37Z</time>
      </trkpt>
      <trkpt lat="46.54746" lon="5.17724">
        <ele>198.6</ele>
        <time>2022-09-01T06:45:41Z</time>
      </trkpt>
      <trkpt lat="46.54738" lon="5.17751">
        <ele>199</ele>
        <time>2022-09-01T06:45:45Z</time>
      </trkpt>
      <trkpt lat="46.54722" lon="5.17812">
        <ele>199.4</ele>
        <time>2022-09-01T06:45:52Z</time>
      </trkpt>
      <trkpt lat="46.54717" lon="5.17829">
        <ele>199.6</ele>
        <time>2022-09-01T06:45:54Z</time>
      </trkpt>
      <trkpt lat="46.54706" lon="5.17871">
        <ele>199.8</ele>
        <time>2022-09-01T06:45:59Z</time>
      </trkpt>
      <trkpt lat="46.54701" lon="5.17899">
        <ele>199.8</ele>
        <time>2022-09-01T06:46:02Z</time>
      </trkpt>
      <trkpt lat="46.54701" lon="5.17916">
        <ele>199.8</ele>
        <time>2022-09-01T06:46:04Z</time>
      </trkpt>
      <trkpt lat="46.54705" lon="5.17957">
        <ele>199.4</ele>
        <time>2022-09-01T06:46:08Z</time>
      </trkpt>
      <trkpt lat="46.54708" lon="5.17967">
        <ele>199.4</ele>
        <time>2022-09-01T06:46:09Z</time>
      </trkpt>
      <trkpt lat="46.54725" lon="5.1804">
        <ele>199.2</ele>
        <time>2022-09-01T06:46:16Z</time>
      </trkpt>
      <trkpt lat="46.5474" lon="5.18099">
        <ele>199.2</ele>
        <time>2022-09-01T06:46:22Z</time>
      </trkpt>
      <trkpt lat="46.54752" lon="5.18157">
        <ele>199.6</ele>
        <time>2022-09-01T06:46:28Z</time>
      </trkpt>
      <trkpt lat="46.54769" lon="5.18242">
        <ele>200</ele>
        <time>2022-09-01T06:46:37Z</time>
      </trkpt>
      <trkpt lat="46.54771" lon="5.18251">
        <ele>200.2</ele>
        <time>2022-09-01T06:46:38Z</time>
      </trkpt>
      <trkpt lat="46.54785" lon="5.18334">
        <ele>200.6</ele>
        <time>2022-09-01T06:46:47Z</time>
      </trkpt>
      <trkpt lat="46.54788" lon="5.1835">
        <ele>200.8</ele>
        <time>2022-09-01T06:46:49Z</time>
      </trkpt>
      <trkpt lat="46.54794" lon="5.1838">
        <ele>201</ele>
        <time>2022-09-01T06:46:53Z</time>
      </trkpt>
      <trkpt lat="46.54794" lon="5.18391">
        <ele>201</ele>
        <time>2022-09-01T06:46:56Z</time>
      </trkpt>
      <trkpt lat="46.54794" lon="5.18391">
        <ele>200.8</ele>
        <time>2022-09-01T06:46:59Z</time>
      </trkpt>
      <trkpt lat="46.54793" lon="5.18397">
        <ele>200.6</ele>
        <time>2022-09-01T06:47:44Z</time>
      </trkpt>
      <trkpt lat="46.54787" lon="5.18421">
        <ele>200.4</ele>
        <time>2022-09-01T06:47:47Z</time>
      </trkpt>
      <trkpt lat="46.54782" lon="5.18438">
        <ele>200.4</ele>
        <time>2022-09-01T06:47:49Z</time>
      </trkpt>
      <trkpt lat="46.54777" lon="5.1845">
        <ele>200.4</ele>
        <time>2022-09-01T06:47:50Z</time>
      </trkpt>
      <trkpt lat="46.54773" lon="5.18457">
        <ele>200.4</ele>
        <time>2022-09-01T06:47:51Z</time>
      </trkpt>
      <trkpt lat="46.54758" lon="5.18474">
        <ele>200.4</ele>
        <time>2022-09-01T06:47:53Z</time>
      </trkpt>
      <trkpt lat="46.5475" lon="5.18481">
        <ele>200.2</ele>
        <time>2022-09-01T06:47:54Z</time>
      </trkpt>
      <trkpt lat="46.54726" lon="5.18494">
        <ele>200</ele>
        <time>2022-09-01T06:47:57Z</time>
      </trkpt>
      <trkpt lat="46.54706" lon="5.18502">
        <ele>199.6</ele>
        <time>2022-09-01T06:47:59Z</time>
      </trkpt>
      <trkpt lat="46.54669" lon="5.18522">
        <ele>198</ele>
        <time>2022-09-01T06:48:03Z</time>
      </trkpt>
      <trkpt lat="46.54641" lon="5.18543">
        <ele>196.8</ele>
        <time>2022-09-01T06:48:06Z</time>
      </trkpt>
      <trkpt lat="46.54626" lon="5.18557">
        <ele>196.4</ele>
        <time>2022-09-01T06:48:08Z</time>
      </trkpt>
      <trkpt lat="46.54601" lon="5.18579">
        <ele>195.4</ele>
        <time>2022-09-01T06:48:11Z</time>
      </trkpt>
      <trkpt lat="46.54576" lon="5.18601">
        <ele>194.4</ele>
        <time>2022-09-01T06:48:14Z</time>
      </trkpt>
      <trkpt lat="46.5456" lon="5.18616">
        <ele>193.2</ele>
        <time>2022-09-01T06:48:16Z</time>
      </trkpt>
      <trkpt lat="46.54552" lon="5.18623">
        <ele>193</ele>
        <time>2022-09-01T06:48:17Z</time>
      </trkpt>
      <trkpt lat="46.5451" lon="5.18661">
        <ele>192.4</ele>
        <time>2022-09-01T06:48:23Z</time>
      </trkpt>
      <trkpt lat="46.54496" lon="5.18675">
        <ele>192.6</ele>
        <time>2022-09-01T06:48:25Z</time>
      </trkpt>
      <trkpt lat="46.54487" lon="5.18689">
        <ele>193.2</ele>
        <time>2022-09-01T06:48:27Z</time>
      </trkpt>
      <trkpt lat="46.54479" lon="5.18708">
        <ele>194.2</ele>
        <time>2022-09-01T06:48:29Z</time>
      </trkpt>
      <trkpt lat="46.54473" lon="5.18729">
        <ele>194.8</ele>
        <time>2022-09-01T06:48:31Z</time>
      </trkpt>
      <trkpt lat="46.54465" lon="5.18762">
        <ele>195.4</ele>
        <time>2022-09-01T06:48:34Z</time>
      </trkpt>
      <trkpt lat="46.54454" lon="5.18813">
        <ele>196.4</ele>
        <time>2022-09-01T06:48:39Z</time>
      </trkpt>
      <trkpt lat="46.54452" lon="5.18823">
        <ele>196.6</ele>
        <time>2022-09-01T06:48:40Z</time>
      </trkpt>
      <trkpt lat="46.54435" lon="5.18907">
        <ele>196.8</ele>
        <time>2022-09-01T06:48:48Z</time>
      </trkpt>
      <trkpt lat="46.54429" lon="5.18989">
        <ele>196.4</ele>
        <time>2022-09-01T06:48:55Z</time>
      </trkpt>
      <trkpt lat="46.54428" lon="5.19068">
        <ele>195.4</ele>
        <time>2022-09-01T06:49:02Z</time>
      </trkpt>
      <trkpt lat="46.54428" lon="5.19082">
        <ele>195.2</ele>
        <time>2022-09-01T06:49:03Z</time>
      </trkpt>
      <trkpt lat="46.54428" lon="5.19093">
        <ele>195.2</ele>
        <time>2022-09-01T06:49:04Z</time>
      </trkpt>
      <trkpt lat="46.54431" lon="5.19182">
        <ele>194.8</ele>
        <time>2022-09-01T06:49:12Z</time>
      </trkpt>
      <trkpt lat="46.54432" lon="5.19192">
        <ele>194.6</ele>
        <time>2022-09-01T06:49:13Z</time>
      </trkpt>
      <trkpt lat="46.54441" lon="5.19259">
        <ele>194.2</ele>
        <time>2022-09-01T06:49:19Z</time>
      </trkpt>
      <trkpt lat="46.54443" lon="5.19272">
        <ele>194</ele>
        <time>2022-09-01T06:49:20Z</time>
      </trkpt>
      <trkpt lat="46.54446" lon="5.19336">
        <ele>193.2</ele>
        <time>2022-09-01T06:49:25Z</time>
      </trkpt>
      <trkpt lat="46.54445" lon="5.19349">
        <ele>192.8</ele>
        <time>2022-09-01T06:49:26Z</time>
      </trkpt>
      <trkpt lat="46.54436" lon="5.19396">
        <ele>192.2</ele>
        <time>2022-09-01T06:49:30Z</time>
      </trkpt>
      <trkpt lat="46.54425" lon="5.19428">
        <ele>191.6</ele>
        <time>2022-09-01T06:49:33Z</time>
      </trkpt>
      <trkpt lat="46.54419" lon="5.19437">
        <ele>191.4</ele>
        <time>2022-09-01T06:49:34Z</time>
      </trkpt>
      <trkpt lat="46.54413" lon="5.19444">
        <ele>191</ele>
        <time>2022-09-01T06:49:35Z</time>
      </trkpt>
      <trkpt lat="46.544" lon="5.19456">
        <ele>190.8</ele>
        <time>2022-09-01T06:49:37Z</time>
      </trkpt>
      <trkpt lat="46.54393" lon="5.1946">
        <ele>190.8</ele>
        <time>2022-09-01T06:49:38Z</time>
      </trkpt>
      <trkpt lat="46.54351" lon="5.19473">
        <ele>191.4</ele>
        <time>2022-09-01T06:49:44Z</time>
      </trkpt>
      <trkpt lat="46.54297" lon="5.19484">
        <ele>192.6</ele>
        <time>2022-09-01T06:49:52Z</time>
      </trkpt>
      <trkpt lat="46.54247" lon="5.19496">
        <ele>194</ele>
        <time>2022-09-01T06:49:59Z</time>
      </trkpt>
      <trkpt lat="46.54189" lon="5.19509">
        <ele>194.4</ele>
        <time>2022-09-01T06:50:07Z</time>
      </trkpt>
      <trkpt lat="46.54174" lon="5.19513">
        <ele>194.4</ele>
        <time>2022-09-01T06:50:09Z</time>
      </trkpt>
      <trkpt lat="46.54116" lon="5.19528">
        <ele>194.4</ele>
        <time>2022-09-01T06:50:17Z</time>
      </trkpt>
      <trkpt lat="46.54109" lon="5.19531">
        <ele>194.4</ele>
        <time>2022-09-01T06:50:18Z</time>
      </trkpt>
      <trkpt lat="46.54059" lon="5.1956">
        <ele>194.4</ele>
        <time>2022-09-01T06:50:25Z</time>
      </trkpt>
      <trkpt lat="46.5404" lon="5.19578">
        <ele>194.2</ele>
        <time>2022-09-01T06:50:28Z</time>
      </trkpt>
      <trkpt lat="46.54029" lon="5.19594">
        <ele>194.2</ele>
        <time>2022-09-01T06:50:30Z</time>
      </trkpt>
      <trkpt lat="46.54009" lon="5.19642">
        <ele>194.2</ele>
        <time>2022-09-01T06:50:35Z</time>
      </trkpt>
      <trkpt lat="46.53998" lon="5.19673">
        <ele>194.2</ele>
        <time>2022-09-01T06:50:38Z</time>
      </trkpt>
      <trkpt lat="46.53978" lon="5.19727">
        <ele>194</ele>
        <time>2022-09-01T06:50:43Z</time>
      </trkpt>
      <trkpt lat="46.53954" lon="5.19791">
        <ele>192.8</ele>
        <time>2022-09-01T06:50:49Z</time>
      </trkpt>
      <trkpt lat="46.53934" lon="5.19839">
        <ele>192.6</ele>
        <time>2022-09-01T06:50:54Z</time>
      </trkpt>
      <trkpt lat="46.53912" lon="5.19879">
        <ele>193</ele>
        <time>2022-09-01T06:50:59Z</time>
      </trkpt>
      <trkpt lat="46.53881" lon="5.19924">
        <ele>193.8</ele>
        <time>2022-09-01T06:51:06Z</time>
      </trkpt>
      <trkpt lat="46.53878" lon="5.1993">
        <ele>194</ele>
        <time>2022-09-01T06:51:07Z</time>
      </trkpt>
      <trkpt lat="46.53857" lon="5.19959">
        <ele>195</ele>
        <time>2022-09-01T06:51:13Z</time>
      </trkpt>
      <trkpt lat="46.53851" lon="5.19966">
        <ele>195.2</ele>
        <time>2022-09-01T06:51:14Z</time>
      </trkpt>
      <trkpt lat="46.53835" lon="5.19988">
        <ele>196.4</ele>
        <time>2022-09-01T06:51:18Z</time>
      </trkpt>
      <trkpt lat="46.53828" lon="5.19998">
        <ele>197</ele>
        <time>2022-09-01T06:51:20Z</time>
      </trkpt>
      <trkpt lat="46.53825" lon="5.20004">
        <ele>197.4</ele>
        <time>2022-09-01T06:51:21Z</time>
      </trkpt>
      <trkpt lat="46.5381" lon="5.20025">
        <ele>198.6</ele>
        <time>2022-09-01T06:51:25Z</time>
      </trkpt>
      <trkpt lat="46.53804" lon="5.20036">
        <ele>198.8</ele>
        <time>2022-09-01T06:51:27Z</time>
      </trkpt>
      <trkpt lat="46.538" lon="5.20042">
        <ele>199.2</ele>
        <time>2022-09-01T06:51:28Z</time>
      </trkpt>
      <trkpt lat="46.53796" lon="5.20048">
        <ele>199.6</ele>
        <time>2022-09-01T06:51:29Z</time>
      </trkpt>
      <trkpt lat="46.5378" lon="5.20072">
        <ele>200.4</ele>
        <time>2022-09-01T06:51:33Z</time>
      </trkpt>
      <trkpt lat="46.53768" lon="5.20092">
        <ele>200.6</ele>
        <time>2022-09-01T06:51:36Z</time>
      </trkpt>
      <trkpt lat="46.53759" lon="5.20106">
        <ele>200.8</ele>
        <time>2022-09-01T06:51:38Z</time>
      </trkpt>
      <trkpt lat="46.5372" lon="5.20172">
        <ele>201.2</ele>
        <time>2022-09-01T06:51:47Z</time>
      </trkpt>
      <trkpt lat="46.53683" lon="5.20236">
        <ele>201.2</ele>
        <time>2022-09-01T06:51:55Z</time>
      </trkpt>
      <trkpt lat="46.53678" lon="5.20244">
        <ele>201.2</ele>
        <time>2022-09-01T06:51:56Z</time>
      </trkpt>
      <trkpt lat="46.53643" lon="5.20306">
        <ele>200.6</ele>
        <time>2022-09-01T06:52:03Z</time>
      </trkpt>
      <trkpt lat="46.53637" lon="5.20315">
        <ele>200.6</ele>
        <time>2022-09-01T06:52:04Z</time>
      </trkpt>
      <trkpt lat="46.53605" lon="5.20362">
        <ele>199.8</ele>
        <time>2022-09-01T06:52:09Z</time>
      </trkpt>
      <trkpt lat="46.53598" lon="5.20372">
        <ele>199.6</ele>
        <time>2022-09-01T06:52:10Z</time>
      </trkpt>
      <trkpt lat="46.53561" lon="5.20421">
        <ele>198.4</ele>
        <time>2022-09-01T06:52:15Z</time>
      </trkpt>
      <trkpt lat="46.53546" lon="5.20441">
        <ele>198.2</ele>
        <time>2022-09-01T06:52:17Z</time>
      </trkpt>
      <trkpt lat="46.53532" lon="5.2046">
        <ele>197.2</ele>
        <time>2022-09-01T06:52:19Z</time>
      </trkpt>
      <trkpt lat="46.535" lon="5.20503">
        <ele>196.2</ele>
        <time>2022-09-01T06:52:24Z</time>
      </trkpt>
      <trkpt lat="46.53467" lon="5.20547">
        <ele>196</ele>
        <time>2022-09-01T06:52:30Z</time>
      </trkpt>
      <trkpt lat="46.53435" lon="5.20588">
        <ele>197.2</ele>
        <time>2022-09-01T06:52:36Z</time>
      </trkpt>
      <trkpt lat="46.5343" lon="5.20594">
        <ele>197.4</ele>
        <time>2022-09-01T06:52:37Z</time>
      </trkpt>
      <trkpt lat="46.53409" lon="5.20632">
        <ele>198.6</ele>
        <time>2022-09-01T06:52:42Z</time>
      </trkpt>
      <trkpt lat="46.53402" lon="5.2065">
        <ele>198.8</ele>
        <time>2022-09-01T06:52:44Z</time>
      </trkpt>
      <trkpt lat="46.53402" lon="5.20659">
        <ele>199</ele>
        <time>2022-09-01T06:52:45Z</time>
      </trkpt>
      <trkpt lat="46.53404" lon="5.20667">
        <ele>199</ele>
        <time>2022-09-01T06:52:46Z</time>
      </trkpt>
      <trkpt lat="46.53413" lon="5.2068">
        <ele>199.2</ele>
        <time>2022-09-01T06:52:48Z</time>
      </trkpt>
      <trkpt lat="46.53435" lon="5.20703">
        <ele>199.6</ele>
        <time>2022-09-01T06:52:52Z</time>
      </trkpt>
      <trkpt lat="46.53444" lon="5.20714">
        <ele>199.8</ele>
        <time>2022-09-01T06:52:54Z</time>
      </trkpt>
      <trkpt lat="46.53467" lon="5.20739">
        <ele>200.6</ele>
        <time>2022-09-01T06:52:59Z</time>
      </trkpt>
      <trkpt lat="46.53486" lon="5.2076">
        <ele>200.8</ele>
        <time>2022-09-01T06:53:03Z</time>
      </trkpt>
      <trkpt lat="46.53509" lon="5.20783">
        <ele>201.4</ele>
        <time>2022-09-01T06:53:08Z</time>
      </trkpt>
      <trkpt lat="46.53514" lon="5.20787">
        <ele>201.8</ele>
        <time>2022-09-01T06:53:09Z</time>
      </trkpt>
      <trkpt lat="46.5352" lon="5.20791">
        <ele>202</ele>
        <time>2022-09-01T06:53:10Z</time>
      </trkpt>
      <trkpt lat="46.53536" lon="5.20803">
        <ele>202.6</ele>
        <time>2022-09-01T06:53:14Z</time>
      </trkpt>
      <trkpt lat="46.53564" lon="5.20826">
        <ele>203</ele>
        <time>2022-09-01T06:53:19Z</time>
      </trkpt>
      <trkpt lat="46.53569" lon="5.20832">
        <ele>203</ele>
        <time>2022-09-01T06:53:20Z</time>
      </trkpt>
      <trkpt lat="46.53572" lon="5.20839">
        <ele>203.2</ele>
        <time>2022-09-01T06:53:21Z</time>
      </trkpt>
      <trkpt lat="46.5358" lon="5.20863">
        <ele>203.4</ele>
        <time>2022-09-01T06:53:24Z</time>
      </trkpt>
      <trkpt lat="46.5359" lon="5.20915">
        <ele>203.4</ele>
        <time>2022-09-01T06:53:30Z</time>
      </trkpt>
      <trkpt lat="46.53592" lon="5.20971">
        <ele>203.6</ele>
        <time>2022-09-01T06:53:36Z</time>
      </trkpt>
      <trkpt lat="46.53591" lon="5.2101">
        <ele>203.6</ele>
        <time>2022-09-01T06:53:40Z</time>
      </trkpt>
      <trkpt lat="46.53591" lon="5.2102">
        <ele>203.6</ele>
        <time>2022-09-01T06:53:41Z</time>
      </trkpt>
      <trkpt lat="46.53595" lon="5.21038">
        <ele>203.6</ele>
        <time>2022-09-01T06:53:43Z</time>
      </trkpt>
      <trkpt lat="46.53613" lon="5.21079">
        <ele>203.6</ele>
        <time>2022-09-01T06:53:48Z</time>
      </trkpt>
      <trkpt lat="46.53633" lon="5.21107">
        <ele>204.2</ele>
        <time>2022-09-01T06:53:52Z</time>
      </trkpt>
      <trkpt lat="46.53639" lon="5.21112">
        <ele>204.2</ele>
        <time>2022-09-01T06:53:53Z</time>
      </trkpt>
      <trkpt lat="46.53684" lon="5.21157">
        <ele>204.6</ele>
        <time>2022-09-01T06:54:01Z</time>
      </trkpt>
      <trkpt lat="46.53696" lon="5.21169">
        <ele>204.8</ele>
        <time>2022-09-01T06:54:03Z</time>
      </trkpt>
      <trkpt lat="46.53733" lon="5.21213">
        <ele>205.4</ele>
        <time>2022-09-01T06:54:10Z</time>
      </trkpt>
      <trkpt lat="46.53738" lon="5.21219">
        <ele>205.4</ele>
        <time>2022-09-01T06:54:11Z</time>
      </trkpt>
      <trkpt lat="46.5377" lon="5.21258">
        <ele>205.4</ele>
        <time>2022-09-01T06:54:17Z</time>
      </trkpt>
      <trkpt lat="46.53798" lon="5.21299">
        <ele>205.2</ele>
        <time>2022-09-01T06:54:23Z</time>
      </trkpt>
      <trkpt lat="46.53838" lon="5.21363">
        <ele>205.2</ele>
        <time>2022-09-01T06:54:31Z</time>
      </trkpt>
      <trkpt lat="46.5388" lon="5.21429">
        <ele>204.8</ele>
        <time>2022-09-01T06:54:39Z</time>
      </trkpt>
      <trkpt lat="46.5389" lon="5.21446">
        <ele>204.4</ele>
        <time>2022-09-01T06:54:41Z</time>
      </trkpt>
      <trkpt lat="46.53923" lon="5.21492">
        <ele>203.8</ele>
        <time>2022-09-01T06:54:47Z</time>
      </trkpt>
      <trkpt lat="46.53929" lon="5.21499">
        <ele>203.8</ele>
        <time>2022-09-01T06:54:48Z</time>
      </trkpt>
      <trkpt lat="46.53942" lon="5.21511">
        <ele>203.8</ele>
        <time>2022-09-01T06:54:50Z</time>
      </trkpt>
      <trkpt lat="46.53953" lon="5.21525">
        <ele>203.8</ele>
        <time>2022-09-01T06:54:52Z</time>
      </trkpt>
      <trkpt lat="46.53959" lon="5.21531">
        <ele>203.8</ele>
        <time>2022-09-01T06:54:53Z</time>
      </trkpt>
      <trkpt lat="46.53972" lon="5.21543">
        <ele>203.6</ele>
        <time>2022-09-01T06:54:55Z</time>
      </trkpt>
      <trkpt lat="46.54018" lon="5.21587">
        <ele>203</ele>
        <time>2022-09-01T06:55:02Z</time>
      </trkpt>
      <trkpt lat="46.54025" lon="5.21594">
        <ele>203</ele>
        <time>2022-09-01T06:55:03Z</time>
      </trkpt>
      <trkpt lat="46.54051" lon="5.21619">
        <ele>202.6</ele>
        <time>2022-09-01T06:55:07Z</time>
      </trkpt>
      <trkpt lat="46.54082" lon="5.21649">
        <ele>202</ele>
        <time>2022-09-01T06:55:12Z</time>
      </trkpt>
      <trkpt lat="46.54104" lon="5.21678">
        <ele>201.8</ele>
        <time>2022-09-01T06:55:16Z</time>
      </trkpt>
      <trkpt lat="46.54112" lon="5.21695">
        <ele>201.8</ele>
        <time>2022-09-01T06:55:18Z</time>
      </trkpt>
      <trkpt lat="46.54132" lon="5.21762">
        <ele>202.2</ele>
        <time>2022-09-01T06:55:25Z</time>
      </trkpt>
      <trkpt lat="46.54148" lon="5.21819">
        <ele>203</ele>
        <time>2022-09-01T06:55:31Z</time>
      </trkpt>
      <trkpt lat="46.54156" lon="5.21857">
        <ele>203.2</ele>
        <time>2022-09-01T06:55:35Z</time>
      </trkpt>
      <trkpt lat="46.54159" lon="5.21866">
        <ele>203.2</ele>
        <time>2022-09-01T06:55:36Z</time>
      </trkpt>
      <trkpt lat="46.54178" lon="5.21916">
        <ele>203.2</ele>
        <time>2022-09-01T06:55:41Z</time>
      </trkpt>
      <trkpt lat="46.5421" lon="5.21984">
        <ele>202.6</ele>
        <time>2022-09-01T06:55:48Z</time>
      </trkpt>
      <trkpt lat="46.54214" lon="5.21992">
        <ele>202.4</ele>
        <time>2022-09-01T06:55:49Z</time>
      </trkpt>
      <trkpt lat="46.54243" lon="5.22054">
        <ele>201</ele>
        <time>2022-09-01T06:55:55Z</time>
      </trkpt>
      <trkpt lat="46.54255" lon="5.22078">
        <ele>200.6</ele>
        <time>2022-09-01T06:55:57Z</time>
      </trkpt>
      <trkpt lat="46.54264" lon="5.22097">
        <ele>200</ele>
        <time>2022-09-01T06:55:59Z</time>
      </trkpt>
      <trkpt lat="46.54277" lon="5.22133">
        <ele>199.4</ele>
        <time>2022-09-01T06:56:02Z</time>
      </trkpt>
      <trkpt lat="46.54279" lon="5.22145">
        <ele>199.2</ele>
        <time>2022-09-01T06:56:03Z</time>
      </trkpt>
      <trkpt lat="46.5428" lon="5.22158">
        <ele>199</ele>
        <time>2022-09-01T06:56:04Z</time>
      </trkpt>
      <trkpt lat="46.5428" lon="5.2217">
        <ele>199</ele>
        <time>2022-09-01T06:56:05Z</time>
      </trkpt>
      <trkpt lat="46.54279" lon="5.22194">
        <ele>198.6</ele>
        <time>2022-09-01T06:56:07Z</time>
      </trkpt>
      <trkpt lat="46.54275" lon="5.22285">
        <ele>198.2</ele>
        <time>2022-09-01T06:56:15Z</time>
      </trkpt>
      <trkpt lat="46.54274" lon="5.22295">
        <ele>198.2</ele>
        <time>2022-09-01T06:56:16Z</time>
      </trkpt>
      <trkpt lat="46.54274" lon="5.22315">
        <ele>198.4</ele>
        <time>2022-09-01T06:56:18Z</time>
      </trkpt>
      <trkpt lat="46.54273" lon="5.22342">
        <ele>198.4</ele>
        <time>2022-09-01T06:56:21Z</time>
      </trkpt>
      <trkpt lat="46.54272" lon="5.22353">
        <ele>198.6</ele>
        <time>2022-09-01T06:56:22Z</time>
      </trkpt>
      <trkpt lat="46.54269" lon="5.22378">
        <ele>199.2</ele>
        <time>2022-09-01T06:56:25Z</time>
      </trkpt>
      <trkpt lat="46.54269" lon="5.22386">
        <ele>199.4</ele>
        <time>2022-09-01T06:56:26Z</time>
      </trkpt>
      <trkpt lat="46.54268" lon="5.22413">
        <ele>200.2</ele>
        <time>2022-09-01T06:56:29Z</time>
      </trkpt>
      <trkpt lat="46.54267" lon="5.22429">
        <ele>200.8</ele>
        <time>2022-09-01T06:56:31Z</time>
      </trkpt>
      <trkpt lat="46.54267" lon="5.22437">
        <ele>201.2</ele>
        <time>2022-09-01T06:56:32Z</time>
      </trkpt>
      <trkpt lat="46.54266" lon="5.22443">
        <ele>201.4</ele>
        <time>2022-09-01T06:56:33Z</time>
      </trkpt>
      <trkpt lat="46.54266" lon="5.22468">
        <ele>202.4</ele>
        <time>2022-09-01T06:56:36Z</time>
      </trkpt>
      <trkpt lat="46.54266" lon="5.22477">
        <ele>202.4</ele>
        <time>2022-09-01T06:56:37Z</time>
      </trkpt>
      <trkpt lat="46.54267" lon="5.22502">
        <ele>203.4</ele>
        <time>2022-09-01T06:56:40Z</time>
      </trkpt>
      <trkpt lat="46.54268" lon="5.22509">
        <ele>203.6</ele>
        <time>2022-09-01T06:56:41Z</time>
      </trkpt>
      <trkpt lat="46.54269" lon="5.22517">
        <ele>203.8</ele>
        <time>2022-09-01T06:56:42Z</time>
      </trkpt>
      <trkpt lat="46.54272" lon="5.22528">
        <ele>204</ele>
        <time>2022-09-01T06:56:43Z</time>
      </trkpt>
      <trkpt lat="46.54279" lon="5.22542">
        <ele>204.2</ele>
        <time>2022-09-01T06:56:45Z</time>
      </trkpt>
      <trkpt lat="46.54284" lon="5.22549">
        <ele>204.4</ele>
        <time>2022-09-01T06:56:46Z</time>
      </trkpt>
      <trkpt lat="46.54289" lon="5.22555">
        <ele>204.6</ele>
        <time>2022-09-01T06:56:47Z</time>
      </trkpt>
      <trkpt lat="46.54294" lon="5.2256">
        <ele>204.8</ele>
        <time>2022-09-01T06:56:48Z</time>
      </trkpt>
      <trkpt lat="46.54316" lon="5.22581">
        <ele>205</ele>
        <time>2022-09-01T06:56:52Z</time>
      </trkpt>
      <trkpt lat="46.54363" lon="5.22625">
        <ele>205</ele>
        <time>2022-09-01T06:57:00Z</time>
      </trkpt>
      <trkpt lat="46.54374" lon="5.22637">
        <ele>204.8</ele>
        <time>2022-09-01T06:57:02Z</time>
      </trkpt>
      <trkpt lat="46.5442" lon="5.22682">
        <ele>204.6</ele>
        <time>2022-09-01T06:57:10Z</time>
      </trkpt>
      <trkpt lat="46.54434" lon="5.22695">
        <ele>204.6</ele>
        <time>2022-09-01T06:57:13Z</time>
      </trkpt>
      <trkpt lat="46.54469" lon="5.22739">
        <ele>205.2</ele>
        <time>2022-09-01T06:57:20Z</time>
      </trkpt>
      <trkpt lat="46.54497" lon="5.22791">
        <ele>205.8</ele>
        <time>2022-09-01T06:57:27Z</time>
      </trkpt>
      <trkpt lat="46.54505" lon="5.22808">
        <ele>206</ele>
        <time>2022-09-01T06:57:29Z</time>
      </trkpt>
      <trkpt lat="46.54526" lon="5.22845">
        <ele>206</ele>
        <time>2022-09-01T06:57:34Z</time>
      </trkpt>
      <trkpt lat="46.54538" lon="5.22855">
        <ele>206</ele>
        <time>2022-09-01T06:57:36Z</time>
      </trkpt>
      <trkpt lat="46.54583" lon="5.2288">
        <ele>206.4</ele>
        <time>2022-09-01T06:57:43Z</time>
      </trkpt>
      <trkpt lat="46.54638" lon="5.22909">
        <ele>206.4</ele>
        <time>2022-09-01T06:57:51Z</time>
      </trkpt>
      <trkpt lat="46.54692" lon="5.22937">
        <ele>205.8</ele>
        <time>2022-09-01T06:57:58Z</time>
      </trkpt>
      <trkpt lat="46.54728" lon="5.22965">
        <ele>205</ele>
        <time>2022-09-01T06:58:03Z</time>
      </trkpt>
      <trkpt lat="46.54735" lon="5.22972">
        <ele>204.8</ele>
        <time>2022-09-01T06:58:04Z</time>
      </trkpt>
      <trkpt lat="46.54781" lon="5.23018">
        <ele>204</ele>
        <time>2022-09-01T06:58:11Z</time>
      </trkpt>
      <trkpt lat="46.54831" lon="5.23067">
        <ele>204.2</ele>
        <time>2022-09-01T06:58:19Z</time>
      </trkpt>
      <trkpt lat="46.54873" lon="5.23108">
        <ele>203.8</ele>
        <time>2022-09-01T06:58:25Z</time>
      </trkpt>
      <trkpt lat="46.54881" lon="5.23116">
        <ele>203.6</ele>
        <time>2022-09-01T06:58:26Z</time>
      </trkpt>
      <trkpt lat="46.5492" lon="5.23155">
        <ele>202.4</ele>
        <time>2022-09-01T06:58:31Z</time>
      </trkpt>
      <trkpt lat="46.54928" lon="5.23163">
        <ele>201.8</ele>
        <time>2022-09-01T06:58:32Z</time>
      </trkpt>
      <trkpt lat="46.54944" lon="5.23179">
        <ele>201</ele>
        <time>2022-09-01T06:58:34Z</time>
      </trkpt>
      <trkpt lat="46.54961" lon="5.23197">
        <ele>199.6</ele>
        <time>2022-09-01T06:58:36Z</time>
      </trkpt>
      <trkpt lat="46.54977" lon="5.23216">
        <ele>198.6</ele>
        <time>2022-09-01T06:58:38Z</time>
      </trkpt>
      <trkpt lat="46.5499" lon="5.23241">
        <ele>197.8</ele>
        <time>2022-09-01T06:58:40Z</time>
      </trkpt>
      <trkpt lat="46.54995" lon="5.23254">
        <ele>197.2</ele>
        <time>2022-09-01T06:58:41Z</time>
      </trkpt>
      <trkpt lat="46.55003" lon="5.23282">
        <ele>196.2</ele>
        <time>2022-09-01T06:58:43Z</time>
      </trkpt>
      <trkpt lat="46.55011" lon="5.23309">
        <ele>195</ele>
        <time>2022-09-01T06:58:45Z</time>
      </trkpt>
      <trkpt lat="46.55019" lon="5.23337">
        <ele>193.8</ele>
        <time>2022-09-01T06:58:47Z</time>
      </trkpt>
      <trkpt lat="46.55032" lon="5.23376">
        <ele>192.6</ele>
        <time>2022-09-01T06:58:50Z</time>
      </trkpt>
      <trkpt lat="46.55037" lon="5.23388">
        <ele>192.4</ele>
        <time>2022-09-01T06:58:51Z</time>
      </trkpt>
      <trkpt lat="46.55042" lon="5.23399">
        <ele>192.4</ele>
        <time>2022-09-01T06:58:52Z</time>
      </trkpt>
      <trkpt lat="46.55048" lon="5.23409">
        <ele>191.8</ele>
        <time>2022-09-01T06:58:53Z</time>
      </trkpt>
      <trkpt lat="46.55061" lon="5.23426">
        <ele>191.6</ele>
        <time>2022-09-01T06:58:55Z</time>
      </trkpt>
      <trkpt lat="46.55067" lon="5.23434">
        <ele>191.6</ele>
        <time>2022-09-01T06:58:56Z</time>
      </trkpt>
      <trkpt lat="46.55104" lon="5.23479">
        <ele>191.8</ele>
        <time>2022-09-01T06:59:02Z</time>
      </trkpt>
      <trkpt lat="46.55135" lon="5.23509">
        <ele>192</ele>
        <time>2022-09-01T06:59:07Z</time>
      </trkpt>
      <trkpt lat="46.55184" lon="5.23548">
        <ele>192.2</ele>
        <time>2022-09-01T06:59:14Z</time>
      </trkpt>
      <trkpt lat="46.55191" lon="5.23553">
        <ele>192.2</ele>
        <time>2022-09-01T06:59:15Z</time>
      </trkpt>
      <trkpt lat="46.55239" lon="5.23593">
        <ele>192.6</ele>
        <time>2022-09-01T06:59:22Z</time>
      </trkpt>
      <trkpt lat="46.55246" lon="5.23599">
        <ele>192.4</ele>
        <time>2022-09-01T06:59:23Z</time>
      </trkpt>
      <trkpt lat="46.55295" lon="5.23639">
        <ele>192.2</ele>
        <time>2022-09-01T06:59:30Z</time>
      </trkpt>
      <trkpt lat="46.55308" lon="5.2365">
        <ele>192.2</ele>
        <time>2022-09-01T06:59:32Z</time>
      </trkpt>
      <trkpt lat="46.55356" lon="5.23686">
        <ele>192.2</ele>
        <time>2022-09-01T06:59:39Z</time>
      </trkpt>
      <trkpt lat="46.55371" lon="5.23697">
        <ele>192.2</ele>
        <time>2022-09-01T06:59:41Z</time>
      </trkpt>
      <trkpt lat="46.55425" lon="5.23736">
        <ele>192.2</ele>
        <time>2022-09-01T06:59:49Z</time>
      </trkpt>
      <trkpt lat="46.55439" lon="5.23746">
        <ele>192.6</ele>
        <time>2022-09-01T06:59:51Z</time>
      </trkpt>
      <trkpt lat="46.55463" lon="5.23762">
        <ele>193</ele>
        <time>2022-09-01T06:59:55Z</time>
      </trkpt>
      <trkpt lat="46.55467" lon="5.23765">
        <ele>193</ele>
        <time>2022-09-01T06:59:56Z</time>
      </trkpt>
      <trkpt lat="46.55499" lon="5.23788">
        <ele>193.8</ele>
        <time>2022-09-01T07:00:02Z</time>
      </trkpt>
      <trkpt lat="46.55508" lon="5.23795">
        <ele>193.8</ele>
        <time>2022-09-01T07:00:04Z</time>
      </trkpt>
      <trkpt lat="46.55521" lon="5.23803">
        <ele>195.4</ele>
        <time>2022-09-01T07:00:07Z</time>
      </trkpt>
      <trkpt lat="46.55525" lon="5.23806">
        <ele>195.6</ele>
        <time>2022-09-01T07:00:08Z</time>
      </trkpt>
      <trkpt lat="46.5553" lon="5.23808">
        <ele>195.8</ele>
        <time>2022-09-01T07:00:09Z</time>
      </trkpt>
      <trkpt lat="46.55545" lon="5.23813">
        <ele>196</ele>
        <time>2022-09-01T07:00:12Z</time>
      </trkpt>
      <trkpt lat="46.5555" lon="5.23816">
        <ele>196.4</ele>
        <time>2022-09-01T07:00:13Z</time>
      </trkpt>
      <trkpt lat="46.55564" lon="5.23819">
        <ele>197.8</ele>
        <time>2022-09-01T07:00:16Z</time>
      </trkpt>
      <trkpt lat="46.55569" lon="5.2382">
        <ele>198.2</ele>
        <time>2022-09-01T07:00:17Z</time>
      </trkpt>
      <trkpt lat="46.55578" lon="5.2382">
        <ele>199.2</ele>
        <time>2022-09-01T07:00:19Z</time>
      </trkpt>
      <trkpt lat="46.55591" lon="5.23821">
        <ele>199.8</ele>
        <time>2022-09-01T07:00:22Z</time>
      </trkpt>
      <trkpt lat="46.55604" lon="5.2382">
        <ele>200.6</ele>
        <time>2022-09-01T07:00:25Z</time>
      </trkpt>
      <trkpt lat="46.55611" lon="5.23819">
        <ele>201.2</ele>
        <time>2022-09-01T07:00:27Z</time>
      </trkpt>
      <trkpt lat="46.55627" lon="5.23819">
        <ele>202</ele>
        <time>2022-09-01T07:00:30Z</time>
      </trkpt>
      <trkpt lat="46.55637" lon="5.2382">
        <ele>202.4</ele>
        <time>2022-09-01T07:00:32Z</time>
      </trkpt>
      <trkpt lat="46.55644" lon="5.2382">
        <ele>203</ele>
        <time>2022-09-01T07:00:34Z</time>
      </trkpt>
      <trkpt lat="46.55658" lon="5.23818">
        <ele>204</ele>
        <time>2022-09-01T07:00:37Z</time>
      </trkpt>
      <trkpt lat="46.55661" lon="5.23818">
        <ele>204.2</ele>
        <time>2022-09-01T07:00:38Z</time>
      </trkpt>
      <trkpt lat="46.55675" lon="5.23817">
        <ele>205.2</ele>
        <time>2022-09-01T07:00:41Z</time>
      </trkpt>
      <trkpt lat="46.55682" lon="5.23818">
        <ele>205.6</ele>
        <time>2022-09-01T07:00:43Z</time>
      </trkpt>
      <trkpt lat="46.557" lon="5.23821">
        <ele>205.8</ele>
        <time>2022-09-01T07:00:46Z</time>
      </trkpt>
      <trkpt lat="46.55706" lon="5.23822">
        <ele>206</ele>
        <time>2022-09-01T07:00:47Z</time>
      </trkpt>
      <trkpt lat="46.55712" lon="5.23824">
        <ele>206.2</ele>
        <time>2022-09-01T07:00:48Z</time>
      </trkpt>
      <trkpt lat="46.55724" lon="5.23827">
        <ele>206.6</ele>
        <time>2022-09-01T07:00:50Z</time>
      </trkpt>
      <trkpt lat="46.55735" lon="5.23835">
        <ele>206.8</ele>
        <time>2022-09-01T07:00:52Z</time>
      </trkpt>
      <trkpt lat="46.55742" lon="5.23841">
        <ele>206.8</ele>
        <time>2022-09-01T07:00:53Z</time>
      </trkpt>
      <trkpt lat="46.55753" lon="5.23851">
        <ele>207</ele>
        <time>2022-09-01T07:00:55Z</time>
      </trkpt>
      <trkpt lat="46.55764" lon="5.23858">
        <ele>207.2</ele>
        <time>2022-09-01T07:00:57Z</time>
      </trkpt>
      <trkpt lat="46.55784" lon="5.23871">
        <ele>207.4</ele>
        <time>2022-09-01T07:01:00Z</time>
      </trkpt>
      <trkpt lat="46.55789" lon="5.23874">
        <ele>207.4</ele>
        <time>2022-09-01T07:01:01Z</time>
      </trkpt>
      <trkpt lat="46.55828" lon="5.23903">
        <ele>207.4</ele>
        <time>2022-09-01T07:01:07Z</time>
      </trkpt>
      <trkpt lat="46.55851" lon="5.23921">
        <ele>207.4</ele>
        <time>2022-09-01T07:01:11Z</time>
      </trkpt>
      <trkpt lat="46.55857" lon="5.23927">
        <ele>207.4</ele>
        <time>2022-09-01T07:01:12Z</time>
      </trkpt>
      <trkpt lat="46.55876" lon="5.23957">
        <ele>207.4</ele>
        <time>2022-09-01T07:01:16Z</time>
      </trkpt>
      <trkpt lat="46.55878" lon="5.23963">
        <ele>207.4</ele>
        <time>2022-09-01T07:01:17Z</time>
      </trkpt>
      <trkpt lat="46.5588" lon="5.23971">
        <ele>207.4</ele>
        <time>2022-09-01T07:01:18Z</time>
      </trkpt>
      <trkpt lat="46.55883" lon="5.23989">
        <ele>207.4</ele>
        <time>2022-09-01T07:01:20Z</time>
      </trkpt>
      <trkpt lat="46.55896" lon="5.24029">
        <ele>207.4</ele>
        <time>2022-09-01T07:01:24Z</time>
      </trkpt>
      <trkpt lat="46.559" lon="5.24038">
        <ele>207.6</ele>
        <time>2022-09-01T07:01:25Z</time>
      </trkpt>
      <trkpt lat="46.55902" lon="5.24048">
        <ele>207.6</ele>
        <time>2022-09-01T07:01:26Z</time>
      </trkpt>
      <trkpt lat="46.5591" lon="5.24077">
        <ele>207.6</ele>
        <time>2022-09-01T07:01:29Z</time>
      </trkpt>
      <trkpt lat="46.55916" lon="5.24096">
        <ele>207.6</ele>
        <time>2022-09-01T07:01:31Z</time>
      </trkpt>
      <trkpt lat="46.55924" lon="5.24125">
        <ele>207.4</ele>
        <time>2022-09-01T07:01:34Z</time>
      </trkpt>
      <trkpt lat="46.55943" lon="5.24184">
        <ele>207.4</ele>
        <time>2022-09-01T07:01:40Z</time>
      </trkpt>
      <trkpt lat="46.55951" lon="5.24245">
        <ele>207.4</ele>
        <time>2022-09-01T07:01:46Z</time>
      </trkpt>
      <trkpt lat="46.55956" lon="5.24287">
        <ele>206.6</ele>
        <time>2022-09-01T07:01:51Z</time>
      </trkpt>
      <trkpt lat="46.55958" lon="5.24293">
        <ele>206.6</ele>
        <time>2022-09-01T07:01:52Z</time>
      </trkpt>
      <trkpt lat="46.55961" lon="5.24298">
        <ele>206.4</ele>
        <time>2022-09-01T07:01:53Z</time>
      </trkpt>
      <trkpt lat="46.55971" lon="5.24305">
        <ele>206.2</ele>
        <time>2022-09-01T07:01:55Z</time>
      </trkpt>
      <trkpt lat="46.55997" lon="5.24312">
        <ele>206</ele>
        <time>2022-09-01T07:01:59Z</time>
      </trkpt>
      <trkpt lat="46.56005" lon="5.24313">
        <ele>206</ele>
        <time>2022-09-01T07:02:00Z</time>
      </trkpt>
      <trkpt lat="46.56049" lon="5.24326">
        <ele>206.2</ele>
        <time>2022-09-01T07:02:06Z</time>
      </trkpt>
      <trkpt lat="46.56063" lon="5.24331">
        <ele>206.4</ele>
        <time>2022-09-01T07:02:08Z</time>
      </trkpt>
      <trkpt lat="46.56106" lon="5.24345">
        <ele>207</ele>
        <time>2022-09-01T07:02:14Z</time>
      </trkpt>
      <trkpt lat="46.5612" lon="5.2435">
        <ele>207.2</ele>
        <time>2022-09-01T07:02:16Z</time>
      </trkpt>
      <trkpt lat="46.56176" lon="5.24369">
        <ele>207.2</ele>
        <time>2022-09-01T07:02:24Z</time>
      </trkpt>
      <trkpt lat="46.5619" lon="5.24374">
        <ele>207.2</ele>
        <time>2022-09-01T07:02:26Z</time>
      </trkpt>
      <trkpt lat="46.56247" lon="5.24393">
        <ele>207.4</ele>
        <time>2022-09-01T07:02:34Z</time>
      </trkpt>
      <trkpt lat="46.56262" lon="5.24398">
        <ele>207.4</ele>
        <time>2022-09-01T07:02:36Z</time>
      </trkpt>
      <trkpt lat="46.56318" lon="5.24418">
        <ele>207.8</ele>
        <time>2022-09-01T07:02:44Z</time>
      </trkpt>
      <trkpt lat="46.56378" lon="5.24439">
        <ele>207.2</ele>
        <time>2022-09-01T07:02:52Z</time>
      </trkpt>
      <trkpt lat="46.56412" lon="5.2445">
        <ele>206.6</ele>
        <time>2022-09-01T07:02:56Z</time>
      </trkpt>
      <trkpt lat="46.56445" lon="5.24461">
        <ele>205.8</ele>
        <time>2022-09-01T07:03:00Z</time>
      </trkpt>
      <trkpt lat="46.5648" lon="5.24473">
        <ele>204.8</ele>
        <time>2022-09-01T07:03:04Z</time>
      </trkpt>
      <trkpt lat="46.56523" lon="5.24489">
        <ele>203.6</ele>
        <time>2022-09-01T07:03:09Z</time>
      </trkpt>
      <trkpt lat="46.56539" lon="5.24495">
        <ele>203.4</ele>
        <time>2022-09-01T07:03:11Z</time>
      </trkpt>
      <trkpt lat="46.56585" lon="5.2451">
        <ele>202.6</ele>
        <time>2022-09-01T07:03:16Z</time>
      </trkpt>
      <trkpt lat="46.56611" lon="5.24519">
        <ele>202</ele>
        <time>2022-09-01T07:03:19Z</time>
      </trkpt>
      <trkpt lat="46.56638" lon="5.24528">
        <ele>201.4</ele>
        <time>2022-09-01T07:03:22Z</time>
      </trkpt>
      <trkpt lat="46.56674" lon="5.24541">
        <ele>200.2</ele>
        <time>2022-09-01T07:03:26Z</time>
      </trkpt>
      <trkpt lat="46.56694" lon="5.24548">
        <ele>199.4</ele>
        <time>2022-09-01T07:03:28Z</time>
      </trkpt>
      <trkpt lat="46.56717" lon="5.24556">
        <ele>198.8</ele>
        <time>2022-09-01T07:03:30Z</time>
      </trkpt>
      <trkpt lat="46.56745" lon="5.24566">
        <ele>197.2</ele>
        <time>2022-09-01T07:03:33Z</time>
      </trkpt>
      <trkpt lat="46.56768" lon="5.24573">
        <ele>196.4</ele>
        <time>2022-09-01T07:03:35Z</time>
      </trkpt>
      <trkpt lat="46.56778" lon="5.24577">
        <ele>196.2</ele>
        <time>2022-09-01T07:03:36Z</time>
      </trkpt>
      <trkpt lat="46.56808" lon="5.24588">
        <ele>195</ele>
        <time>2022-09-01T07:03:39Z</time>
      </trkpt>
      <trkpt lat="46.56837" lon="5.24598">
        <ele>193.8</ele>
        <time>2022-09-01T07:03:42Z</time>
      </trkpt>
      <trkpt lat="46.56873" lon="5.24611">
        <ele>192.8</ele>
        <time>2022-09-01T07:03:46Z</time>
      </trkpt>
      <trkpt lat="46.56927" lon="5.24628">
        <ele>191.8</ele>
        <time>2022-09-01T07:03:52Z</time>
      </trkpt>
      <trkpt lat="46.56948" lon="5.24635">
        <ele>191.2</ele>
        <time>2022-09-01T07:03:54Z</time>
      </trkpt>
      <trkpt lat="46.56985" lon="5.24648">
        <ele>190.8</ele>
        <time>2022-09-01T07:03:58Z</time>
      </trkpt>
      <trkpt lat="46.57031" lon="5.24663">
        <ele>189.6</ele>
        <time>2022-09-01T07:04:03Z</time>
      </trkpt>
      <trkpt lat="46.57076" lon="5.24679">
        <ele>188</ele>
        <time>2022-09-01T07:04:08Z</time>
      </trkpt>
      <trkpt lat="46.57094" lon="5.24686">
        <ele>187.6</ele>
        <time>2022-09-01T07:04:10Z</time>
      </trkpt>
      <trkpt lat="46.5714" lon="5.24695">
        <ele>186.8</ele>
        <time>2022-09-01T07:04:15Z</time>
      </trkpt>
      <trkpt lat="46.57149" lon="5.24695">
        <ele>186.8</ele>
        <time>2022-09-01T07:04:16Z</time>
      </trkpt>
      <trkpt lat="46.57184" lon="5.24683">
        <ele>186</ele>
        <time>2022-09-01T07:04:20Z</time>
      </trkpt>
      <trkpt lat="46.57192" lon="5.2468">
        <ele>185.8</ele>
        <time>2022-09-01T07:04:21Z</time>
      </trkpt>
      <trkpt lat="46.57226" lon="5.24666">
        <ele>184.8</ele>
        <time>2022-09-01T07:04:25Z</time>
      </trkpt>
      <trkpt lat="46.57259" lon="5.24655">
        <ele>183.6</ele>
        <time>2022-09-01T07:04:29Z</time>
      </trkpt>
      <trkpt lat="46.57267" lon="5.24653">
        <ele>183.6</ele>
        <time>2022-09-01T07:04:30Z</time>
      </trkpt>
      <trkpt lat="46.5728" lon="5.24659">
        <ele>183.4</ele>
        <time>2022-09-01T07:04:32Z</time>
      </trkpt>
      <trkpt lat="46.57289" lon="5.24677">
        <ele>183.2</ele>
        <time>2022-09-01T07:04:34Z</time>
      </trkpt>
      <trkpt lat="46.57292" lon="5.24688">
        <ele>183.2</ele>
        <time>2022-09-01T07:04:35Z</time>
      </trkpt>
      <trkpt lat="46.57299" lon="5.24709">
        <ele>183</ele>
        <time>2022-09-01T07:04:37Z</time>
      </trkpt>
      <trkpt lat="46.57311" lon="5.24726">
        <ele>182.8</ele>
        <time>2022-09-01T07:04:39Z</time>
      </trkpt>
      <trkpt lat="46.57357" lon="5.24772">
        <ele>182.6</ele>
        <time>2022-09-01T07:04:46Z</time>
      </trkpt>
      <trkpt lat="46.57369" lon="5.24785">
        <ele>182.8</ele>
        <time>2022-09-01T07:04:48Z</time>
      </trkpt>
      <trkpt lat="46.5738" lon="5.24802">
        <ele>183</ele>
        <time>2022-09-01T07:04:50Z</time>
      </trkpt>
      <trkpt lat="46.57389" lon="5.24821">
        <ele>183</ele>
        <time>2022-09-01T07:04:52Z</time>
      </trkpt>
      <trkpt lat="46.57418" lon="5.24886">
        <ele>183.2</ele>
        <time>2022-09-01T07:04:59Z</time>
      </trkpt>
      <trkpt lat="46.57448" lon="5.24946">
        <ele>183.4</ele>
        <time>2022-09-01T07:05:06Z</time>
      </trkpt>
      <trkpt lat="46.57477" lon="5.25015">
        <ele>183.4</ele>
        <time>2022-09-01T07:05:14Z</time>
      </trkpt>
      <trkpt lat="46.57481" lon="5.25024">
        <ele>183.4</ele>
        <time>2022-09-01T07:05:15Z</time>
      </trkpt>
      <trkpt lat="46.57513" lon="5.2509">
        <ele>183.6</ele>
        <time>2022-09-01T07:05:23Z</time>
      </trkpt>
      <trkpt lat="46.57518" lon="5.25097">
        <ele>183.6</ele>
        <time>2022-09-01T07:05:24Z</time>
      </trkpt>
      <trkpt lat="46.57539" lon="5.25122">
        <ele>183.8</ele>
        <time>2022-09-01T07:05:28Z</time>
      </trkpt>
      <trkpt lat="46.57545" lon="5.25126">
        <ele>184</ele>
        <time>2022-09-01T07:05:29Z</time>
      </trkpt>
      <trkpt lat="46.57581" lon="5.25144">
        <ele>184.8</ele>
        <time>2022-09-01T07:05:35Z</time>
      </trkpt>
      <trkpt lat="46.57587" lon="5.25145">
        <ele>184.8</ele>
        <time>2022-09-01T07:05:36Z</time>
      </trkpt>
      <trkpt lat="46.57604" lon="5.25145">
        <ele>185.6</ele>
        <time>2022-09-01T07:05:40Z</time>
      </trkpt>
      <trkpt lat="46.57614" lon="5.25143">
        <ele>185.8</ele>
        <time>2022-09-01T07:05:41Z</time>
      </trkpt>
      <trkpt lat="46.57641" lon="5.25132">
        <ele>187</ele>
        <time>2022-09-01T07:05:45Z</time>
      </trkpt>
      <trkpt lat="46.57669" lon="5.25116">
        <ele>188</ele>
        <time>2022-09-01T07:05:50Z</time>
      </trkpt>
      <trkpt lat="46.57679" lon="5.25109">
        <ele>188.2</ele>
        <time>2022-09-01T07:05:52Z</time>
      </trkpt>
      <trkpt lat="46.57705" lon="5.25099">
        <ele>189.2</ele>
        <time>2022-09-01T07:05:57Z</time>
      </trkpt>
      <trkpt lat="46.57718" lon="5.25097">
        <ele>189.4</ele>
        <time>2022-09-01T07:05:59Z</time>
      </trkpt>
      <trkpt lat="46.57754" lon="5.25095">
        <ele>190.2</ele>
        <time>2022-09-01T07:06:05Z</time>
      </trkpt>
      <trkpt lat="46.57774" lon="5.25096">
        <ele>191</ele>
        <time>2022-09-01T07:06:08Z</time>
      </trkpt>
      <trkpt lat="46.57794" lon="5.25098">
        <ele>191.4</ele>
        <time>2022-09-01T07:06:11Z</time>
      </trkpt>
      <trkpt lat="46.57829" lon="5.25099">
        <ele>191.8</ele>
        <time>2022-09-01T07:06:16Z</time>
      </trkpt>
      <trkpt lat="46.57881" lon="5.25101">
        <ele>191.2</ele>
        <time>2022-09-01T07:06:23Z</time>
      </trkpt>
      <trkpt lat="46.57939" lon="5.25097">
        <ele>190.4</ele>
        <time>2022-09-01T07:06:30Z</time>
      </trkpt>
      <trkpt lat="46.57947" lon="5.25095">
        <ele>189.8</ele>
        <time>2022-09-01T07:06:31Z</time>
      </trkpt>
      <trkpt lat="46.57955" lon="5.25094">
        <ele>189.6</ele>
        <time>2022-09-01T07:06:32Z</time>
      </trkpt>
      <trkpt lat="46.57961" lon="5.25097">
        <ele>189.2</ele>
        <time>2022-09-01T07:06:33Z</time>
      </trkpt>
      <trkpt lat="46.57967" lon="5.25101">
        <ele>188.8</ele>
        <time>2022-09-01T07:06:34Z</time>
      </trkpt>
      <trkpt lat="46.57969" lon="5.25114">
        <ele>188.2</ele>
        <time>2022-09-01T07:06:36Z</time>
      </trkpt>
      <trkpt lat="46.57964" lon="5.25121">
        <ele>188.2</ele>
        <time>2022-09-01T07:06:37Z</time>
      </trkpt>
      <trkpt lat="46.57956" lon="5.25126">
        <ele>188</ele>
        <time>2022-09-01T07:06:38Z</time>
      </trkpt>
      <trkpt lat="46.57948" lon="5.25129">
        <ele>187.8</ele>
        <time>2022-09-01T07:06:39Z</time>
      </trkpt>
      <trkpt lat="46.57938" lon="5.25128">
        <ele>187.6</ele>
        <time>2022-09-01T07:06:40Z</time>
      </trkpt>
      <trkpt lat="46.57931" lon="5.25128">
        <ele>187.2</ele>
        <time>2022-09-01T07:06:42Z</time>
      </trkpt>
      <trkpt lat="46.57883" lon="5.25124">
        <ele>186.4</ele>
        <time>2022-09-01T07:06:46Z</time>
      </trkpt>
      <trkpt lat="46.57874" lon="5.25123">
        <ele>186</ele>
        <time>2022-09-01T07:06:47Z</time>
      </trkpt>
      <trkpt lat="46.57865" lon="5.25123">
        <ele>185.8</ele>
        <time>2022-09-01T07:06:48Z</time>
      </trkpt>
      <trkpt lat="46.57839" lon="5.25125">
        <ele>185</ele>
        <time>2022-09-01T07:06:51Z</time>
      </trkpt>
      <trkpt lat="46.57831" lon="5.25127">
        <ele>185</ele>
        <time>2022-09-01T07:06:52Z</time>
      </trkpt>
      <trkpt lat="46.57814" lon="5.25134">
        <ele>184.8</ele>
        <time>2022-09-01T07:06:54Z</time>
      </trkpt>
      <trkpt lat="46.57807" lon="5.25139">
        <ele>184.8</ele>
        <time>2022-09-01T07:06:55Z</time>
      </trkpt>
      <trkpt lat="46.57755" lon="5.25181">
        <ele>184.8</ele>
        <time>2022-09-01T07:07:02Z</time>
      </trkpt>
      <trkpt lat="46.57709" lon="5.25221">
        <ele>185</ele>
        <time>2022-09-01T07:07:09Z</time>
      </trkpt>
      <trkpt lat="46.57702" lon="5.25227">
        <ele>185</ele>
        <time>2022-09-01T07:07:10Z</time>
      </trkpt>
      <trkpt lat="46.57653" lon="5.2527">
        <ele>185</ele>
        <time>2022-09-01T07:07:18Z</time>
      </trkpt>
      <trkpt lat="46.57606" lon="5.25308">
        <ele>185.6</ele>
        <time>2022-09-01T07:07:26Z</time>
      </trkpt>
      <trkpt lat="46.5758" lon="5.25332">
        <ele>186.4</ele>
        <time>2022-09-01T07:07:31Z</time>
      </trkpt>
      <trkpt lat="46.57576" lon="5.25338">
        <ele>186.6</ele>
        <time>2022-09-01T07:07:32Z</time>
      </trkpt>
      <trkpt lat="46.57569" lon="5.25354">
        <ele>187</ele>
        <time>2022-09-01T07:07:34Z</time>
      </trkpt>
      <trkpt lat="46.57567" lon="5.25362">
        <ele>187</ele>
        <time>2022-09-01T07:07:35Z</time>
      </trkpt>
      <trkpt lat="46.57565" lon="5.25371">
        <ele>187.2</ele>
        <time>2022-09-01T07:07:36Z</time>
      </trkpt>
      <trkpt lat="46.57566" lon="5.25399">
        <ele>187.4</ele>
        <time>2022-09-01T07:07:39Z</time>
      </trkpt>
      <trkpt lat="46.57566" lon="5.25408">
        <ele>187.6</ele>
        <time>2022-09-01T07:07:40Z</time>
      </trkpt>
      <trkpt lat="46.57568" lon="5.25456">
        <ele>188.2</ele>
        <time>2022-09-01T07:07:46Z</time>
      </trkpt>
      <trkpt lat="46.57569" lon="5.25463">
        <ele>188.6</ele>
        <time>2022-09-01T07:07:47Z</time>
      </trkpt>
      <trkpt lat="46.5757" lon="5.25484">
        <ele>189.6</ele>
        <time>2022-09-01T07:07:50Z</time>
      </trkpt>
      <trkpt lat="46.5757" lon="5.25504">
        <ele>190.6</ele>
        <time>2022-09-01T07:07:53Z</time>
      </trkpt>
      <trkpt lat="46.5757" lon="5.2551">
        <ele>191</ele>
        <time>2022-09-01T07:07:54Z</time>
      </trkpt>
      <trkpt lat="46.57571" lon="5.25536">
        <ele>192</ele>
        <time>2022-09-01T07:07:58Z</time>
      </trkpt>
      <trkpt lat="46.57573" lon="5.25555">
        <ele>193.2</ele>
        <time>2022-09-01T07:08:01Z</time>
      </trkpt>
      <trkpt lat="46.57574" lon="5.2556">
        <ele>193.6</ele>
        <time>2022-09-01T07:08:02Z</time>
      </trkpt>
      <trkpt lat="46.57576" lon="5.25571">
        <ele>194.4</ele>
        <time>2022-09-01T07:08:04Z</time>
      </trkpt>
      <trkpt lat="46.57576" lon="5.25576">
        <ele>194.6</ele>
        <time>2022-09-01T07:08:05Z</time>
      </trkpt>
      <trkpt lat="46.57576" lon="5.25582">
        <ele>195</ele>
        <time>2022-09-01T07:08:06Z</time>
      </trkpt>
      <trkpt lat="46.57575" lon="5.25588">
        <ele>195.4</ele>
        <time>2022-09-01T07:08:07Z</time>
      </trkpt>
      <trkpt lat="46.57569" lon="5.25606">
        <ele>196.4</ele>
        <time>2022-09-01T07:08:10Z</time>
      </trkpt>
      <trkpt lat="46.57567" lon="5.25611">
        <ele>197</ele>
        <time>2022-09-01T07:08:11Z</time>
      </trkpt>
      <trkpt lat="46.57562" lon="5.25626">
        <ele>197.6</ele>
        <time>2022-09-01T07:08:13Z</time>
      </trkpt>
      <trkpt lat="46.57556" lon="5.2564">
        <ele>198.2</ele>
        <time>2022-09-01T07:08:15Z</time>
      </trkpt>
      <trkpt lat="46.57552" lon="5.25653">
        <ele>198.8</ele>
        <time>2022-09-01T07:08:17Z</time>
      </trkpt>
      <trkpt lat="46.57533" lon="5.25702">
        <ele>199</ele>
        <time>2022-09-01T07:08:24Z</time>
      </trkpt>
      <trkpt lat="46.57512" lon="5.25761">
        <ele>199.4</ele>
        <time>2022-09-01T07:08:32Z</time>
      </trkpt>
      <trkpt lat="46.57498" lon="5.25807">
        <ele>199.8</ele>
        <time>2022-09-01T07:08:38Z</time>
      </trkpt>
      <trkpt lat="46.57495" lon="5.25822">
        <ele>200.2</ele>
        <time>2022-09-01T07:08:40Z</time>
      </trkpt>
      <trkpt lat="46.57481" lon="5.25896">
        <ele>200.6</ele>
        <time>2022-09-01T07:08:49Z</time>
      </trkpt>
      <trkpt lat="46.5748" lon="5.25906">
        <ele>200.8</ele>
        <time>2022-09-01T07:08:50Z</time>
      </trkpt>
      <trkpt lat="46.5747" lon="5.25957">
        <ele>201.6</ele>
        <time>2022-09-01T07:08:57Z</time>
      </trkpt>
      <trkpt lat="46.57466" lon="5.2597">
        <ele>202</ele>
        <time>2022-09-01T07:08:59Z</time>
      </trkpt>
      <trkpt lat="46.5746" lon="5.25985">
        <ele>202.6</ele>
        <time>2022-09-01T07:09:02Z</time>
      </trkpt>
      <trkpt lat="46.57455" lon="5.25996">
        <ele>203.2</ele>
        <time>2022-09-01T07:09:04Z</time>
      </trkpt>
      <trkpt lat="46.57445" lon="5.26011">
        <ele>204</ele>
        <time>2022-09-01T07:09:07Z</time>
      </trkpt>
      <trkpt lat="46.57441" lon="5.26016">
        <ele>204.2</ele>
        <time>2022-09-01T07:09:08Z</time>
      </trkpt>
      <trkpt lat="46.57437" lon="5.2602">
        <ele>204.6</ele>
        <time>2022-09-01T07:09:09Z</time>
      </trkpt>
      <trkpt lat="46.57429" lon="5.26029">
        <ele>205</ele>
        <time>2022-09-01T07:09:11Z</time>
      </trkpt>
      <trkpt lat="46.57423" lon="5.26036">
        <ele>205.2</ele>
        <time>2022-09-01T07:09:13Z</time>
      </trkpt>
      <trkpt lat="46.57418" lon="5.26041">
        <ele>205.4</ele>
        <time>2022-09-01T07:09:14Z</time>
      </trkpt>
      <trkpt lat="46.57389" lon="5.26068">
        <ele>206.4</ele>
        <time>2022-09-01T07:09:19Z</time>
      </trkpt>
      <trkpt lat="46.57344" lon="5.26117">
        <ele>207.4</ele>
        <time>2022-09-01T07:09:28Z</time>
      </trkpt>
      <trkpt lat="46.57339" lon="5.26122">
        <ele>207.4</ele>
        <time>2022-09-01T07:09:29Z</time>
      </trkpt>
      <trkpt lat="46.57323" lon="5.26138">
        <ele>207.4</ele>
        <time>2022-09-01T07:09:32Z</time>
      </trkpt>
      <trkpt lat="46.57285" lon="5.26179">
        <ele>208</ele>
        <time>2022-09-01T07:09:39Z</time>
      </trkpt>
      <trkpt lat="46.57237" lon="5.26231">
        <ele>207.2</ele>
        <time>2022-09-01T07:09:47Z</time>
      </trkpt>
      <trkpt lat="46.57217" lon="5.26254">
        <ele>206.6</ele>
        <time>2022-09-01T07:09:50Z</time>
      </trkpt>
      <trkpt lat="46.57202" lon="5.26269">
        <ele>206.2</ele>
        <time>2022-09-01T07:09:52Z</time>
      </trkpt>
      <trkpt lat="46.57162" lon="5.26309">
        <ele>204.4</ele>
        <time>2022-09-01T07:09:57Z</time>
      </trkpt>
      <trkpt lat="46.57146" lon="5.26326">
        <ele>203.4</ele>
        <time>2022-09-01T07:09:59Z</time>
      </trkpt>
      <trkpt lat="46.57138" lon="5.26335">
        <ele>202.8</ele>
        <time>2022-09-01T07:10:00Z</time>
      </trkpt>
      <trkpt lat="46.57122" lon="5.26353">
        <ele>201.8</ele>
        <time>2022-09-01T07:10:02Z</time>
      </trkpt>
      <trkpt lat="46.57108" lon="5.26371">
        <ele>200.6</ele>
        <time>2022-09-01T07:10:04Z</time>
      </trkpt>
      <trkpt lat="46.571" lon="5.26384">
        <ele>200.2</ele>
        <time>2022-09-01T07:10:05Z</time>
      </trkpt>
      <trkpt lat="46.57093" lon="5.26395">
        <ele>199.4</ele>
        <time>2022-09-01T07:10:06Z</time>
      </trkpt>
      <trkpt lat="46.57075" lon="5.26433">
        <ele>197.8</ele>
        <time>2022-09-01T07:10:09Z</time>
      </trkpt>
      <trkpt lat="46.57069" lon="5.26447">
        <ele>197.4</ele>
        <time>2022-09-01T07:10:10Z</time>
      </trkpt>
      <trkpt lat="46.57063" lon="5.2646">
        <ele>196.6</ele>
        <time>2022-09-01T07:10:11Z</time>
      </trkpt>
      <trkpt lat="46.57049" lon="5.26492">
        <ele>195.4</ele>
        <time>2022-09-01T07:10:14Z</time>
      </trkpt>
      <trkpt lat="46.57029" lon="5.26542">
        <ele>194.8</ele>
        <time>2022-09-01T07:10:18Z</time>
      </trkpt>
      <trkpt lat="46.57008" lon="5.26589">
        <ele>195.4</ele>
        <time>2022-09-01T07:10:23Z</time>
      </trkpt>
      <trkpt lat="46.56988" lon="5.26623">
        <ele>196.6</ele>
        <time>2022-09-01T07:10:28Z</time>
      </trkpt>
      <trkpt lat="46.56981" lon="5.26635">
        <ele>197.6</ele>
        <time>2022-09-01T07:10:30Z</time>
      </trkpt>
      <trkpt lat="46.56976" lon="5.26642">
        <ele>197.6</ele>
        <time>2022-09-01T07:10:31Z</time>
      </trkpt>
      <trkpt lat="46.56969" lon="5.26654">
        <ele>198</ele>
        <time>2022-09-01T07:10:33Z</time>
      </trkpt>
      <trkpt lat="46.56958" lon="5.26671">
        <ele>198.8</ele>
        <time>2022-09-01T07:10:36Z</time>
      </trkpt>
      <trkpt lat="46.56949" lon="5.2669">
        <ele>200.2</ele>
        <time>2022-09-01T07:10:39Z</time>
      </trkpt>
      <trkpt lat="46.56941" lon="5.26721">
        <ele>201.6</ele>
        <time>2022-09-01T07:10:44Z</time>
      </trkpt>
      <trkpt lat="46.5694" lon="5.26727">
        <ele>202</ele>
        <time>2022-09-01T07:10:45Z</time>
      </trkpt>
      <trkpt lat="46.56935" lon="5.26752">
        <ele>202.8</ele>
        <time>2022-09-01T07:10:49Z</time>
      </trkpt>
      <trkpt lat="46.5693" lon="5.26771">
        <ele>203.2</ele>
        <time>2022-09-01T07:10:52Z</time>
      </trkpt>
      <trkpt lat="46.56923" lon="5.26794">
        <ele>203.8</ele>
        <time>2022-09-01T07:10:55Z</time>
      </trkpt>
      <trkpt lat="46.56917" lon="5.2681">
        <ele>204.2</ele>
        <time>2022-09-01T07:10:57Z</time>
      </trkpt>
      <trkpt lat="46.56891" lon="5.2687">
        <ele>204.4</ele>
        <time>2022-09-01T07:11:04Z</time>
      </trkpt>
      <trkpt lat="46.5686" lon="5.26931">
        <ele>203.6</ele>
        <time>2022-09-01T07:11:10Z</time>
      </trkpt>
      <trkpt lat="46.56839" lon="5.26986">
        <ele>202.8</ele>
        <time>2022-09-01T07:11:15Z</time>
      </trkpt>
      <trkpt lat="46.56826" lon="5.27019">
        <ele>202.2</ele>
        <time>2022-09-01T07:11:18Z</time>
      </trkpt>
      <trkpt lat="46.56805" lon="5.27072">
        <ele>201.6</ele>
        <time>2022-09-01T07:11:23Z</time>
      </trkpt>
      <trkpt lat="46.56793" lon="5.27103">
        <ele>201.2</ele>
        <time>2022-09-01T07:11:26Z</time>
      </trkpt>
      <trkpt lat="46.56771" lon="5.27163">
        <ele>201.2</ele>
        <time>2022-09-01T07:11:32Z</time>
      </trkpt>
      <trkpt lat="46.56754" lon="5.27218">
        <ele>202</ele>
        <time>2022-09-01T07:11:38Z</time>
      </trkpt>
      <trkpt lat="46.56745" lon="5.27262">
        <ele>202.6</ele>
        <time>2022-09-01T07:11:43Z</time>
      </trkpt>
      <trkpt lat="46.56739" lon="5.27293">
        <ele>203</ele>
        <time>2022-09-01T07:11:46Z</time>
      </trkpt>
      <trkpt lat="46.5673" lon="5.27341">
        <ele>203.8</ele>
        <time>2022-09-01T07:11:51Z</time>
      </trkpt>
      <trkpt lat="46.56726" lon="5.27363">
        <ele>204</ele>
        <time>2022-09-01T07:11:53Z</time>
      </trkpt>
      <trkpt lat="46.56706" lon="5.27435">
        <ele>203.4</ele>
        <time>2022-09-01T07:11:59Z</time>
      </trkpt>
      <trkpt lat="46.56692" lon="5.27477">
        <ele>202.6</ele>
        <time>2022-09-01T07:12:02Z</time>
      </trkpt>
      <trkpt lat="46.56681" lon="5.27509">
        <ele>201.2</ele>
        <time>2022-09-01T07:12:04Z</time>
      </trkpt>
      <trkpt lat="46.56675" lon="5.27523">
        <ele>200.6</ele>
        <time>2022-09-01T07:12:05Z</time>
      </trkpt>
      <trkpt lat="46.56671" lon="5.27538">
        <ele>199.4</ele>
        <time>2022-09-01T07:12:06Z</time>
      </trkpt>
      <trkpt lat="46.56662" lon="5.27568">
        <ele>197.8</ele>
        <time>2022-09-01T07:12:08Z</time>
      </trkpt>
      <trkpt lat="46.56657" lon="5.27583">
        <ele>196.6</ele>
        <time>2022-09-01T07:12:09Z</time>
      </trkpt>
      <trkpt lat="46.56649" lon="5.27613">
        <ele>194.8</ele>
        <time>2022-09-01T07:12:11Z</time>
      </trkpt>
      <trkpt lat="46.56642" lon="5.27644">
        <ele>193.2</ele>
        <time>2022-09-01T07:12:13Z</time>
      </trkpt>
      <trkpt lat="46.56634" lon="5.27673">
        <ele>192.2</ele>
        <time>2022-09-01T07:12:15Z</time>
      </trkpt>
      <trkpt lat="46.56629" lon="5.27687">
        <ele>191.2</ele>
        <time>2022-09-01T07:12:16Z</time>
      </trkpt>
      <trkpt lat="46.56623" lon="5.27701">
        <ele>190.8</ele>
        <time>2022-09-01T07:12:17Z</time>
      </trkpt>
      <trkpt lat="46.56602" lon="5.27736">
        <ele>189</ele>
        <time>2022-09-01T07:12:20Z</time>
      </trkpt>
      <trkpt lat="46.56593" lon="5.27745">
        <ele>188.4</ele>
        <time>2022-09-01T07:12:21Z</time>
      </trkpt>
      <trkpt lat="46.56584" lon="5.27753">
        <ele>188.2</ele>
        <time>2022-09-01T07:12:22Z</time>
      </trkpt>
      <trkpt lat="46.56574" lon="5.2776">
        <ele>187.4</ele>
        <time>2022-09-01T07:12:23Z</time>
      </trkpt>
      <trkpt lat="46.56555" lon="5.27772">
        <ele>187</ele>
        <time>2022-09-01T07:12:25Z</time>
      </trkpt>
      <trkpt lat="46.56546" lon="5.27778">
        <ele>187</ele>
        <time>2022-09-01T07:12:26Z</time>
      </trkpt>
      <trkpt lat="46.5651" lon="5.27801">
        <ele>186</ele>
        <time>2022-09-01T07:12:30Z</time>
      </trkpt>
      <trkpt lat="46.56494" lon="5.27813">
        <ele>186</ele>
        <time>2022-09-01T07:12:32Z</time>
      </trkpt>
      <trkpt lat="46.5645" lon="5.27849">
        <ele>186.2</ele>
        <time>2022-09-01T07:12:38Z</time>
      </trkpt>
      <trkpt lat="46.56418" lon="5.27878">
        <ele>187.2</ele>
        <time>2022-09-01T07:12:43Z</time>
      </trkpt>
      <trkpt lat="46.56405" lon="5.27889">
        <ele>187.6</ele>
        <time>2022-09-01T07:12:45Z</time>
      </trkpt>
      <trkpt lat="46.56393" lon="5.27899">
        <ele>188.2</ele>
        <time>2022-09-01T07:12:47Z</time>
      </trkpt>
      <trkpt lat="46.56365" lon="5.27925">
        <ele>189</ele>
        <time>2022-09-01T07:12:52Z</time>
      </trkpt>
      <trkpt lat="46.56359" lon="5.2793">
        <ele>189.2</ele>
        <time>2022-09-01T07:12:53Z</time>
      </trkpt>
      <trkpt lat="46.56328" lon="5.27964">
        <ele>190</ele>
        <time>2022-09-01T07:12:59Z</time>
      </trkpt>
      <trkpt lat="46.56324" lon="5.2797">
        <ele>190.2</ele>
        <time>2022-09-01T07:13:00Z</time>
      </trkpt>
      <trkpt lat="46.56293" lon="5.28015">
        <ele>191.2</ele>
        <time>2022-09-01T07:13:07Z</time>
      </trkpt>
      <trkpt lat="46.56278" lon="5.28039">
        <ele>192.4</ele>
        <time>2022-09-01T07:13:12Z</time>
      </trkpt>
      <trkpt lat="46.56263" lon="5.28064">
        <ele>193</ele>
        <time>2022-09-01T07:13:15Z</time>
      </trkpt>
      <trkpt lat="46.56253" lon="5.28075">
        <ele>193.4</ele>
        <time>2022-09-01T07:13:17Z</time>
      </trkpt>
      <trkpt lat="46.56247" lon="5.28081">
        <ele>193.4</ele>
        <time>2022-09-01T07:13:18Z</time>
      </trkpt>
      <trkpt lat="46.56202" lon="5.28119">
        <ele>193.2</ele>
        <time>2022-09-01T07:13:25Z</time>
      </trkpt>
      <trkpt lat="46.56196" lon="5.28125">
        <ele>193</ele>
        <time>2022-09-01T07:13:26Z</time>
      </trkpt>
      <trkpt lat="46.56186" lon="5.28141">
        <ele>192.8</ele>
        <time>2022-09-01T07:13:28Z</time>
      </trkpt>
      <trkpt lat="46.56171" lon="5.2818">
        <ele>192.4</ele>
        <time>2022-09-01T07:13:32Z</time>
      </trkpt>
      <trkpt lat="46.56164" lon="5.28189">
        <ele>192.4</ele>
        <time>2022-09-01T07:13:33Z</time>
      </trkpt>
      <trkpt lat="46.56157" lon="5.28197">
        <ele>192.4</ele>
        <time>2022-09-01T07:13:34Z</time>
      </trkpt>
      <trkpt lat="46.56149" lon="5.28202">
        <ele>192.2</ele>
        <time>2022-09-01T07:13:35Z</time>
      </trkpt>
      <trkpt lat="46.5614" lon="5.28205">
        <ele>191.8</ele>
        <time>2022-09-01T07:13:36Z</time>
      </trkpt>
      <trkpt lat="46.56113" lon="5.2821">
        <ele>190.4</ele>
        <time>2022-09-01T07:13:39Z</time>
      </trkpt>
      <trkpt lat="46.56076" lon="5.28215">
        <ele>189.4</ele>
        <time>2022-09-01T07:13:43Z</time>
      </trkpt>
      <trkpt lat="46.56041" lon="5.28221">
        <ele>189.2</ele>
        <time>2022-09-01T07:13:47Z</time>
      </trkpt>
      <trkpt lat="46.56014" lon="5.28224">
        <ele>188.2</ele>
        <time>2022-09-01T07:13:50Z</time>
      </trkpt>
      <trkpt lat="46.55973" lon="5.28223">
        <ele>187.6</ele>
        <time>2022-09-01T07:13:55Z</time>
      </trkpt>
      <trkpt lat="46.55934" lon="5.28214">
        <ele>187.4</ele>
        <time>2022-09-01T07:14:00Z</time>
      </trkpt>
      <trkpt lat="46.55921" lon="5.28203">
        <ele>187.6</ele>
        <time>2022-09-01T07:14:02Z</time>
      </trkpt>
      <trkpt lat="46.55916" lon="5.28196">
        <ele>187.8</ele>
        <time>2022-09-01T07:14:03Z</time>
      </trkpt>
      <trkpt lat="46.55887" lon="5.28167">
        <ele>188.2</ele>
        <time>2022-09-01T07:14:08Z</time>
      </trkpt>
      <trkpt lat="46.55874" lon="5.28159">
        <ele>188.4</ele>
        <time>2022-09-01T07:14:10Z</time>
      </trkpt>
      <trkpt lat="46.55853" lon="5.2815">
        <ele>188.6</ele>
        <time>2022-09-01T07:14:13Z</time>
      </trkpt>
      <trkpt lat="46.55839" lon="5.28148">
        <ele>188.6</ele>
        <time>2022-09-01T07:14:15Z</time>
      </trkpt>
      <trkpt lat="46.55825" lon="5.2815">
        <ele>188.6</ele>
        <time>2022-09-01T07:14:17Z</time>
      </trkpt>
      <trkpt lat="46.55811" lon="5.28156">
        <ele>188.6</ele>
        <time>2022-09-01T07:14:19Z</time>
      </trkpt>
      <trkpt lat="46.55797" lon="5.28156">
        <ele>188.8</ele>
        <time>2022-09-01T07:14:21Z</time>
      </trkpt>
      <trkpt lat="46.55784" lon="5.28142">
        <ele>188.8</ele>
        <time>2022-09-01T07:14:23Z</time>
      </trkpt>
      <trkpt lat="46.5576" lon="5.28092">
        <ele>188.4</ele>
        <time>2022-09-01T07:14:28Z</time>
      </trkpt>
      <trkpt lat="46.55731" lon="5.28035">
        <ele>187.2</ele>
        <time>2022-09-01T07:14:34Z</time>
      </trkpt>
      <trkpt lat="46.55718" lon="5.28007">
        <ele>187.2</ele>
        <time>2022-09-01T07:14:37Z</time>
      </trkpt>
      <trkpt lat="46.55685" lon="5.27942">
        <ele>187</ele>
        <time>2022-09-01T07:14:44Z</time>
      </trkpt>
      <trkpt lat="46.5568" lon="5.27934">
        <ele>187.2</ele>
        <time>2022-09-01T07:14:45Z</time>
      </trkpt>
      <trkpt lat="46.55667" lon="5.27922">
        <ele>187</ele>
        <time>2022-09-01T07:14:47Z</time>
      </trkpt>
      <trkpt lat="46.55651" lon="5.27924">
        <ele>186.8</ele>
        <time>2022-09-01T07:14:49Z</time>
      </trkpt>
      <trkpt lat="46.55631" lon="5.27941">
        <ele>186.2</ele>
        <time>2022-09-01T07:14:52Z</time>
      </trkpt>
      <trkpt lat="46.55585" lon="5.27983">
        <ele>185.8</ele>
        <time>2022-09-01T07:14:59Z</time>
      </trkpt>
      <trkpt lat="46.55578" lon="5.27987">
        <ele>185.8</ele>
        <time>2022-09-01T07:15:00Z</time>
      </trkpt>
      <trkpt lat="46.55534" lon="5.28015">
        <ele>185.8</ele>
        <time>2022-09-01T07:15:07Z</time>
      </trkpt>
      <trkpt lat="46.55529" lon="5.28021">
        <ele>185.8</ele>
        <time>2022-09-01T07:15:08Z</time>
      </trkpt>
      <trkpt lat="46.55509" lon="5.28048">
        <ele>185.8</ele>
        <time>2022-09-01T07:15:12Z</time>
      </trkpt>
      <trkpt lat="46.55497" lon="5.28067">
        <ele>185.6</ele>
        <time>2022-09-01T07:15:14Z</time>
      </trkpt>
      <trkpt lat="46.55485" lon="5.2808">
        <ele>185.6</ele>
        <time>2022-09-01T07:15:16Z</time>
      </trkpt>
      <trkpt lat="46.55473" lon="5.28094">
        <ele>185.6</ele>
        <time>2022-09-01T07:15:18Z</time>
      </trkpt>
      <trkpt lat="46.55467" lon="5.28113">
        <ele>185.6</ele>
        <time>2022-09-01T07:15:20Z</time>
      </trkpt>
      <trkpt lat="46.55463" lon="5.28144">
        <ele>185.4</ele>
        <time>2022-09-01T07:15:23Z</time>
      </trkpt>
      <trkpt lat="46.55456" lon="5.28164">
        <ele>185.4</ele>
        <time>2022-09-01T07:15:25Z</time>
      </trkpt>
      <trkpt lat="46.55445" lon="5.28179">
        <ele>185.2</ele>
        <time>2022-09-01T07:15:27Z</time>
      </trkpt>
      <trkpt lat="46.55433" lon="5.2819">
        <ele>185.2</ele>
        <time>2022-09-01T07:15:29Z</time>
      </trkpt>
      <trkpt lat="46.55389" lon="5.28222">
        <ele>185.6</ele>
        <time>2022-09-01T07:15:36Z</time>
      </trkpt>
      <trkpt lat="46.55347" lon="5.28266">
        <ele>186.4</ele>
        <time>2022-09-01T07:15:44Z</time>
      </trkpt>
      <trkpt lat="46.55315" lon="5.28322">
        <ele>186.8</ele>
        <time>2022-09-01T07:15:52Z</time>
      </trkpt>
      <trkpt lat="46.5529" lon="5.28364">
        <ele>187.2</ele>
        <time>2022-09-01T07:15:58Z</time>
      </trkpt>
      <trkpt lat="46.55283" lon="5.28379">
        <ele>187.2</ele>
        <time>2022-09-01T07:16:00Z</time>
      </trkpt>
      <trkpt lat="46.55267" lon="5.28404">
        <ele>187.6</ele>
        <time>2022-09-01T07:16:04Z</time>
      </trkpt>
      <trkpt lat="46.55257" lon="5.28413">
        <ele>187.8</ele>
        <time>2022-09-01T07:16:06Z</time>
      </trkpt>
      <trkpt lat="46.55252" lon="5.28417">
        <ele>187.8</ele>
        <time>2022-09-01T07:16:07Z</time>
      </trkpt>
      <trkpt lat="46.55235" lon="5.28424">
        <ele>188.2</ele>
        <time>2022-09-01T07:16:10Z</time>
      </trkpt>
      <trkpt lat="46.55217" lon="5.28422">
        <ele>189.2</ele>
        <time>2022-09-01T07:16:14Z</time>
      </trkpt>
      <trkpt lat="46.55212" lon="5.28421">
        <ele>189.4</ele>
        <time>2022-09-01T07:16:15Z</time>
      </trkpt>
      <trkpt lat="46.55205" lon="5.28418">
        <ele>189.8</ele>
        <time>2022-09-01T07:16:16Z</time>
      </trkpt>
      <trkpt lat="46.55189" lon="5.28412">
        <ele>190.6</ele>
        <time>2022-09-01T07:16:19Z</time>
      </trkpt>
      <trkpt lat="46.55183" lon="5.2841">
        <ele>190.8</ele>
        <time>2022-09-01T07:16:20Z</time>
      </trkpt>
      <trkpt lat="46.55167" lon="5.28403">
        <ele>191.6</ele>
        <time>2022-09-01T07:16:23Z</time>
      </trkpt>
      <trkpt lat="46.55131" lon="5.28388">
        <ele>192.4</ele>
        <time>2022-09-01T07:16:29Z</time>
      </trkpt>
      <trkpt lat="46.55105" lon="5.28381">
        <ele>192.6</ele>
        <time>2022-09-01T07:16:33Z</time>
      </trkpt>
      <trkpt lat="46.55092" lon="5.28379">
        <ele>192.6</ele>
        <time>2022-09-01T07:16:35Z</time>
      </trkpt>
      <trkpt lat="46.5506" lon="5.28387">
        <ele>192.6</ele>
        <time>2022-09-01T07:16:40Z</time>
      </trkpt>
      <trkpt lat="46.55009" lon="5.28407">
        <ele>192.8</ele>
        <time>2022-09-01T07:16:48Z</time>
      </trkpt>
      <trkpt lat="46.54973" lon="5.28431">
        <ele>193.2</ele>
        <time>2022-09-01T07:16:54Z</time>
      </trkpt>
      <trkpt lat="46.54948" lon="5.28443">
        <ele>193.6</ele>
        <time>2022-09-01T07:16:58Z</time>
      </trkpt>
      <trkpt lat="46.54934" lon="5.28446">
        <ele>193.6</ele>
        <time>2022-09-01T07:17:00Z</time>
      </trkpt>
      <trkpt lat="46.5492" lon="5.28443">
        <ele>193.6</ele>
        <time>2022-09-01T07:17:02Z</time>
      </trkpt>
      <trkpt lat="46.54913" lon="5.28439">
        <ele>193.6</ele>
        <time>2022-09-01T07:17:03Z</time>
      </trkpt>
      <trkpt lat="46.54907" lon="5.28435">
        <ele>193.6</ele>
        <time>2022-09-01T07:17:04Z</time>
      </trkpt>
      <trkpt lat="46.54884" lon="5.28416">
        <ele>193.6</ele>
        <time>2022-09-01T07:17:08Z</time>
      </trkpt>
      <trkpt lat="46.54867" lon="5.28401">
        <ele>193.6</ele>
        <time>2022-09-01T07:17:11Z</time>
      </trkpt>
      <trkpt lat="46.54856" lon="5.28393">
        <ele>193.8</ele>
        <time>2022-09-01T07:17:13Z</time>
      </trkpt>
      <trkpt lat="46.54823" lon="5.28374">
        <ele>194.8</ele>
        <time>2022-09-01T07:17:19Z</time>
      </trkpt>
      <trkpt lat="46.54808" lon="5.28364">
        <ele>195.4</ele>
        <time>2022-09-01T07:17:22Z</time>
      </trkpt>
      <trkpt lat="46.54798" lon="5.28358">
        <ele>196</ele>
        <time>2022-09-01T07:17:24Z</time>
      </trkpt>
      <trkpt lat="46.54793" lon="5.28356">
        <ele>196.2</ele>
        <time>2022-09-01T07:17:25Z</time>
      </trkpt>
      <trkpt lat="46.5478" lon="5.28357">
        <ele>196.6</ele>
        <time>2022-09-01T07:17:27Z</time>
      </trkpt>
      <trkpt lat="46.54775" lon="5.28362">
        <ele>197</ele>
        <time>2022-09-01T07:17:28Z</time>
      </trkpt>
      <trkpt lat="46.5477" lon="5.28367">
        <ele>197</ele>
        <time>2022-09-01T07:17:29Z</time>
      </trkpt>
      <trkpt lat="46.5476" lon="5.2838">
        <ele>197.2</ele>
        <time>2022-09-01T07:17:31Z</time>
      </trkpt>
      <trkpt lat="46.54748" lon="5.28392">
        <ele>197.4</ele>
        <time>2022-09-01T07:17:33Z</time>
      </trkpt>
      <trkpt lat="46.54734" lon="5.284">
        <ele>197.4</ele>
        <time>2022-09-01T07:17:35Z</time>
      </trkpt>
      <trkpt lat="46.54688" lon="5.28423">
        <ele>196.8</ele>
        <time>2022-09-01T07:17:41Z</time>
      </trkpt>
      <trkpt lat="46.54678" lon="5.28428">
        <ele>196</ele>
        <time>2022-09-01T07:17:43Z</time>
      </trkpt>
      <trkpt lat="46.5463" lon="5.28449">
        <ele>195</ele>
        <time>2022-09-01T07:17:48Z</time>
      </trkpt>
      <trkpt lat="46.54595" lon="5.28453">
        <ele>194</ele>
        <time>2022-09-01T07:17:52Z</time>
      </trkpt>
      <trkpt lat="46.54577" lon="5.28451">
        <ele>193.2</ele>
        <time>2022-09-01T07:17:54Z</time>
      </trkpt>
      <trkpt lat="46.5456" lon="5.28447">
        <ele>192.8</ele>
        <time>2022-09-01T07:17:56Z</time>
      </trkpt>
      <trkpt lat="46.54534" lon="5.28445">
        <ele>192.4</ele>
        <time>2022-09-01T07:17:59Z</time>
      </trkpt>
      <trkpt lat="46.54525" lon="5.28446">
        <ele>192.2</ele>
        <time>2022-09-01T07:18:00Z</time>
      </trkpt>
      <trkpt lat="46.54492" lon="5.2845">
        <ele>191.6</ele>
        <time>2022-09-01T07:18:04Z</time>
      </trkpt>
      <trkpt lat="46.54484" lon="5.2845">
        <ele>191.4</ele>
        <time>2022-09-01T07:18:05Z</time>
      </trkpt>
      <trkpt lat="46.54476" lon="5.28449">
        <ele>191.2</ele>
        <time>2022-09-01T07:18:06Z</time>
      </trkpt>
      <trkpt lat="46.54445" lon="5.28448">
        <ele>191</ele>
        <time>2022-09-01T07:18:10Z</time>
      </trkpt>
      <trkpt lat="46.5443" lon="5.28453">
        <ele>191.2</ele>
        <time>2022-09-01T07:18:12Z</time>
      </trkpt>
      <trkpt lat="46.54405" lon="5.28473">
        <ele>191.4</ele>
        <time>2022-09-01T07:18:16Z</time>
      </trkpt>
      <trkpt lat="46.54358" lon="5.28512">
        <ele>192</ele>
        <time>2022-09-01T07:18:24Z</time>
      </trkpt>
      <trkpt lat="46.54322" lon="5.2854">
        <ele>192.6</ele>
        <time>2022-09-01T07:18:31Z</time>
      </trkpt>
      <trkpt lat="46.54317" lon="5.28544">
        <ele>192.8</ele>
        <time>2022-09-01T07:18:32Z</time>
      </trkpt>
      <trkpt lat="46.54297" lon="5.28555">
        <ele>193.8</ele>
        <time>2022-09-01T07:18:36Z</time>
      </trkpt>
      <trkpt lat="46.54293" lon="5.28558">
        <ele>194</ele>
        <time>2022-09-01T07:18:37Z</time>
      </trkpt>
      <trkpt lat="46.54284" lon="5.28564">
        <ele>194.4</ele>
        <time>2022-09-01T07:18:39Z</time>
      </trkpt>
      <trkpt lat="46.54275" lon="5.28571">
        <ele>194.8</ele>
        <time>2022-09-01T07:18:41Z</time>
      </trkpt>
      <trkpt lat="46.5427" lon="5.28574">
        <ele>195.2</ele>
        <time>2022-09-01T07:18:42Z</time>
      </trkpt>
      <trkpt lat="46.54263" lon="5.28578">
        <ele>195.8</ele>
        <time>2022-09-01T07:18:44Z</time>
      </trkpt>
      <trkpt lat="46.54259" lon="5.28579">
        <ele>196</ele>
        <time>2022-09-01T07:18:45Z</time>
      </trkpt>
      <trkpt lat="46.54253" lon="5.28582">
        <ele>196</ele>
        <time>2022-09-01T07:18:46Z</time>
      </trkpt>
      <trkpt lat="46.54248" lon="5.28585">
        <ele>196.2</ele>
        <time>2022-09-01T07:18:47Z</time>
      </trkpt>
      <trkpt lat="46.54243" lon="5.28588">
        <ele>196.4</ele>
        <time>2022-09-01T07:18:48Z</time>
      </trkpt>
      <trkpt lat="46.54234" lon="5.28592">
        <ele>196.8</ele>
        <time>2022-09-01T07:18:50Z</time>
      </trkpt>
      <trkpt lat="46.5423" lon="5.28594">
        <ele>197.2</ele>
        <time>2022-09-01T07:18:51Z</time>
      </trkpt>
      <trkpt lat="46.54225" lon="5.28596">
        <ele>197.2</ele>
        <time>2022-09-01T07:18:52Z</time>
      </trkpt>
      <trkpt lat="46.54221" lon="5.28599">
        <ele>197.4</ele>
        <time>2022-09-01T07:18:53Z</time>
      </trkpt>
      <trkpt lat="46.54211" lon="5.28602">
        <ele>197.8</ele>
        <time>2022-09-01T07:18:55Z</time>
      </trkpt>
      <trkpt lat="46.54206" lon="5.28606">
        <ele>198.2</ele>
        <time>2022-09-01T07:18:56Z</time>
      </trkpt>
      <trkpt lat="46.54185" lon="5.28619">
        <ele>199.4</ele>
        <time>2022-09-01T07:19:01Z</time>
      </trkpt>
      <trkpt lat="46.54192" lon="5.28601">
        <ele>199.8</ele>
        <time>2022-09-01T07:19:02Z</time>
      </trkpt>
      <trkpt lat="46.54184" lon="5.28603">
        <ele>200.4</ele>
        <time>2022-09-01T07:19:04Z</time>
      </trkpt>
      <trkpt lat="46.54151" lon="5.28649">
        <ele>201.6</ele>
        <time>2022-09-01T07:19:08Z</time>
      </trkpt>
      <trkpt lat="46.54139" lon="5.28652">
        <ele>202.4</ele>
        <time>2022-09-01T07:19:11Z</time>
      </trkpt>
      <trkpt lat="46.54136" lon="5.28652">
        <ele>202.8</ele>
        <time>2022-09-01T07:19:12Z</time>
      </trkpt>
      <trkpt lat="46.54132" lon="5.28658">
        <ele>202.8</ele>
        <time>2022-09-01T07:19:14Z</time>
      </trkpt>
      <trkpt lat="46.54131" lon="5.28662">
        <ele>203.2</ele>
        <time>2022-09-01T07:19:15Z</time>
      </trkpt>
      <trkpt lat="46.54132" lon="5.28667">
        <ele>203.4</ele>
        <time>2022-09-01T07:19:16Z</time>
      </trkpt>
      <trkpt lat="46.54134" lon="5.28673">
        <ele>204</ele>
        <time>2022-09-01T07:19:17Z</time>
      </trkpt>
      <trkpt lat="46.54136" lon="5.28679">
        <ele>204</ele>
        <time>2022-09-01T07:19:18Z</time>
      </trkpt>
      <trkpt lat="46.54147" lon="5.28693">
        <ele>205</ele>
        <time>2022-09-01T07:19:21Z</time>
      </trkpt>
      <trkpt lat="46.54154" lon="5.28703">
        <ele>205.2</ele>
        <time>2022-09-01T07:19:23Z</time>
      </trkpt>
      <trkpt lat="46.54158" lon="5.28709">
        <ele>205.6</ele>
        <time>2022-09-01T07:19:24Z</time>
      </trkpt>
      <trkpt lat="46.54176" lon="5.28732">
        <ele>205.8</ele>
        <time>2022-09-01T07:19:28Z</time>
      </trkpt>
      <trkpt lat="46.54205" lon="5.28772">
        <ele>205.8</ele>
        <time>2022-09-01T07:19:34Z</time>
      </trkpt>
      <trkpt lat="46.54208" lon="5.28782">
        <ele>205.8</ele>
        <time>2022-09-01T07:19:35Z</time>
      </trkpt>
      <trkpt lat="46.5421" lon="5.28793">
        <ele>205.6</ele>
        <time>2022-09-01T07:19:36Z</time>
      </trkpt>
      <trkpt lat="46.5421" lon="5.28805">
        <ele>205.4</ele>
        <time>2022-09-01T07:19:37Z</time>
      </trkpt>
      <trkpt lat="46.54207" lon="5.28816">
        <ele>205.4</ele>
        <time>2022-09-01T07:19:38Z</time>
      </trkpt>
      <trkpt lat="46.54196" lon="5.28847">
        <ele>204.6</ele>
        <time>2022-09-01T07:19:41Z</time>
      </trkpt>
      <trkpt lat="46.54192" lon="5.28857">
        <ele>204.2</ele>
        <time>2022-09-01T07:19:42Z</time>
      </trkpt>
      <trkpt lat="46.54186" lon="5.2888">
        <ele>203.6</ele>
        <time>2022-09-01T07:19:44Z</time>
      </trkpt>
      <trkpt lat="46.5418" lon="5.28903">
        <ele>203</ele>
        <time>2022-09-01T07:19:46Z</time>
      </trkpt>
      <trkpt lat="46.54177" lon="5.28914">
        <ele>202.4</ele>
        <time>2022-09-01T07:19:47Z</time>
      </trkpt>
      <trkpt lat="46.54168" lon="5.28935">
        <ele>201.8</ele>
        <time>2022-09-01T07:19:49Z</time>
      </trkpt>
      <trkpt lat="46.54163" lon="5.28945">
        <ele>201.6</ele>
        <time>2022-09-01T07:19:50Z</time>
      </trkpt>
      <trkpt lat="46.54157" lon="5.28954">
        <ele>201.4</ele>
        <time>2022-09-01T07:19:51Z</time>
      </trkpt>
      <trkpt lat="46.5413" lon="5.28987">
        <ele>200.2</ele>
        <time>2022-09-01T07:19:55Z</time>
      </trkpt>
      <trkpt lat="46.54109" lon="5.29012">
        <ele>198.8</ele>
        <time>2022-09-01T07:19:58Z</time>
      </trkpt>
      <trkpt lat="46.54103" lon="5.2902">
        <ele>198.6</ele>
        <time>2022-09-01T07:19:59Z</time>
      </trkpt>
      <trkpt lat="46.541" lon="5.29029">
        <ele>197.8</ele>
        <time>2022-09-01T07:20:00Z</time>
      </trkpt>
      <trkpt lat="46.54099" lon="5.29036">
        <ele>197.4</ele>
        <time>2022-09-01T07:20:01Z</time>
      </trkpt>
      <trkpt lat="46.541" lon="5.2905">
        <ele>197</ele>
        <time>2022-09-01T07:20:03Z</time>
      </trkpt>
      <trkpt lat="46.54097" lon="5.29064">
        <ele>196.2</ele>
        <time>2022-09-01T07:20:05Z</time>
      </trkpt>
      <trkpt lat="46.54093" lon="5.29071">
        <ele>196</ele>
        <time>2022-09-01T07:20:06Z</time>
      </trkpt>
      <trkpt lat="46.54088" lon="5.29076">
        <ele>195.4</ele>
        <time>2022-09-01T07:20:07Z</time>
      </trkpt>
      <trkpt lat="46.54081" lon="5.29081">
        <ele>195.2</ele>
        <time>2022-09-01T07:20:08Z</time>
      </trkpt>
      <trkpt lat="46.54074" lon="5.29085">
        <ele>194.8</ele>
        <time>2022-09-01T07:20:09Z</time>
      </trkpt>
      <trkpt lat="46.54061" lon="5.291">
        <ele>194</ele>
        <time>2022-09-01T07:20:11Z</time>
      </trkpt>
      <trkpt lat="46.54057" lon="5.2911">
        <ele>193.4</ele>
        <time>2022-09-01T07:20:12Z</time>
      </trkpt>
      <trkpt lat="46.54055" lon="5.2912">
        <ele>193.2</ele>
        <time>2022-09-01T07:20:13Z</time>
      </trkpt>
      <trkpt lat="46.54053" lon="5.29136">
        <ele>193</ele>
        <time>2022-09-01T07:20:14Z</time>
      </trkpt>
      <trkpt lat="46.54052" lon="5.2915">
        <ele>192.6</ele>
        <time>2022-09-01T07:20:15Z</time>
      </trkpt>
      <trkpt lat="46.54052" lon="5.29192">
        <ele>191.8</ele>
        <time>2022-09-01T07:20:18Z</time>
      </trkpt>
      <trkpt lat="46.54053" lon="5.29219">
        <ele>190.8</ele>
        <time>2022-09-01T07:20:20Z</time>
      </trkpt>
      <trkpt lat="46.54053" lon="5.29232">
        <ele>190.2</ele>
        <time>2022-09-01T07:20:21Z</time>
      </trkpt>
      <trkpt lat="46.54054" lon="5.29258">
        <ele>189.4</ele>
        <time>2022-09-01T07:20:23Z</time>
      </trkpt>
      <trkpt lat="46.54056" lon="5.29306">
        <ele>189</ele>
        <time>2022-09-01T07:20:27Z</time>
      </trkpt>
      <trkpt lat="46.54058" lon="5.29329">
        <ele>189</ele>
        <time>2022-09-01T07:20:29Z</time>
      </trkpt>
      <trkpt lat="46.54063" lon="5.2935">
        <ele>189</ele>
        <time>2022-09-01T07:20:31Z</time>
      </trkpt>
      <trkpt lat="46.5407" lon="5.2937">
        <ele>188.8</ele>
        <time>2022-09-01T07:20:33Z</time>
      </trkpt>
      <trkpt lat="46.54079" lon="5.29384">
        <ele>188.8</ele>
        <time>2022-09-01T07:20:35Z</time>
      </trkpt>
      <trkpt lat="46.54105" lon="5.29411">
        <ele>188.8</ele>
        <time>2022-09-01T07:20:39Z</time>
      </trkpt>
      <trkpt lat="46.54144" lon="5.29451">
        <ele>190</ele>
        <time>2022-09-01T07:20:46Z</time>
      </trkpt>
      <trkpt lat="46.54164" lon="5.29477">
        <ele>190.4</ele>
        <time>2022-09-01T07:20:50Z</time>
      </trkpt>
      <trkpt lat="46.54168" lon="5.29484">
        <ele>190.6</ele>
        <time>2022-09-01T07:20:51Z</time>
      </trkpt>
      <trkpt lat="46.54172" lon="5.2949">
        <ele>190.6</ele>
        <time>2022-09-01T07:20:52Z</time>
      </trkpt>
      <trkpt lat="46.54192" lon="5.29532">
        <ele>191.8</ele>
        <time>2022-09-01T07:20:58Z</time>
      </trkpt>
      <trkpt lat="46.5421" lon="5.29564">
        <ele>192.6</ele>
        <time>2022-09-01T07:21:03Z</time>
      </trkpt>
      <trkpt lat="46.54216" lon="5.29577">
        <ele>193</ele>
        <time>2022-09-01T07:21:05Z</time>
      </trkpt>
      <trkpt lat="46.54238" lon="5.29615">
        <ele>194</ele>
        <time>2022-09-01T07:21:11Z</time>
      </trkpt>
      <trkpt lat="46.54253" lon="5.29637">
        <ele>195.2</ele>
        <time>2022-09-01T07:21:15Z</time>
      </trkpt>
      <trkpt lat="46.54262" lon="5.29654">
        <ele>196</ele>
        <time>2022-09-01T07:21:18Z</time>
      </trkpt>
      <trkpt lat="46.54268" lon="5.29666">
        <ele>196.4</ele>
        <time>2022-09-01T07:21:20Z</time>
      </trkpt>
      <trkpt lat="46.54284" lon="5.29695">
        <ele>197.2</ele>
        <time>2022-09-01T07:21:25Z</time>
      </trkpt>
      <trkpt lat="46.54288" lon="5.29702">
        <ele>197.4</ele>
        <time>2022-09-01T07:21:26Z</time>
      </trkpt>
      <trkpt lat="46.54303" lon="5.29733">
        <ele>198.4</ele>
        <time>2022-09-01T07:21:31Z</time>
      </trkpt>
      <trkpt lat="46.54313" lon="5.29752">
        <ele>199.2</ele>
        <time>2022-09-01T07:21:34Z</time>
      </trkpt>
      <trkpt lat="46.54316" lon="5.29758">
        <ele>199.6</ele>
        <time>2022-09-01T07:21:35Z</time>
      </trkpt>
      <trkpt lat="46.5433" lon="5.29789">
        <ele>200.6</ele>
        <time>2022-09-01T07:21:40Z</time>
      </trkpt>
      <trkpt lat="46.54332" lon="5.29795">
        <ele>200.6</ele>
        <time>2022-09-01T07:21:41Z</time>
      </trkpt>
      <trkpt lat="46.54333" lon="5.29802">
        <ele>201</ele>
        <time>2022-09-01T07:21:42Z</time>
      </trkpt>
      <trkpt lat="46.54334" lon="5.29817">
        <ele>201.6</ele>
        <time>2022-09-01T07:21:44Z</time>
      </trkpt>
      <trkpt lat="46.54332" lon="5.29824">
        <ele>201.8</ele>
        <time>2022-09-01T07:21:45Z</time>
      </trkpt>
      <trkpt lat="46.54331" lon="5.2983">
        <ele>202</ele>
        <time>2022-09-01T07:21:46Z</time>
      </trkpt>
      <trkpt lat="46.54329" lon="5.29837">
        <ele>202.4</ele>
        <time>2022-09-01T07:21:47Z</time>
      </trkpt>
      <trkpt lat="46.54319" lon="5.29861">
        <ele>203.2</ele>
        <time>2022-09-01T07:21:51Z</time>
      </trkpt>
      <trkpt lat="46.54314" lon="5.29874">
        <ele>203.6</ele>
        <time>2022-09-01T07:21:53Z</time>
      </trkpt>
      <trkpt lat="46.54299" lon="5.2991">
        <ele>204.8</ele>
        <time>2022-09-01T07:21:59Z</time>
      </trkpt>
      <trkpt lat="46.54296" lon="5.29915">
        <ele>205</ele>
        <time>2022-09-01T07:22:00Z</time>
      </trkpt>
      <trkpt lat="46.54275" lon="5.29966">
        <ele>205.8</ele>
        <time>2022-09-01T07:22:08Z</time>
      </trkpt>
      <trkpt lat="46.5427" lon="5.29979">
        <ele>206</ele>
        <time>2022-09-01T07:22:10Z</time>
      </trkpt>
      <trkpt lat="46.54267" lon="5.29986">
        <ele>206.2</ele>
        <time>2022-09-01T07:22:11Z</time>
      </trkpt>
      <trkpt lat="46.54261" lon="5.30012">
        <ele>207</ele>
        <time>2022-09-01T07:22:15Z</time>
      </trkpt>
      <trkpt lat="46.54259" lon="5.30022">
        <ele>207.2</ele>
        <time>2022-09-01T07:22:16Z</time>
      </trkpt>
      <trkpt lat="46.5425" lon="5.30063">
        <ele>208</ele>
        <time>2022-09-01T07:22:22Z</time>
      </trkpt>
      <trkpt lat="46.54247" lon="5.30077">
        <ele>208.4</ele>
        <time>2022-09-01T07:22:24Z</time>
      </trkpt>
      <trkpt lat="46.54246" lon="5.30083">
        <ele>208.6</ele>
        <time>2022-09-01T07:22:25Z</time>
      </trkpt>
      <trkpt lat="46.5424" lon="5.30092">
        <ele>209.2</ele>
        <time>2022-09-01T07:22:27Z</time>
      </trkpt>
      <trkpt lat="46.5423" lon="5.30094">
        <ele>209.4</ele>
        <time>2022-09-01T07:22:29Z</time>
      </trkpt>
      <trkpt lat="46.54224" lon="5.30093">
        <ele>209.6</ele>
        <time>2022-09-01T07:22:30Z</time>
      </trkpt>
      <trkpt lat="46.54195" lon="5.30092">
        <ele>210.2</ele>
        <time>2022-09-01T07:22:35Z</time>
      </trkpt>
      <trkpt lat="46.54159" lon="5.30106">
        <ele>210.8</ele>
        <time>2022-09-01T07:22:41Z</time>
      </trkpt>
      <trkpt lat="46.54148" lon="5.30113">
        <ele>210.8</ele>
        <time>2022-09-01T07:22:43Z</time>
      </trkpt>
      <trkpt lat="46.54145" lon="5.30119">
        <ele>211</ele>
        <time>2022-09-01T07:22:44Z</time>
      </trkpt>
      <trkpt lat="46.54127" lon="5.30176">
        <ele>211</ele>
        <time>2022-09-01T07:22:51Z</time>
      </trkpt>
      <trkpt lat="46.54104" lon="5.30244">
        <ele>211.4</ele>
        <time>2022-09-01T07:22:59Z</time>
      </trkpt>
      <trkpt lat="46.5408" lon="5.30315">
        <ele>211.4</ele>
        <time>2022-09-01T07:23:07Z</time>
      </trkpt>
      <trkpt lat="46.54059" lon="5.30396">
        <ele>211.4</ele>
        <time>2022-09-01T07:23:15Z</time>
      </trkpt>
      <trkpt lat="46.5405" lon="5.30439">
        <ele>211</ele>
        <time>2022-09-01T07:23:19Z</time>
      </trkpt>
      <trkpt lat="46.54038" lon="5.30469">
        <ele>210.8</ele>
        <time>2022-09-01T07:23:22Z</time>
      </trkpt>
      <trkpt lat="46.54016" lon="5.30502">
        <ele>210.6</ele>
        <time>2022-09-01T07:23:26Z</time>
      </trkpt>
      <trkpt lat="46.54009" lon="5.30509">
        <ele>210.6</ele>
        <time>2022-09-01T07:23:27Z</time>
      </trkpt>
      <trkpt lat="46.53995" lon="5.30521">
        <ele>210.6</ele>
        <time>2022-09-01T07:23:29Z</time>
      </trkpt>
      <trkpt lat="46.53979" lon="5.3053">
        <ele>210.6</ele>
        <time>2022-09-01T07:23:31Z</time>
      </trkpt>
      <trkpt lat="46.53952" lon="5.30547">
        <ele>210.4</ele>
        <time>2022-09-01T07:23:34Z</time>
      </trkpt>
      <trkpt lat="46.53944" lon="5.30554">
        <ele>210</ele>
        <time>2022-09-01T07:23:35Z</time>
      </trkpt>
      <trkpt lat="46.5393" lon="5.3057">
        <ele>209.2</ele>
        <time>2022-09-01T07:23:37Z</time>
      </trkpt>
      <trkpt lat="46.53924" lon="5.3058">
        <ele>208.8</ele>
        <time>2022-09-01T07:23:38Z</time>
      </trkpt>
      <trkpt lat="46.53905" lon="5.30627">
        <ele>207.6</ele>
        <time>2022-09-01T07:23:42Z</time>
      </trkpt>
      <trkpt lat="46.53902" lon="5.3064">
        <ele>207.2</ele>
        <time>2022-09-01T07:23:43Z</time>
      </trkpt>
      <trkpt lat="46.53895" lon="5.30665">
        <ele>206.4</ele>
        <time>2022-09-01T07:23:45Z</time>
      </trkpt>
      <trkpt lat="46.5389" lon="5.3069">
        <ele>205.6</ele>
        <time>2022-09-01T07:23:47Z</time>
      </trkpt>
      <trkpt lat="46.53889" lon="5.30703">
        <ele>205.4</ele>
        <time>2022-09-01T07:23:48Z</time>
      </trkpt>
      <trkpt lat="46.53888" lon="5.30742">
        <ele>204.2</ele>
        <time>2022-09-01T07:23:51Z</time>
      </trkpt>
      <trkpt lat="46.53885" lon="5.30783">
        <ele>203.2</ele>
        <time>2022-09-01T07:23:54Z</time>
      </trkpt>
      <trkpt lat="46.53882" lon="5.30796">
        <ele>203.2</ele>
        <time>2022-09-01T07:23:55Z</time>
      </trkpt>
      <trkpt lat="46.53878" lon="5.30809">
        <ele>202.6</ele>
        <time>2022-09-01T07:23:56Z</time>
      </trkpt>
      <trkpt lat="46.53874" lon="5.30822">
        <ele>202</ele>
        <time>2022-09-01T07:23:57Z</time>
      </trkpt>
      <trkpt lat="46.53869" lon="5.30835">
        <ele>201.6</ele>
        <time>2022-09-01T07:23:58Z</time>
      </trkpt>
      <trkpt lat="46.53858" lon="5.3086">
        <ele>200.8</ele>
        <time>2022-09-01T07:24:00Z</time>
      </trkpt>
      <trkpt lat="46.53843" lon="5.30898">
        <ele>199.4</ele>
        <time>2022-09-01T07:24:03Z</time>
      </trkpt>
      <trkpt lat="46.53828" lon="5.30934">
        <ele>198.2</ele>
        <time>2022-09-01T07:24:06Z</time>
      </trkpt>
      <trkpt lat="46.53823" lon="5.30946">
        <ele>197.2</ele>
        <time>2022-09-01T07:24:08Z</time>
      </trkpt>
      <trkpt lat="46.53799" lon="5.31">
        <ele>196.4</ele>
        <time>2022-09-01T07:24:12Z</time>
      </trkpt>
      <trkpt lat="46.53786" lon="5.31014">
        <ele>196.2</ele>
        <time>2022-09-01T07:24:14Z</time>
      </trkpt>
      <trkpt lat="46.53778" lon="5.31018">
        <ele>196.2</ele>
        <time>2022-09-01T07:24:15Z</time>
      </trkpt>
      <trkpt lat="46.5377" lon="5.31021">
        <ele>196.2</ele>
        <time>2022-09-01T07:24:16Z</time>
      </trkpt>
      <trkpt lat="46.5374" lon="5.31029">
        <ele>196.6</ele>
        <time>2022-09-01T07:24:20Z</time>
      </trkpt>
      <trkpt lat="46.53711" lon="5.31033">
        <ele>197.8</ele>
        <time>2022-09-01T07:24:24Z</time>
      </trkpt>
      <trkpt lat="46.53703" lon="5.31031">
        <ele>197.8</ele>
        <time>2022-09-01T07:24:25Z</time>
      </trkpt>
      <trkpt lat="46.53681" lon="5.31026">
        <ele>198.4</ele>
        <time>2022-09-01T07:24:28Z</time>
      </trkpt>
      <trkpt lat="46.53657" lon="5.31023">
        <ele>198.8</ele>
        <time>2022-09-01T07:24:31Z</time>
      </trkpt>
      <trkpt lat="46.53649" lon="5.31024">
        <ele>198.8</ele>
        <time>2022-09-01T07:24:32Z</time>
      </trkpt>
      <trkpt lat="46.53642" lon="5.31027">
        <ele>199</ele>
        <time>2022-09-01T07:24:33Z</time>
      </trkpt>
      <trkpt lat="46.53612" lon="5.31044">
        <ele>199.2</ele>
        <time>2022-09-01T07:24:37Z</time>
      </trkpt>
      <trkpt lat="46.53577" lon="5.31064">
        <ele>199.4</ele>
        <time>2022-09-01T07:24:42Z</time>
      </trkpt>
      <trkpt lat="46.53557" lon="5.31076">
        <ele>199.6</ele>
        <time>2022-09-01T07:24:45Z</time>
      </trkpt>
      <trkpt lat="46.53509" lon="5.31106">
        <ele>199.8</ele>
        <time>2022-09-01T07:24:52Z</time>
      </trkpt>
      <trkpt lat="46.53502" lon="5.31113">
        <ele>199.8</ele>
        <time>2022-09-01T07:24:53Z</time>
      </trkpt>
      <trkpt lat="46.53492" lon="5.31132">
        <ele>199.8</ele>
        <time>2022-09-01T07:24:55Z</time>
      </trkpt>
      <trkpt lat="46.53486" lon="5.31156">
        <ele>199.8</ele>
        <time>2022-09-01T07:24:57Z</time>
      </trkpt>
      <trkpt lat="46.53484" lon="5.31169">
        <ele>199.4</ele>
        <time>2022-09-01T07:24:58Z</time>
      </trkpt>
      <trkpt lat="46.53479" lon="5.31209">
        <ele>198.6</ele>
        <time>2022-09-01T07:25:01Z</time>
      </trkpt>
      <trkpt lat="46.53476" lon="5.31222">
        <ele>198.2</ele>
        <time>2022-09-01T07:25:02Z</time>
      </trkpt>
      <trkpt lat="46.53472" lon="5.31235">
        <ele>197.8</ele>
        <time>2022-09-01T07:25:03Z</time>
      </trkpt>
      <trkpt lat="46.53456" lon="5.31271">
        <ele>197</ele>
        <time>2022-09-01T07:25:06Z</time>
      </trkpt>
      <trkpt lat="46.53446" lon="5.31293">
        <ele>196</ele>
        <time>2022-09-01T07:25:08Z</time>
      </trkpt>
      <trkpt lat="46.53419" lon="5.31352">
        <ele>195</ele>
        <time>2022-09-01T07:25:14Z</time>
      </trkpt>
      <trkpt lat="46.53396" lon="5.31398">
        <ele>194.6</ele>
        <time>2022-09-01T07:25:19Z</time>
      </trkpt>
      <trkpt lat="46.5337" lon="5.31445">
        <ele>194.8</ele>
        <time>2022-09-01T07:25:25Z</time>
      </trkpt>
      <trkpt lat="46.53352" lon="5.31466">
        <ele>195.2</ele>
        <time>2022-09-01T07:25:28Z</time>
      </trkpt>
      <trkpt lat="46.53345" lon="5.31472">
        <ele>195.4</ele>
        <time>2022-09-01T07:25:29Z</time>
      </trkpt>
      <trkpt lat="46.5331" lon="5.31505">
        <ele>195.2</ele>
        <time>2022-09-01T07:25:34Z</time>
      </trkpt>
      <trkpt lat="46.53266" lon="5.31547">
        <ele>195.2</ele>
        <time>2022-09-01T07:25:41Z</time>
      </trkpt>
      <trkpt lat="46.5324" lon="5.31568">
        <ele>196</ele>
        <time>2022-09-01T07:25:46Z</time>
      </trkpt>
      <trkpt lat="46.53235" lon="5.3157">
        <ele>196.2</ele>
        <time>2022-09-01T07:25:47Z</time>
      </trkpt>
      <trkpt lat="46.53221" lon="5.31577">
        <ele>196.8</ele>
        <time>2022-09-01T07:25:50Z</time>
      </trkpt>
      <trkpt lat="46.53217" lon="5.3158">
        <ele>197.4</ele>
        <time>2022-09-01T07:25:51Z</time>
      </trkpt>
      <trkpt lat="46.53199" lon="5.3159">
        <ele>198.2</ele>
        <time>2022-09-01T07:25:55Z</time>
      </trkpt>
      <trkpt lat="46.5319" lon="5.31596">
        <ele>198.8</ele>
        <time>2022-09-01T07:25:57Z</time>
      </trkpt>
      <trkpt lat="46.53182" lon="5.316">
        <ele>199.6</ele>
        <time>2022-09-01T07:25:59Z</time>
      </trkpt>
      <trkpt lat="46.53177" lon="5.31602">
        <ele>199.8</ele>
        <time>2022-09-01T07:26:00Z</time>
      </trkpt>
      <trkpt lat="46.53163" lon="5.31605">
        <ele>200.2</ele>
        <time>2022-09-01T07:26:02Z</time>
      </trkpt>
      <trkpt lat="46.53153" lon="5.31609">
        <ele>200.8</ele>
        <time>2022-09-01T07:26:04Z</time>
      </trkpt>
      <trkpt lat="46.53139" lon="5.31614">
        <ele>201.6</ele>
        <time>2022-09-01T07:26:07Z</time>
      </trkpt>
      <trkpt lat="46.53136" lon="5.31615">
        <ele>201.8</ele>
        <time>2022-09-01T07:26:08Z</time>
      </trkpt>
      <trkpt lat="46.53119" lon="5.3162">
        <ele>202.4</ele>
        <time>2022-09-01T07:26:12Z</time>
      </trkpt>
      <trkpt lat="46.5311" lon="5.31624">
        <ele>203.2</ele>
        <time>2022-09-01T07:26:14Z</time>
      </trkpt>
      <trkpt lat="46.53103" lon="5.31629">
        <ele>203.6</ele>
        <time>2022-09-01T07:26:16Z</time>
      </trkpt>
      <trkpt lat="46.53088" lon="5.31634">
        <ele>204.2</ele>
        <time>2022-09-01T07:26:19Z</time>
      </trkpt>
      <trkpt lat="46.53078" lon="5.31639">
        <ele>204.6</ele>
        <time>2022-09-01T07:26:21Z</time>
      </trkpt>
      <trkpt lat="46.5306" lon="5.31649">
        <ele>205.4</ele>
        <time>2022-09-01T07:26:25Z</time>
      </trkpt>
      <trkpt lat="46.53052" lon="5.31656">
        <ele>206</ele>
        <time>2022-09-01T07:26:27Z</time>
      </trkpt>
      <trkpt lat="46.53049" lon="5.31658">
        <ele>206.4</ele>
        <time>2022-09-01T07:26:28Z</time>
      </trkpt>
      <trkpt lat="46.53045" lon="5.31668">
        <ele>207</ele>
        <time>2022-09-01T07:26:30Z</time>
      </trkpt>
      <trkpt lat="46.53043" lon="5.31674">
        <ele>207.4</ele>
        <time>2022-09-01T07:26:31Z</time>
      </trkpt>
      <trkpt lat="46.53033" lon="5.31701">
        <ele>208.4</ele>
        <time>2022-09-01T07:26:35Z</time>
      </trkpt>
      <trkpt lat="46.53026" lon="5.31722">
        <ele>209.4</ele>
        <time>2022-09-01T07:26:38Z</time>
      </trkpt>
      <trkpt lat="46.53024" lon="5.31729">
        <ele>209.4</ele>
        <time>2022-09-01T07:26:39Z</time>
      </trkpt>
      <trkpt lat="46.53013" lon="5.31755">
        <ele>210</ele>
        <time>2022-09-01T07:26:43Z</time>
      </trkpt>
      <trkpt lat="46.5301" lon="5.31761">
        <ele>210.2</ele>
        <time>2022-09-01T07:26:44Z</time>
      </trkpt>
      <trkpt lat="46.53006" lon="5.31766">
        <ele>210.6</ele>
        <time>2022-09-01T07:26:45Z</time>
      </trkpt>
      <trkpt lat="46.52996" lon="5.31773">
        <ele>211.2</ele>
        <time>2022-09-01T07:26:47Z</time>
      </trkpt>
      <trkpt lat="46.5299" lon="5.31776">
        <ele>211.2</ele>
        <time>2022-09-01T07:26:48Z</time>
      </trkpt>
      <trkpt lat="46.52984" lon="5.31778">
        <ele>211.4</ele>
        <time>2022-09-01T07:26:49Z</time>
      </trkpt>
      <trkpt lat="46.52978" lon="5.31778">
        <ele>211.6</ele>
        <time>2022-09-01T07:26:50Z</time>
      </trkpt>
      <trkpt lat="46.52972" lon="5.31776">
        <ele>211.8</ele>
        <time>2022-09-01T07:26:51Z</time>
      </trkpt>
      <trkpt lat="46.52968" lon="5.31773">
        <ele>212</ele>
        <time>2022-09-01T07:26:52Z</time>
      </trkpt>
      <trkpt lat="46.52962" lon="5.3177">
        <ele>212</ele>
        <time>2022-09-01T07:26:53Z</time>
      </trkpt>
      <trkpt lat="46.52952" lon="5.31761">
        <ele>212.2</ele>
        <time>2022-09-01T07:26:55Z</time>
      </trkpt>
      <trkpt lat="46.52948" lon="5.31755">
        <ele>212.2</ele>
        <time>2022-09-01T07:26:56Z</time>
      </trkpt>
      <trkpt lat="46.52944" lon="5.31749">
        <ele>212.2</ele>
        <time>2022-09-01T07:26:57Z</time>
      </trkpt>
      <trkpt lat="46.52919" lon="5.31725">
        <ele>212.4</ele>
        <time>2022-09-01T07:27:02Z</time>
      </trkpt>
      <trkpt lat="46.52906" lon="5.31719">
        <ele>212.6</ele>
        <time>2022-09-01T07:27:04Z</time>
      </trkpt>
      <trkpt lat="46.52899" lon="5.31718">
        <ele>212.6</ele>
        <time>2022-09-01T07:27:05Z</time>
      </trkpt>
      <trkpt lat="46.52892" lon="5.31718">
        <ele>212.8</ele>
        <time>2022-09-01T07:27:06Z</time>
      </trkpt>
      <trkpt lat="46.52886" lon="5.31718">
        <ele>212.8</ele>
        <time>2022-09-01T07:27:07Z</time>
      </trkpt>
      <trkpt lat="46.52873" lon="5.31722">
        <ele>212.8</ele>
        <time>2022-09-01T07:27:09Z</time>
      </trkpt>
      <trkpt lat="46.52866" lon="5.31726">
        <ele>212.8</ele>
        <time>2022-09-01T07:27:10Z</time>
      </trkpt>
      <trkpt lat="46.5283" lon="5.31742">
        <ele>213</ele>
        <time>2022-09-01T07:27:16Z</time>
      </trkpt>
      <trkpt lat="46.52794" lon="5.31761">
        <ele>214</ele>
        <time>2022-09-01T07:27:22Z</time>
      </trkpt>
      <trkpt lat="46.52787" lon="5.31764">
        <ele>214</ele>
        <time>2022-09-01T07:27:23Z</time>
      </trkpt>
      <trkpt lat="46.52748" lon="5.31783">
        <ele>214.2</ele>
        <time>2022-09-01T07:27:28Z</time>
      </trkpt>
      <trkpt lat="46.52726" lon="5.31793">
        <ele>214</ele>
        <time>2022-09-01T07:27:31Z</time>
      </trkpt>
      <trkpt lat="46.52713" lon="5.31801">
        <ele>213.8</ele>
        <time>2022-09-01T07:27:33Z</time>
      </trkpt>
      <trkpt lat="46.52707" lon="5.31807">
        <ele>213.6</ele>
        <time>2022-09-01T07:27:34Z</time>
      </trkpt>
      <trkpt lat="46.52701" lon="5.31813">
        <ele>213.6</ele>
        <time>2022-09-01T07:27:35Z</time>
      </trkpt>
      <trkpt lat="46.52691" lon="5.31828">
        <ele>213.4</ele>
        <time>2022-09-01T07:27:37Z</time>
      </trkpt>
      <trkpt lat="46.52687" lon="5.31836">
        <ele>213.4</ele>
        <time>2022-09-01T07:27:38Z</time>
      </trkpt>
      <trkpt lat="46.52683" lon="5.31845">
        <ele>213.4</ele>
        <time>2022-09-01T07:27:39Z</time>
      </trkpt>
      <trkpt lat="46.52671" lon="5.31886">
        <ele>213</ele>
        <time>2022-09-01T07:27:43Z</time>
      </trkpt>
      <trkpt lat="46.52662" lon="5.31923">
        <ele>212.8</ele>
        <time>2022-09-01T07:27:46Z</time>
      </trkpt>
      <trkpt lat="46.52653" lon="5.31962">
        <ele>212</ele>
        <time>2022-09-01T07:27:49Z</time>
      </trkpt>
      <trkpt lat="46.52651" lon="5.31975">
        <ele>211.4</ele>
        <time>2022-09-01T07:27:50Z</time>
      </trkpt>
      <trkpt lat="46.5264" lon="5.32015">
        <ele>210</ele>
        <time>2022-09-01T07:27:53Z</time>
      </trkpt>
      <trkpt lat="46.52631" lon="5.32042">
        <ele>209</ele>
        <time>2022-09-01T07:27:55Z</time>
      </trkpt>
      <trkpt lat="46.52622" lon="5.32068">
        <ele>207.8</ele>
        <time>2022-09-01T07:27:57Z</time>
      </trkpt>
      <trkpt lat="46.52612" lon="5.32093">
        <ele>206.8</ele>
        <time>2022-09-01T07:27:59Z</time>
      </trkpt>
      <trkpt lat="46.52601" lon="5.32118">
        <ele>206</ele>
        <time>2022-09-01T07:28:01Z</time>
      </trkpt>
      <trkpt lat="46.52596" lon="5.3213">
        <ele>205.8</ele>
        <time>2022-09-01T07:28:02Z</time>
      </trkpt>
      <trkpt lat="46.52585" lon="5.32153">
        <ele>204.4</ele>
        <time>2022-09-01T07:28:04Z</time>
      </trkpt>
      <trkpt lat="46.52576" lon="5.32173">
        <ele>203</ele>
        <time>2022-09-01T07:28:06Z</time>
      </trkpt>
      <trkpt lat="46.52573" lon="5.32179">
        <ele>202.8</ele>
        <time>2022-09-01T07:28:07Z</time>
      </trkpt>
      <trkpt lat="46.5257" lon="5.32185">
        <ele>202</ele>
        <time>2022-09-01T07:28:08Z</time>
      </trkpt>
      <trkpt lat="46.52561" lon="5.3219">
        <ele>201.4</ele>
        <time>2022-09-01T07:28:10Z</time>
      </trkpt>
      <trkpt lat="46.52557" lon="5.32189">
        <ele>201</ele>
        <time>2022-09-01T07:28:11Z</time>
      </trkpt>
      <trkpt lat="46.52554" lon="5.32185">
        <ele>200</ele>
        <time>2022-09-01T07:28:12Z</time>
      </trkpt>
      <trkpt lat="46.52551" lon="5.32182">
        <ele>199.6</ele>
        <time>2022-09-01T07:28:13Z</time>
      </trkpt>
      <trkpt lat="46.52528" lon="5.32157">
        <ele>199.2</ele>
        <time>2022-09-01T07:28:18Z</time>
      </trkpt>
      <trkpt lat="46.5252" lon="5.32145">
        <ele>199.6</ele>
        <time>2022-09-01T07:28:20Z</time>
      </trkpt>
      <trkpt lat="46.52505" lon="5.32122">
        <ele>200.6</ele>
        <time>2022-09-01T07:28:24Z</time>
      </trkpt>
      <trkpt lat="46.52496" lon="5.32109">
        <ele>201.2</ele>
        <time>2022-09-01T07:28:26Z</time>
      </trkpt>
      <trkpt lat="46.52481" lon="5.32089">
        <ele>201.8</ele>
        <time>2022-09-01T07:28:29Z</time>
      </trkpt>
      <trkpt lat="46.52463" lon="5.32064">
        <ele>203</ele>
        <time>2022-09-01T07:28:33Z</time>
      </trkpt>
      <trkpt lat="46.52459" lon="5.32058">
        <ele>203.4</ele>
        <time>2022-09-01T07:28:34Z</time>
      </trkpt>
      <trkpt lat="46.52446" lon="5.32041">
        <ele>204.2</ele>
        <time>2022-09-01T07:28:37Z</time>
      </trkpt>
      <trkpt lat="46.52427" lon="5.32012">
        <ele>205</ele>
        <time>2022-09-01T07:28:42Z</time>
      </trkpt>
      <trkpt lat="46.52422" lon="5.32006">
        <ele>205.2</ele>
        <time>2022-09-01T07:28:43Z</time>
      </trkpt>
      <trkpt lat="46.52398" lon="5.31971">
        <ele>206.4</ele>
        <time>2022-09-01T07:28:49Z</time>
      </trkpt>
      <trkpt lat="46.52394" lon="5.31966">
        <ele>206.6</ele>
        <time>2022-09-01T07:28:50Z</time>
      </trkpt>
      <trkpt lat="46.52378" lon="5.31944">
        <ele>207.4</ele>
        <time>2022-09-01T07:28:54Z</time>
      </trkpt>
      <trkpt lat="46.52359" lon="5.31916">
        <ele>208.6</ele>
        <time>2022-09-01T07:28:59Z</time>
      </trkpt>
      <trkpt lat="46.52327" lon="5.31871">
        <ele>209.4</ele>
        <time>2022-09-01T07:29:07Z</time>
      </trkpt>
      <trkpt lat="46.52323" lon="5.31864">
        <ele>209.4</ele>
        <time>2022-09-01T07:29:08Z</time>
      </trkpt>
      <trkpt lat="46.52318" lon="5.31857">
        <ele>209.4</ele>
        <time>2022-09-01T07:29:09Z</time>
      </trkpt>
      <trkpt lat="46.52296" lon="5.31825">
        <ele>209</ele>
        <time>2022-09-01T07:29:13Z</time>
      </trkpt>
      <trkpt lat="46.52266" lon="5.31782">
        <ele>208</ele>
        <time>2022-09-01T07:29:18Z</time>
      </trkpt>
      <trkpt lat="46.5226" lon="5.31773">
        <ele>208</ele>
        <time>2022-09-01T07:29:19Z</time>
      </trkpt>
      <trkpt lat="46.52234" lon="5.31736">
        <ele>207</ele>
        <time>2022-09-01T07:29:23Z</time>
      </trkpt>
      <trkpt lat="46.52221" lon="5.31717">
        <ele>206.6</ele>
        <time>2022-09-01T07:29:25Z</time>
      </trkpt>
      <trkpt lat="46.52207" lon="5.31699">
        <ele>206</ele>
        <time>2022-09-01T07:29:27Z</time>
      </trkpt>
      <trkpt lat="46.52174" lon="5.31651">
        <ele>204.8</ele>
        <time>2022-09-01T07:29:32Z</time>
      </trkpt>
      <trkpt lat="46.52147" lon="5.31613">
        <ele>203.8</ele>
        <time>2022-09-01T07:29:36Z</time>
      </trkpt>
      <trkpt lat="46.5212" lon="5.31574">
        <ele>203</ele>
        <time>2022-09-01T07:29:40Z</time>
      </trkpt>
      <trkpt lat="46.52113" lon="5.31563">
        <ele>202.4</ele>
        <time>2022-09-01T07:29:41Z</time>
      </trkpt>
      <trkpt lat="46.52084" lon="5.31523">
        <ele>201.2</ele>
        <time>2022-09-01T07:29:45Z</time>
      </trkpt>
      <trkpt lat="46.5207" lon="5.31503">
        <ele>200.6</ele>
        <time>2022-09-01T07:29:47Z</time>
      </trkpt>
      <trkpt lat="46.52063" lon="5.31493">
        <ele>200</ele>
        <time>2022-09-01T07:29:48Z</time>
      </trkpt>
      <trkpt lat="46.52034" lon="5.31453">
        <ele>198.6</ele>
        <time>2022-09-01T07:29:52Z</time>
      </trkpt>
      <trkpt lat="46.52001" lon="5.31402">
        <ele>197.4</ele>
        <time>2022-09-01T07:29:57Z</time>
      </trkpt>
      <trkpt lat="46.51975" lon="5.31364">
        <ele>196</ele>
        <time>2022-09-01T07:30:01Z</time>
      </trkpt>
      <trkpt lat="46.51943" lon="5.31318">
        <ele>195.6</ele>
        <time>2022-09-01T07:30:06Z</time>
      </trkpt>
      <trkpt lat="46.51916" lon="5.31277">
        <ele>194.8</ele>
        <time>2022-09-01T07:30:11Z</time>
      </trkpt>
      <trkpt lat="46.51891" lon="5.31238">
        <ele>194.4</ele>
        <time>2022-09-01T07:30:15Z</time>
      </trkpt>
      <trkpt lat="46.51851" lon="5.31188">
        <ele>194.4</ele>
        <time>2022-09-01T07:30:22Z</time>
      </trkpt>
      <trkpt lat="46.51838" lon="5.3118">
        <ele>194.4</ele>
        <time>2022-09-01T07:30:24Z</time>
      </trkpt>
      <trkpt lat="46.51824" lon="5.31176">
        <ele>194.4</ele>
        <time>2022-09-01T07:30:26Z</time>
      </trkpt>
      <trkpt lat="46.51787" lon="5.31173">
        <ele>195</ele>
        <time>2022-09-01T07:30:32Z</time>
      </trkpt>
      <trkpt lat="46.51747" lon="5.31173">
        <ele>196.4</ele>
        <time>2022-09-01T07:30:39Z</time>
      </trkpt>
      <trkpt lat="46.51741" lon="5.31172">
        <ele>196.4</ele>
        <time>2022-09-01T07:30:40Z</time>
      </trkpt>
      <trkpt lat="46.51717" lon="5.31164">
        <ele>197.6</ele>
        <time>2022-09-01T07:30:45Z</time>
      </trkpt>
      <trkpt lat="46.51712" lon="5.31161">
        <ele>197.8</ele>
        <time>2022-09-01T07:30:46Z</time>
      </trkpt>
      <trkpt lat="46.517" lon="5.31151">
        <ele>198.8</ele>
        <time>2022-09-01T07:30:49Z</time>
      </trkpt>
      <trkpt lat="46.51693" lon="5.31143">
        <ele>199</ele>
        <time>2022-09-01T07:30:51Z</time>
      </trkpt>
      <trkpt lat="46.5169" lon="5.31137">
        <ele>199.2</ele>
        <time>2022-09-01T07:30:52Z</time>
      </trkpt>
      <trkpt lat="46.5168" lon="5.31119">
        <ele>200</ele>
        <time>2022-09-01T07:30:55Z</time>
      </trkpt>
      <trkpt lat="46.51673" lon="5.31106">
        <ele>200.4</ele>
        <time>2022-09-01T07:30:57Z</time>
      </trkpt>
      <trkpt lat="46.51668" lon="5.31102">
        <ele>200.6</ele>
        <time>2022-09-01T07:30:58Z</time>
      </trkpt>
      <trkpt lat="46.51663" lon="5.311">
        <ele>200.8</ele>
        <time>2022-09-01T07:30:59Z</time>
      </trkpt>
      <trkpt lat="46.51652" lon="5.31101">
        <ele>201.2</ele>
        <time>2022-09-01T07:31:01Z</time>
      </trkpt>
      <trkpt lat="46.5164" lon="5.31103">
        <ele>201.2</ele>
        <time>2022-09-01T07:31:03Z</time>
      </trkpt>
      <trkpt lat="46.51628" lon="5.31099">
        <ele>201.2</ele>
        <time>2022-09-01T07:31:05Z</time>
      </trkpt>
      <trkpt lat="46.51591" lon="5.3108">
        <ele>201.2</ele>
        <time>2022-09-01T07:31:10Z</time>
      </trkpt>
      <trkpt lat="46.51545" lon="5.31072">
        <ele>200.6</ele>
        <time>2022-09-01T07:31:16Z</time>
      </trkpt>
      <trkpt lat="46.51537" lon="5.31071">
        <ele>200.2</ele>
        <time>2022-09-01T07:31:17Z</time>
      </trkpt>
      <trkpt lat="46.51484" lon="5.31068">
        <ele>199</ele>
        <time>2022-09-01T07:31:24Z</time>
      </trkpt>
      <trkpt lat="46.51477" lon="5.31067">
        <ele>199.2</ele>
        <time>2022-09-01T07:31:25Z</time>
      </trkpt>
      <trkpt lat="46.51418" lon="5.31069">
        <ele>199.2</ele>
        <time>2022-09-01T07:31:33Z</time>
      </trkpt>
      <trkpt lat="46.51357" lon="5.31072">
        <ele>199.2</ele>
        <time>2022-09-01T07:31:42Z</time>
      </trkpt>
      <trkpt lat="46.5134" lon="5.31072">
        <ele>199.2</ele>
        <time>2022-09-01T07:31:44Z</time>
      </trkpt>
      <trkpt lat="46.5128" lon="5.31075">
        <ele>199</ele>
        <time>2022-09-01T07:31:52Z</time>
      </trkpt>
      <trkpt lat="46.51265" lon="5.31077">
        <ele>199</ele>
        <time>2022-09-01T07:31:54Z</time>
      </trkpt>
      <trkpt lat="46.51258" lon="5.31079">
        <ele>199</ele>
        <time>2022-09-01T07:31:55Z</time>
      </trkpt>
      <trkpt lat="46.51244" lon="5.31088">
        <ele>198.8</ele>
        <time>2022-09-01T07:31:57Z</time>
      </trkpt>
      <trkpt lat="46.51238" lon="5.31093">
        <ele>198.8</ele>
        <time>2022-09-01T07:31:58Z</time>
      </trkpt>
      <trkpt lat="46.51214" lon="5.31125">
        <ele>198.8</ele>
        <time>2022-09-01T07:32:03Z</time>
      </trkpt>
      <trkpt lat="46.51205" lon="5.31137">
        <ele>199</ele>
        <time>2022-09-01T07:32:05Z</time>
      </trkpt>
      <trkpt lat="46.51196" lon="5.31146">
        <ele>199.6</ele>
        <time>2022-09-01T07:32:07Z</time>
      </trkpt>
      <trkpt lat="46.51179" lon="5.31165">
        <ele>200</ele>
        <time>2022-09-01T07:32:11Z</time>
      </trkpt>
      <trkpt lat="46.51173" lon="5.31169">
        <ele>200.2</ele>
        <time>2022-09-01T07:32:12Z</time>
      </trkpt>
      <trkpt lat="46.51168" lon="5.31175">
        <ele>200.4</ele>
        <time>2022-09-01T07:32:13Z</time>
      </trkpt>
      <trkpt lat="46.51158" lon="5.31187">
        <ele>200.8</ele>
        <time>2022-09-01T07:32:15Z</time>
      </trkpt>
      <trkpt lat="46.51152" lon="5.31194">
        <ele>200.8</ele>
        <time>2022-09-01T07:32:16Z</time>
      </trkpt>
      <trkpt lat="46.51132" lon="5.31219">
        <ele>201</ele>
        <time>2022-09-01T07:32:20Z</time>
      </trkpt>
      <trkpt lat="46.51128" lon="5.31226">
        <ele>201.2</ele>
        <time>2022-09-01T07:32:21Z</time>
      </trkpt>
      <trkpt lat="46.51123" lon="5.31232">
        <ele>201.2</ele>
        <time>2022-09-01T07:32:22Z</time>
      </trkpt>
      <trkpt lat="46.51115" lon="5.31243">
        <ele>201.4</ele>
        <time>2022-09-01T07:32:24Z</time>
      </trkpt>
      <trkpt lat="46.51111" lon="5.31248">
        <ele>201.6</ele>
        <time>2022-09-01T07:32:25Z</time>
      </trkpt>
      <trkpt lat="46.51083" lon="5.31276">
        <ele>202</ele>
        <time>2022-09-01T07:32:30Z</time>
      </trkpt>
      <trkpt lat="46.51079" lon="5.31282">
        <ele>202.2</ele>
        <time>2022-09-01T07:32:31Z</time>
      </trkpt>
      <trkpt lat="46.51071" lon="5.31299">
        <ele>202.4</ele>
        <time>2022-09-01T07:32:33Z</time>
      </trkpt>
      <trkpt lat="46.51066" lon="5.31316">
        <ele>202.8</ele>
        <time>2022-09-01T07:32:35Z</time>
      </trkpt>
      <trkpt lat="46.51065" lon="5.31332">
        <ele>203.4</ele>
        <time>2022-09-01T07:32:37Z</time>
      </trkpt>
      <trkpt lat="46.51065" lon="5.3134">
        <ele>203.6</ele>
        <time>2022-09-01T07:32:38Z</time>
      </trkpt>
      <trkpt lat="46.51066" lon="5.31349">
        <ele>203.8</ele>
        <time>2022-09-01T07:32:39Z</time>
      </trkpt>
      <trkpt lat="46.51066" lon="5.31378">
        <ele>204.4</ele>
        <time>2022-09-01T07:32:42Z</time>
      </trkpt>
      <trkpt lat="46.51064" lon="5.31404">
        <ele>205</ele>
        <time>2022-09-01T07:32:45Z</time>
      </trkpt>
      <trkpt lat="46.51063" lon="5.31412">
        <ele>205.4</ele>
        <time>2022-09-01T07:32:46Z</time>
      </trkpt>
      <trkpt lat="46.51062" lon="5.3142">
        <ele>205.4</ele>
        <time>2022-09-01T07:32:47Z</time>
      </trkpt>
      <trkpt lat="46.51059" lon="5.31437">
        <ele>205.6</ele>
        <time>2022-09-01T07:32:49Z</time>
      </trkpt>
      <trkpt lat="46.5105" lon="5.31469">
        <ele>206.6</ele>
        <time>2022-09-01T07:32:53Z</time>
      </trkpt>
      <trkpt lat="46.51044" lon="5.31498">
        <ele>207.2</ele>
        <time>2022-09-01T07:32:57Z</time>
      </trkpt>
      <trkpt lat="46.51041" lon="5.31513">
        <ele>207.8</ele>
        <time>2022-09-01T07:32:59Z</time>
      </trkpt>
      <trkpt lat="46.51033" lon="5.3154">
        <ele>208.4</ele>
        <time>2022-09-01T07:33:03Z</time>
      </trkpt>
      <trkpt lat="46.5103" lon="5.31546">
        <ele>208.6</ele>
        <time>2022-09-01T07:33:04Z</time>
      </trkpt>
      <trkpt lat="46.51027" lon="5.31552">
        <ele>208.8</ele>
        <time>2022-09-01T07:33:05Z</time>
      </trkpt>
      <trkpt lat="46.51019" lon="5.31563">
        <ele>209.2</ele>
        <time>2022-09-01T07:33:07Z</time>
      </trkpt>
      <trkpt lat="46.5101" lon="5.31572">
        <ele>209.6</ele>
        <time>2022-09-01T07:33:09Z</time>
      </trkpt>
      <trkpt lat="46.51005" lon="5.31577">
        <ele>209.8</ele>
        <time>2022-09-01T07:33:10Z</time>
      </trkpt>
      <trkpt lat="46.50984" lon="5.31599">
        <ele>210.2</ele>
        <time>2022-09-01T07:33:14Z</time>
      </trkpt>
      <trkpt lat="46.50938" lon="5.31646">
        <ele>209.8</ele>
        <time>2022-09-01T07:33:22Z</time>
      </trkpt>
      <trkpt lat="46.50906" lon="5.31679">
        <ele>209.6</ele>
        <time>2022-09-01T07:33:28Z</time>
      </trkpt>
      <trkpt lat="46.50882" lon="5.31703">
        <ele>210.4</ele>
        <time>2022-09-01T07:33:33Z</time>
      </trkpt>
      <trkpt lat="46.50867" lon="5.31718">
        <ele>210.8</ele>
        <time>2022-09-01T07:33:36Z</time>
      </trkpt>
      <trkpt lat="46.50852" lon="5.31731">
        <ele>211.2</ele>
        <time>2022-09-01T07:33:39Z</time>
      </trkpt>
      <trkpt lat="46.50845" lon="5.31734">
        <ele>211.2</ele>
        <time>2022-09-01T07:33:40Z</time>
      </trkpt>
      <trkpt lat="46.50838" lon="5.31737">
        <ele>211.2</ele>
        <time>2022-09-01T07:33:41Z</time>
      </trkpt>
      <trkpt lat="46.50829" lon="5.31736">
        <ele>211.2</ele>
        <time>2022-09-01T07:33:43Z</time>
      </trkpt>
      <trkpt lat="46.50803" lon="5.31719">
        <ele>211</ele>
        <time>2022-09-01T07:33:46Z</time>
      </trkpt>
      <trkpt lat="46.50776" lon="5.317">
        <ele>211</ele>
        <time>2022-09-01T07:33:50Z</time>
      </trkpt>
      <trkpt lat="46.5076" lon="5.31696">
        <ele>210.4</ele>
        <time>2022-09-01T07:33:52Z</time>
      </trkpt>
      <trkpt lat="46.50714" lon="5.317">
        <ele>209.6</ele>
        <time>2022-09-01T07:33:58Z</time>
      </trkpt>
      <trkpt lat="46.50669" lon="5.31706">
        <ele>209.6</ele>
        <time>2022-09-01T07:34:04Z</time>
      </trkpt>
      <trkpt lat="46.50662" lon="5.31709">
        <ele>209.6</ele>
        <time>2022-09-01T07:34:05Z</time>
      </trkpt>
      <trkpt lat="46.50649" lon="5.31718">
        <ele>209.6</ele>
        <time>2022-09-01T07:34:07Z</time>
      </trkpt>
      <trkpt lat="46.5064" lon="5.31733">
        <ele>209.6</ele>
        <time>2022-09-01T07:34:09Z</time>
      </trkpt>
      <trkpt lat="46.50626" lon="5.3177">
        <ele>210</ele>
        <time>2022-09-01T07:34:13Z</time>
      </trkpt>
      <trkpt lat="46.50622" lon="5.3178">
        <ele>210</ele>
        <time>2022-09-01T07:34:14Z</time>
      </trkpt>
      <trkpt lat="46.50613" lon="5.3181">
        <ele>210</ele>
        <time>2022-09-01T07:34:17Z</time>
      </trkpt>
      <trkpt lat="46.50588" lon="5.31874">
        <ele>209.2</ele>
        <time>2022-09-01T07:34:23Z</time>
      </trkpt>
      <trkpt lat="46.50575" lon="5.31911">
        <ele>208.6</ele>
        <time>2022-09-01T07:34:26Z</time>
      </trkpt>
      <trkpt lat="46.50562" lon="5.3195">
        <ele>207.4</ele>
        <time>2022-09-01T07:34:29Z</time>
      </trkpt>
      <trkpt lat="46.50551" lon="5.31976">
        <ele>206.8</ele>
        <time>2022-09-01T07:34:31Z</time>
      </trkpt>
      <trkpt lat="46.50545" lon="5.31988">
        <ele>206.2</ele>
        <time>2022-09-01T07:34:32Z</time>
      </trkpt>
      <trkpt lat="46.50538" lon="5.32">
        <ele>206</ele>
        <time>2022-09-01T07:34:33Z</time>
      </trkpt>
      <trkpt lat="46.50524" lon="5.32022">
        <ele>205</ele>
        <time>2022-09-01T07:34:35Z</time>
      </trkpt>
      <trkpt lat="46.5051" lon="5.32043">
        <ele>203.8</ele>
        <time>2022-09-01T07:34:37Z</time>
      </trkpt>
      <trkpt lat="46.50493" lon="5.32075">
        <ele>202.8</ele>
        <time>2022-09-01T07:34:40Z</time>
      </trkpt>
      <trkpt lat="46.50484" lon="5.32097">
        <ele>201.6</ele>
        <time>2022-09-01T07:34:42Z</time>
      </trkpt>
      <trkpt lat="46.50473" lon="5.32129">
        <ele>201.4</ele>
        <time>2022-09-01T07:34:45Z</time>
      </trkpt>
      <trkpt lat="46.5046" lon="5.3217">
        <ele>201</ele>
        <time>2022-09-01T07:34:49Z</time>
      </trkpt>
      <trkpt lat="46.50455" lon="5.32178">
        <ele>201</ele>
        <time>2022-09-01T07:34:50Z</time>
      </trkpt>
      <trkpt lat="46.5045" lon="5.32184">
        <ele>201</ele>
        <time>2022-09-01T07:34:51Z</time>
      </trkpt>
      <trkpt lat="46.5044" lon="5.32191">
        <ele>200.8</ele>
        <time>2022-09-01T07:34:53Z</time>
      </trkpt>
      <trkpt lat="46.50432" lon="5.32195">
        <ele>200.8</ele>
        <time>2022-09-01T07:34:56Z</time>
      </trkpt>
      <trkpt lat="46.5043" lon="5.32198">
        <ele>200.6</ele>
        <time>2022-09-01T07:34:57Z</time>
      </trkpt>
      <trkpt lat="46.50429" lon="5.32203">
        <ele>200.6</ele>
        <time>2022-09-01T07:34:58Z</time>
      </trkpt>
      <trkpt lat="46.50429" lon="5.32208">
        <ele>200.6</ele>
        <time>2022-09-01T07:34:59Z</time>
      </trkpt>
      <trkpt lat="46.50429" lon="5.3223">
        <ele>200.4</ele>
        <time>2022-09-01T07:35:02Z</time>
      </trkpt>
      <trkpt lat="46.50429" lon="5.32247">
        <ele>200.2</ele>
        <time>2022-09-01T07:35:04Z</time>
      </trkpt>
      <trkpt lat="46.5043" lon="5.32265">
        <ele>200.2</ele>
        <time>2022-09-01T07:35:06Z</time>
      </trkpt>
      <trkpt lat="46.50432" lon="5.32287">
        <ele>200.2</ele>
        <time>2022-09-01T07:35:09Z</time>
      </trkpt>
      <trkpt lat="46.50443" lon="5.32341">
        <ele>200.6</ele>
        <time>2022-09-01T07:35:14Z</time>
      </trkpt>
      <trkpt lat="46.50461" lon="5.32423">
        <ele>200.8</ele>
        <time>2022-09-01T07:35:22Z</time>
      </trkpt>
      <trkpt lat="46.50468" lon="5.32486">
        <ele>200.8</ele>
        <time>2022-09-01T07:35:28Z</time>
      </trkpt>
      <trkpt lat="46.50473" lon="5.32572">
        <ele>201.6</ele>
        <time>2022-09-01T07:35:37Z</time>
      </trkpt>
      <trkpt lat="46.50475" lon="5.32654">
        <ele>202.4</ele>
        <time>2022-09-01T07:35:46Z</time>
      </trkpt>
      <trkpt lat="46.50475" lon="5.32678">
        <ele>202.8</ele>
        <time>2022-09-01T07:35:49Z</time>
      </trkpt>
      <trkpt lat="46.50474" lon="5.32733">
        <ele>203.6</ele>
        <time>2022-09-01T07:35:55Z</time>
      </trkpt>
      <trkpt lat="46.50473" lon="5.32778">
        <ele>204</ele>
        <time>2022-09-01T07:36:00Z</time>
      </trkpt>
      <trkpt lat="46.50471" lon="5.32841">
        <ele>204.4</ele>
        <time>2022-09-01T07:36:07Z</time>
      </trkpt>
      <trkpt lat="46.5047" lon="5.32884">
        <ele>205</ele>
        <time>2022-09-01T07:36:12Z</time>
      </trkpt>
      <trkpt lat="46.5047" lon="5.32904">
        <ele>205.2</ele>
        <time>2022-09-01T07:36:15Z</time>
      </trkpt>
      <trkpt lat="46.50469" lon="5.32915">
        <ele>205.6</ele>
        <time>2022-09-01T07:36:16Z</time>
      </trkpt>
      <trkpt lat="46.5047" lon="5.32937">
        <ele>206</ele>
        <time>2022-09-01T07:36:19Z</time>
      </trkpt>
      <trkpt lat="46.5047" lon="5.32944">
        <ele>206.2</ele>
        <time>2022-09-01T07:36:20Z</time>
      </trkpt>
      <trkpt lat="46.5047" lon="5.32965">
        <ele>207.2</ele>
        <time>2022-09-01T07:36:23Z</time>
      </trkpt>
      <trkpt lat="46.5047" lon="5.32986">
        <ele>208</ele>
        <time>2022-09-01T07:36:26Z</time>
      </trkpt>
      <trkpt lat="46.50471" lon="5.32993">
        <ele>208</ele>
        <time>2022-09-01T07:36:27Z</time>
      </trkpt>
      <trkpt lat="46.50471" lon="5.33">
        <ele>208.4</ele>
        <time>2022-09-01T07:36:28Z</time>
      </trkpt>
      <trkpt lat="46.50471" lon="5.33026">
        <ele>209.4</ele>
        <time>2022-09-01T07:36:32Z</time>
      </trkpt>
      <trkpt lat="46.5047" lon="5.33046">
        <ele>210.2</ele>
        <time>2022-09-01T07:36:35Z</time>
      </trkpt>
      <trkpt lat="46.5047" lon="5.33058">
        <ele>210.6</ele>
        <time>2022-09-01T07:36:37Z</time>
      </trkpt>
      <trkpt lat="46.5047" lon="5.33078">
        <ele>211.6</ele>
        <time>2022-09-01T07:36:40Z</time>
      </trkpt>
      <trkpt lat="46.5047" lon="5.33084">
        <ele>211.8</ele>
        <time>2022-09-01T07:36:41Z</time>
      </trkpt>
      <trkpt lat="46.50469" lon="5.33091">
        <ele>212.2</ele>
        <time>2022-09-01T07:36:42Z</time>
      </trkpt>
      <trkpt lat="46.50469" lon="5.3311">
        <ele>213</ele>
        <time>2022-09-01T07:36:45Z</time>
      </trkpt>
      <trkpt lat="46.50469" lon="5.33128">
        <ele>214</ele>
        <time>2022-09-01T07:36:48Z</time>
      </trkpt>
      <trkpt lat="46.50468" lon="5.33142">
        <ele>214.4</ele>
        <time>2022-09-01T07:36:50Z</time>
      </trkpt>
      <trkpt lat="46.50467" lon="5.33162">
        <ele>215.4</ele>
        <time>2022-09-01T07:36:53Z</time>
      </trkpt>
      <trkpt lat="46.50466" lon="5.33177">
        <ele>216</ele>
        <time>2022-09-01T07:36:55Z</time>
      </trkpt>
      <trkpt lat="46.50465" lon="5.33202">
        <ele>216.8</ele>
        <time>2022-09-01T07:36:58Z</time>
      </trkpt>
      <trkpt lat="46.50465" lon="5.33211">
        <ele>216.8</ele>
        <time>2022-09-01T07:36:59Z</time>
      </trkpt>
      <trkpt lat="46.50466" lon="5.33247">
        <ele>217.4</ele>
        <time>2022-09-01T07:37:03Z</time>
      </trkpt>
      <trkpt lat="46.50465" lon="5.33274">
        <ele>217.6</ele>
        <time>2022-09-01T07:37:06Z</time>
      </trkpt>
      <trkpt lat="46.50465" lon="5.33281">
        <ele>217.6</ele>
        <time>2022-09-01T07:37:07Z</time>
      </trkpt>
      <trkpt lat="46.50464" lon="5.33324">
        <ele>217.8</ele>
        <time>2022-09-01T07:37:11Z</time>
      </trkpt>
      <trkpt lat="46.50459" lon="5.33375">
        <ele>217.8</ele>
        <time>2022-09-01T07:37:16Z</time>
      </trkpt>
      <trkpt lat="46.50446" lon="5.33419">
        <ele>217.4</ele>
        <time>2022-09-01T07:37:21Z</time>
      </trkpt>
      <trkpt lat="46.50433" lon="5.33441">
        <ele>217.4</ele>
        <time>2022-09-01T07:37:24Z</time>
      </trkpt>
      <trkpt lat="46.50423" lon="5.33453">
        <ele>217.4</ele>
        <time>2022-09-01T07:37:26Z</time>
      </trkpt>
      <trkpt lat="46.50389" lon="5.33489">
        <ele>218.6</ele>
        <time>2022-09-01T07:37:33Z</time>
      </trkpt>
      <trkpt lat="46.50379" lon="5.33499">
        <ele>218.8</ele>
        <time>2022-09-01T07:37:35Z</time>
      </trkpt>
      <trkpt lat="46.50347" lon="5.33531">
        <ele>219.4</ele>
        <time>2022-09-01T07:37:41Z</time>
      </trkpt>
      <trkpt lat="46.50336" lon="5.33542">
        <ele>219.6</ele>
        <time>2022-09-01T07:37:43Z</time>
      </trkpt>
      <trkpt lat="46.5031" lon="5.3357">
        <ele>220.2</ele>
        <time>2022-09-01T07:37:48Z</time>
      </trkpt>
      <trkpt lat="46.50263" lon="5.33622">
        <ele>220.6</ele>
        <time>2022-09-01T07:37:57Z</time>
      </trkpt>
      <trkpt lat="46.50257" lon="5.33628">
        <ele>220.6</ele>
        <time>2022-09-01T07:37:58Z</time>
      </trkpt>
      <trkpt lat="46.50217" lon="5.33672">
        <ele>221.4</ele>
        <time>2022-09-01T07:38:06Z</time>
      </trkpt>
      <trkpt lat="46.50211" lon="5.33678">
        <ele>221.6</ele>
        <time>2022-09-01T07:38:07Z</time>
      </trkpt>
      <trkpt lat="46.50202" lon="5.33689">
        <ele>221.8</ele>
        <time>2022-09-01T07:38:09Z</time>
      </trkpt>
      <trkpt lat="46.50186" lon="5.33705">
        <ele>222</ele>
        <time>2022-09-01T07:38:12Z</time>
      </trkpt>
      <trkpt lat="46.5015" lon="5.33741">
        <ele>222.2</ele>
        <time>2022-09-01T07:38:18Z</time>
      </trkpt>
      <trkpt lat="46.50138" lon="5.3375">
        <ele>222.2</ele>
        <time>2022-09-01T07:38:20Z</time>
      </trkpt>
      <trkpt lat="46.50126" lon="5.33762">
        <ele>222.2</ele>
        <time>2022-09-01T07:38:22Z</time>
      </trkpt>
      <trkpt lat="46.50086" lon="5.33808">
        <ele>221.6</ele>
        <time>2022-09-01T07:38:29Z</time>
      </trkpt>
      <trkpt lat="46.50049" lon="5.3385">
        <ele>221.8</ele>
        <time>2022-09-01T07:38:36Z</time>
      </trkpt>
      <trkpt lat="46.50021" lon="5.33882">
        <ele>222.4</ele>
        <time>2022-09-01T07:38:42Z</time>
      </trkpt>
      <trkpt lat="46.50016" lon="5.33887">
        <ele>222.6</ele>
        <time>2022-09-01T07:38:43Z</time>
      </trkpt>
      <trkpt lat="46.49985" lon="5.33919">
        <ele>223.6</ele>
        <time>2022-09-01T07:38:49Z</time>
      </trkpt>
      <trkpt lat="46.4998" lon="5.33925">
        <ele>223.6</ele>
        <time>2022-09-01T07:38:50Z</time>
      </trkpt>
      <trkpt lat="46.49975" lon="5.3393">
        <ele>223.6</ele>
        <time>2022-09-01T07:38:51Z</time>
      </trkpt>
      <trkpt lat="46.49953" lon="5.33954">
        <ele>223.8</ele>
        <time>2022-09-01T07:38:55Z</time>
      </trkpt>
      <trkpt lat="46.49914" lon="5.33995">
        <ele>223.8</ele>
        <time>2022-09-01T07:39:01Z</time>
      </trkpt>
      <trkpt lat="46.49873" lon="5.34042">
        <ele>222.4</ele>
        <time>2022-09-01T07:39:07Z</time>
      </trkpt>
      <trkpt lat="46.49866" lon="5.3405">
        <ele>222.2</ele>
        <time>2022-09-01T07:39:08Z</time>
      </trkpt>
      <trkpt lat="46.49831" lon="5.341">
        <ele>221.6</ele>
        <time>2022-09-01T07:39:14Z</time>
      </trkpt>
      <trkpt lat="46.49825" lon="5.34109">
        <ele>221.4</ele>
        <time>2022-09-01T07:39:15Z</time>
      </trkpt>
      <trkpt lat="46.49795" lon="5.34159">
        <ele>221.2</ele>
        <time>2022-09-01T07:39:21Z</time>
      </trkpt>
      <trkpt lat="46.49775" lon="5.34195">
        <ele>221.4</ele>
        <time>2022-09-01T07:39:25Z</time>
      </trkpt>
      <trkpt lat="46.49765" lon="5.34214">
        <ele>221.2</ele>
        <time>2022-09-01T07:39:27Z</time>
      </trkpt>
      <trkpt lat="46.49738" lon="5.34257">
        <ele>221.2</ele>
        <time>2022-09-01T07:39:32Z</time>
      </trkpt>
      <trkpt lat="46.49729" lon="5.34275">
        <ele>221</ele>
        <time>2022-09-01T07:39:34Z</time>
      </trkpt>
      <trkpt lat="46.49709" lon="5.34321">
        <ele>220.8</ele>
        <time>2022-09-01T07:39:39Z</time>
      </trkpt>
      <trkpt lat="46.49702" lon="5.34341">
        <ele>220.8</ele>
        <time>2022-09-01T07:39:41Z</time>
      </trkpt>
      <trkpt lat="46.49682" lon="5.34408">
        <ele>220.4</ele>
        <time>2022-09-01T07:39:47Z</time>
      </trkpt>
      <trkpt lat="46.49668" lon="5.34456">
        <ele>219.4</ele>
        <time>2022-09-01T07:39:51Z</time>
      </trkpt>
      <trkpt lat="46.49655" lon="5.34503">
        <ele>218.4</ele>
        <time>2022-09-01T07:39:55Z</time>
      </trkpt>
      <trkpt lat="46.49652" lon="5.34514">
        <ele>218.2</ele>
        <time>2022-09-01T07:39:56Z</time>
      </trkpt>
      <trkpt lat="46.49648" lon="5.34525">
        <ele>218</ele>
        <time>2022-09-01T07:39:57Z</time>
      </trkpt>
      <trkpt lat="46.49636" lon="5.34543">
        <ele>217.4</ele>
        <time>2022-09-01T07:39:59Z</time>
      </trkpt>
      <trkpt lat="46.49622" lon="5.34556">
        <ele>217</ele>
        <time>2022-09-01T07:40:01Z</time>
      </trkpt>
      <trkpt lat="46.49608" lon="5.3457">
        <ele>216.8</ele>
        <time>2022-09-01T07:40:03Z</time>
      </trkpt>
      <trkpt lat="46.49602" lon="5.34579">
        <ele>216.8</ele>
        <time>2022-09-01T07:40:04Z</time>
      </trkpt>
      <trkpt lat="46.49587" lon="5.34604">
        <ele>216.2</ele>
        <time>2022-09-01T07:40:07Z</time>
      </trkpt>
      <trkpt lat="46.49582" lon="5.34612">
        <ele>216</ele>
        <time>2022-09-01T07:40:08Z</time>
      </trkpt>
      <trkpt lat="46.49576" lon="5.3462">
        <ele>216</ele>
        <time>2022-09-01T07:40:09Z</time>
      </trkpt>
      <trkpt lat="46.49556" lon="5.34647">
        <ele>217</ele>
        <time>2022-09-01T07:40:13Z</time>
      </trkpt>
      <trkpt lat="46.49546" lon="5.34657">
        <ele>217.4</ele>
        <time>2022-09-01T07:40:15Z</time>
      </trkpt>
      <trkpt lat="46.49522" lon="5.34687">
        <ele>218</ele>
        <time>2022-09-01T07:40:21Z</time>
      </trkpt>
      <trkpt lat="46.49518" lon="5.34691">
        <ele>218.4</ele>
        <time>2022-09-01T07:40:22Z</time>
      </trkpt>
      <trkpt lat="46.49502" lon="5.34706">
        <ele>219.2</ele>
        <time>2022-09-01T07:40:26Z</time>
      </trkpt>
      <trkpt lat="46.49499" lon="5.3471">
        <ele>219.4</ele>
        <time>2022-09-01T07:40:27Z</time>
      </trkpt>
      <trkpt lat="46.49488" lon="5.34721">
        <ele>219.6</ele>
        <time>2022-09-01T07:40:30Z</time>
      </trkpt>
      <trkpt lat="46.49485" lon="5.34725">
        <ele>220.2</ele>
        <time>2022-09-01T07:40:31Z</time>
      </trkpt>
      <trkpt lat="46.49482" lon="5.34729">
        <ele>220.6</ele>
        <time>2022-09-01T07:40:32Z</time>
      </trkpt>
      <trkpt lat="46.49476" lon="5.34742">
        <ele>221.6</ele>
        <time>2022-09-01T07:40:35Z</time>
      </trkpt>
      <trkpt lat="46.49473" lon="5.34747">
        <ele>221.8</ele>
        <time>2022-09-01T07:40:36Z</time>
      </trkpt>
      <trkpt lat="46.4946" lon="5.34765">
        <ele>222.6</ele>
        <time>2022-09-01T07:40:39Z</time>
      </trkpt>
      <trkpt lat="46.49456" lon="5.34769">
        <ele>222.8</ele>
        <time>2022-09-01T07:40:40Z</time>
      </trkpt>
      <trkpt lat="46.49442" lon="5.34783">
        <ele>223.6</ele>
        <time>2022-09-01T07:40:44Z</time>
      </trkpt>
      <trkpt lat="46.49431" lon="5.34792">
        <ele>224.8</ele>
        <time>2022-09-01T07:40:47Z</time>
      </trkpt>
      <trkpt lat="46.49419" lon="5.34806">
        <ele>225.6</ele>
        <time>2022-09-01T07:40:50Z</time>
      </trkpt>
      <trkpt lat="46.49414" lon="5.34811">
        <ele>225.6</ele>
        <time>2022-09-01T07:40:51Z</time>
      </trkpt>
      <trkpt lat="46.49407" lon="5.34814">
        <ele>225.8</ele>
        <time>2022-09-01T07:40:52Z</time>
      </trkpt>
      <trkpt lat="46.49402" lon="5.34818">
        <ele>226</ele>
        <time>2022-09-01T07:40:53Z</time>
      </trkpt>
      <trkpt lat="46.49391" lon="5.3482">
        <ele>226.2</ele>
        <time>2022-09-01T07:40:55Z</time>
      </trkpt>
      <trkpt lat="46.49379" lon="5.34822">
        <ele>226.6</ele>
        <time>2022-09-01T07:40:57Z</time>
      </trkpt>
      <trkpt lat="46.49367" lon="5.34824">
        <ele>227</ele>
        <time>2022-09-01T07:40:59Z</time>
      </trkpt>
      <trkpt lat="46.49361" lon="5.34824">
        <ele>227</ele>
        <time>2022-09-01T07:41:00Z</time>
      </trkpt>
      <trkpt lat="46.49348" lon="5.34829">
        <ele>227.2</ele>
        <time>2022-09-01T07:41:02Z</time>
      </trkpt>
      <trkpt lat="46.49311" lon="5.34836">
        <ele>227.2</ele>
        <time>2022-09-01T07:41:08Z</time>
      </trkpt>
      <trkpt lat="46.49305" lon="5.34837">
        <ele>227.2</ele>
        <time>2022-09-01T07:41:09Z</time>
      </trkpt>
      <trkpt lat="46.49287" lon="5.34844">
        <ele>227.2</ele>
        <time>2022-09-01T07:41:12Z</time>
      </trkpt>
      <trkpt lat="46.49272" lon="5.34855">
        <ele>227.6</ele>
        <time>2022-09-01T07:41:15Z</time>
      </trkpt>
      <trkpt lat="46.49254" lon="5.34879">
        <ele>227.8</ele>
        <time>2022-09-01T07:41:19Z</time>
      </trkpt>
      <trkpt lat="46.49241" lon="5.34899">
        <ele>228</ele>
        <time>2022-09-01T07:41:22Z</time>
      </trkpt>
      <trkpt lat="46.49225" lon="5.34925">
        <ele>227.8</ele>
        <time>2022-09-01T07:41:26Z</time>
      </trkpt>
      <trkpt lat="46.49198" lon="5.34966">
        <ele>227.4</ele>
        <time>2022-09-01T07:41:32Z</time>
      </trkpt>
      <trkpt lat="46.49193" lon="5.34973">
        <ele>227.4</ele>
        <time>2022-09-01T07:41:33Z</time>
      </trkpt>
      <trkpt lat="46.49184" lon="5.34986">
        <ele>227.4</ele>
        <time>2022-09-01T07:41:35Z</time>
      </trkpt>
      <trkpt lat="46.49176" lon="5.34996">
        <ele>227.4</ele>
        <time>2022-09-01T07:41:37Z</time>
      </trkpt>
      <trkpt lat="46.49165" lon="5.35006">
        <ele>227.4</ele>
        <time>2022-09-01T07:41:39Z</time>
      </trkpt>
      <trkpt lat="46.49147" lon="5.3502">
        <ele>227.4</ele>
        <time>2022-09-01T07:41:42Z</time>
      </trkpt>
      <trkpt lat="46.49125" lon="5.35039">
        <ele>228</ele>
        <time>2022-09-01T07:41:46Z</time>
      </trkpt>
      <trkpt lat="46.49115" lon="5.35049">
        <ele>228.4</ele>
        <time>2022-09-01T07:41:48Z</time>
      </trkpt>
      <trkpt lat="46.49102" lon="5.3506">
        <ele>228.6</ele>
        <time>2022-09-01T07:41:50Z</time>
      </trkpt>
      <trkpt lat="46.49086" lon="5.35071">
        <ele>228.6</ele>
        <time>2022-09-01T07:41:53Z</time>
      </trkpt>
      <trkpt lat="46.49071" lon="5.35081">
        <ele>228.8</ele>
        <time>2022-09-01T07:41:56Z</time>
      </trkpt>
      <trkpt lat="46.49048" lon="5.35104">
        <ele>229.4</ele>
        <time>2022-09-01T07:42:00Z</time>
      </trkpt>
      <trkpt lat="46.49043" lon="5.35109">
        <ele>229.8</ele>
        <time>2022-09-01T07:42:01Z</time>
      </trkpt>
      <trkpt lat="46.49037" lon="5.35117">
        <ele>230</ele>
        <time>2022-09-01T07:42:02Z</time>
      </trkpt>
      <trkpt lat="46.49029" lon="5.35132">
        <ele>230.2</ele>
        <time>2022-09-01T07:42:04Z</time>
      </trkpt>
      <trkpt lat="46.49001" lon="5.35192">
        <ele>230.2</ele>
        <time>2022-09-01T07:42:11Z</time>
      </trkpt>
      <trkpt lat="46.48973" lon="5.35258">
        <ele>229.8</ele>
        <time>2022-09-01T07:42:17Z</time>
      </trkpt>
      <trkpt lat="46.4895" lon="5.35306">
        <ele>228.6</ele>
        <time>2022-09-01T07:42:22Z</time>
      </trkpt>
      <trkpt lat="46.48928" lon="5.35354">
        <ele>227.6</ele>
        <time>2022-09-01T07:42:27Z</time>
      </trkpt>
      <trkpt lat="46.48899" lon="5.35418">
        <ele>227.4</ele>
        <time>2022-09-01T07:42:34Z</time>
      </trkpt>
      <trkpt lat="46.48875" lon="5.35472">
        <ele>227.8</ele>
        <time>2022-09-01T07:42:40Z</time>
      </trkpt>
      <trkpt lat="46.48844" lon="5.3554">
        <ele>228.2</ele>
        <time>2022-09-01T07:42:48Z</time>
      </trkpt>
      <trkpt lat="46.48825" lon="5.35586">
        <ele>228.6</ele>
        <time>2022-09-01T07:42:53Z</time>
      </trkpt>
      <trkpt lat="46.48817" lon="5.35602">
        <ele>228.8</ele>
        <time>2022-09-01T07:42:55Z</time>
      </trkpt>
      <trkpt lat="46.48792" lon="5.3566">
        <ele>228.8</ele>
        <time>2022-09-01T07:43:01Z</time>
      </trkpt>
      <trkpt lat="46.48758" lon="5.35734">
        <ele>228.6</ele>
        <time>2022-09-01T07:43:09Z</time>
      </trkpt>
      <trkpt lat="46.48734" lon="5.35789">
        <ele>228.6</ele>
        <time>2022-09-01T07:43:15Z</time>
      </trkpt>
      <trkpt lat="46.48728" lon="5.35808">
        <ele>228.6</ele>
        <time>2022-09-01T07:43:17Z</time>
      </trkpt>
      <trkpt lat="46.48724" lon="5.35817">
        <ele>228.4</ele>
        <time>2022-09-01T07:43:18Z</time>
      </trkpt>
      <trkpt lat="46.4871" lon="5.35849">
        <ele>229</ele>
        <time>2022-09-01T07:43:22Z</time>
      </trkpt>
      <trkpt lat="46.48704" lon="5.35865">
        <ele>229.4</ele>
        <time>2022-09-01T07:43:24Z</time>
      </trkpt>
      <trkpt lat="46.48697" lon="5.35881">
        <ele>229.6</ele>
        <time>2022-09-01T07:43:26Z</time>
      </trkpt>
      <trkpt lat="46.48694" lon="5.3589">
        <ele>229.8</ele>
        <time>2022-09-01T07:43:27Z</time>
      </trkpt>
      <trkpt lat="46.48688" lon="5.35907">
        <ele>230.2</ele>
        <time>2022-09-01T07:43:29Z</time>
      </trkpt>
      <trkpt lat="46.48685" lon="5.35916">
        <ele>230.4</ele>
        <time>2022-09-01T07:43:30Z</time>
      </trkpt>
      <trkpt lat="46.48682" lon="5.35934">
        <ele>230.6</ele>
        <time>2022-09-01T07:43:32Z</time>
      </trkpt>
      <trkpt lat="46.48679" lon="5.35953">
        <ele>230.8</ele>
        <time>2022-09-01T07:43:34Z</time>
      </trkpt>
      <trkpt lat="46.48668" lon="5.36022">
        <ele>231.6</ele>
        <time>2022-09-01T07:43:41Z</time>
      </trkpt>
      <trkpt lat="46.48655" lon="5.36082">
        <ele>231.6</ele>
        <time>2022-09-01T07:43:46Z</time>
      </trkpt>
      <trkpt lat="46.48642" lon="5.36149">
        <ele>230.6</ele>
        <time>2022-09-01T07:43:52Z</time>
      </trkpt>
      <trkpt lat="46.48637" lon="5.36216">
        <ele>230.2</ele>
        <time>2022-09-01T07:43:58Z</time>
      </trkpt>
      <trkpt lat="46.48628" lon="5.36287">
        <ele>230.6</ele>
        <time>2022-09-01T07:44:05Z</time>
      </trkpt>
      <trkpt lat="46.48625" lon="5.36295">
        <ele>230.8</ele>
        <time>2022-09-01T07:44:06Z</time>
      </trkpt>
      <trkpt lat="46.48622" lon="5.36303">
        <ele>231</ele>
        <time>2022-09-01T07:44:07Z</time>
      </trkpt>
      <trkpt lat="46.48613" lon="5.36314">
        <ele>231.4</ele>
        <time>2022-09-01T07:44:09Z</time>
      </trkpt>
      <trkpt lat="46.48601" lon="5.36319">
        <ele>231.8</ele>
        <time>2022-09-01T07:44:11Z</time>
      </trkpt>
      <trkpt lat="46.48586" lon="5.36321">
        <ele>232.2</ele>
        <time>2022-09-01T07:44:13Z</time>
      </trkpt>
      <trkpt lat="46.48567" lon="5.36324">
        <ele>233</ele>
        <time>2022-09-01T07:44:17Z</time>
      </trkpt>
      <trkpt lat="46.48549" lon="5.36327">
        <ele>234.4</ele>
        <time>2022-09-01T07:44:20Z</time>
      </trkpt>
      <trkpt lat="46.48531" lon="5.3633">
        <ele>235</ele>
        <time>2022-09-01T07:44:23Z</time>
      </trkpt>
      <trkpt lat="46.48505" lon="5.36334">
        <ele>235.8</ele>
        <time>2022-09-01T07:44:27Z</time>
      </trkpt>
      <trkpt lat="46.48485" lon="5.36338">
        <ele>236.4</ele>
        <time>2022-09-01T07:44:30Z</time>
      </trkpt>
      <trkpt lat="46.48459" lon="5.36342">
        <ele>237</ele>
        <time>2022-09-01T07:44:34Z</time>
      </trkpt>
      <trkpt lat="46.48427" lon="5.36349">
        <ele>237</ele>
        <time>2022-09-01T07:44:39Z</time>
      </trkpt>
      <trkpt lat="46.48414" lon="5.36354">
        <ele>237.2</ele>
        <time>2022-09-01T07:44:41Z</time>
      </trkpt>
      <trkpt lat="46.48397" lon="5.36367">
        <ele>237.6</ele>
        <time>2022-09-01T07:44:44Z</time>
      </trkpt>
      <trkpt lat="46.48359" lon="5.36406">
        <ele>237.8</ele>
        <time>2022-09-01T07:44:51Z</time>
      </trkpt>
      <trkpt lat="46.48327" lon="5.36441">
        <ele>238</ele>
        <time>2022-09-01T07:44:57Z</time>
      </trkpt>
      <trkpt lat="46.48302" lon="5.36468">
        <ele>239.2</ele>
        <time>2022-09-01T07:45:02Z</time>
      </trkpt>
      <trkpt lat="46.48268" lon="5.36507">
        <ele>240.4</ele>
        <time>2022-09-01T07:45:09Z</time>
      </trkpt>
      <trkpt lat="46.48245" lon="5.36532">
        <ele>241.4</ele>
        <time>2022-09-01T07:45:14Z</time>
      </trkpt>
      <trkpt lat="46.4824" lon="5.36537">
        <ele>241.4</ele>
        <time>2022-09-01T07:45:15Z</time>
      </trkpt>
      <trkpt lat="46.48224" lon="5.36553">
        <ele>242.2</ele>
        <time>2022-09-01T07:45:18Z</time>
      </trkpt>
      <trkpt lat="46.48213" lon="5.36556">
        <ele>242.6</ele>
        <time>2022-09-01T07:45:20Z</time>
      </trkpt>
      <trkpt lat="46.48203" lon="5.36557">
        <ele>242.8</ele>
        <time>2022-09-01T07:45:22Z</time>
      </trkpt>
      <trkpt lat="46.48198" lon="5.3656">
        <ele>243</ele>
        <time>2022-09-01T07:45:23Z</time>
      </trkpt>
      <trkpt lat="46.48193" lon="5.36565">
        <ele>243</ele>
        <time>2022-09-01T07:45:24Z</time>
      </trkpt>
      <trkpt lat="46.48182" lon="5.36594">
        <ele>243.6</ele>
        <time>2022-09-01T07:45:28Z</time>
      </trkpt>
      <trkpt lat="46.48174" lon="5.36608">
        <ele>243.8</ele>
        <time>2022-09-01T07:45:30Z</time>
      </trkpt>
      <trkpt lat="46.48165" lon="5.36618">
        <ele>244</ele>
        <time>2022-09-01T07:45:32Z</time>
      </trkpt>
      <trkpt lat="46.4813" lon="5.36654">
        <ele>244.6</ele>
        <time>2022-09-01T07:45:39Z</time>
      </trkpt>
      <trkpt lat="46.4812" lon="5.36665">
        <ele>244.6</ele>
        <time>2022-09-01T07:45:41Z</time>
      </trkpt>
      <trkpt lat="46.48104" lon="5.36683">
        <ele>245</ele>
        <time>2022-09-01T07:45:45Z</time>
      </trkpt>
      <trkpt lat="46.48102" lon="5.36688">
        <ele>245.2</ele>
        <time>2022-09-01T07:45:46Z</time>
      </trkpt>
      <trkpt lat="46.48102" lon="5.36694">
        <ele>245.4</ele>
        <time>2022-09-01T07:45:47Z</time>
      </trkpt>
      <trkpt lat="46.48107" lon="5.36705">
        <ele>245.8</ele>
        <time>2022-09-01T07:45:49Z</time>
      </trkpt>
      <trkpt lat="46.48129" lon="5.36724">
        <ele>246.6</ele>
        <time>2022-09-01T07:45:54Z</time>
      </trkpt>
      <trkpt lat="46.48138" lon="5.36731">
        <ele>247</ele>
        <time>2022-09-01T07:45:56Z</time>
      </trkpt>
      <trkpt lat="46.48164" lon="5.36752">
        <ele>248.2</ele>
        <time>2022-09-01T07:46:02Z</time>
      </trkpt>
      <trkpt lat="46.48185" lon="5.36768">
        <ele>249.2</ele>
        <time>2022-09-01T07:46:07Z</time>
      </trkpt>
      <trkpt lat="46.48205" lon="5.36784">
        <ele>250.6</ele>
        <time>2022-09-01T07:46:12Z</time>
      </trkpt>
      <trkpt lat="46.4822" lon="5.36798">
        <ele>251.6</ele>
        <time>2022-09-01T07:46:16Z</time>
      </trkpt>
      <trkpt lat="46.48223" lon="5.36801">
        <ele>251.8</ele>
        <time>2022-09-01T07:46:17Z</time>
      </trkpt>
      <trkpt lat="46.48234" lon="5.3681">
        <ele>252.6</ele>
        <time>2022-09-01T07:46:20Z</time>
      </trkpt>
      <trkpt lat="46.48248" lon="5.36822">
        <ele>253.8</ele>
        <time>2022-09-01T07:46:24Z</time>
      </trkpt>
      <trkpt lat="46.48253" lon="5.36826">
        <ele>254.4</ele>
        <time>2022-09-01T07:46:25Z</time>
      </trkpt>
      <trkpt lat="46.48259" lon="5.36833">
        <ele>254.8</ele>
        <time>2022-09-01T07:46:27Z</time>
      </trkpt>
    </trkseg>
  </trk>
</gpx>